<?xml version="1.0" encoding="utf-8"?>
<gpx xmlns:xsi="http://www.w3.org/2001/XMLSchema-instance" xmlns:xsd="http://www.w3.org/2001/XMLSchema" xsi:schemaLocation="http://www.topografix.com/GPX/1/0 http://www.topografix.com/GPX/1/0/gpx.xsd" version="1.0" creator="TOUR DE KURIER" xmlns="http://www.topografix.com/GPX/1/0">
  <trk>
    <name>RaceAcrossStmk</name>
    <trkseg>
      <trkpt lat="47.070757" lon="15.414905">
        <ele>358</ele>
        <time>2016-07-17T05:00:00Z</time>
        <speed>30</speed>
      </trkpt>
      <trkpt lat="47.070065" lon="15.409449">
        <ele>366</ele>
        <time>2016-07-17T05:00:50.579Z</time>
        <speed>30</speed>
      </trkpt>
      <trkpt lat="47.070125" lon="15.409249">
        <ele>366</ele>
        <time>2016-07-17T05:00:52.567Z</time>
        <speed>30</speed>
      </trkpt>
      <trkpt lat="47.072261" lon="15.408437">
        <ele>368</ele>
        <time>2016-07-17T05:01:22.008Z</time>
        <speed>30</speed>
      </trkpt>
      <trkpt lat="47.072898" lon="15.40812">
        <ele>370</ele>
        <time>2016-07-17T05:01:30.982Z</time>
        <speed>30</speed>
      </trkpt>
      <trkpt lat="47.078089" lon="15.406648">
        <ele>365</ele>
        <time>2016-07-17T05:02:41.521Z</time>
        <speed>30</speed>
      </trkpt>
      <trkpt lat="47.08057" lon="15.405837">
        <ele>374</ele>
        <time>2016-07-17T05:03:15.434Z</time>
        <speed>30</speed>
      </trkpt>
      <trkpt lat="47.081989" lon="15.404836">
        <ele>372</ele>
        <time>2016-07-17T05:03:36.448Z</time>
        <speed>30</speed>
      </trkpt>
      <trkpt lat="47.083583" lon="15.403423">
        <ele>381</ele>
        <time>2016-07-17T05:04:01.308Z</time>
        <speed>30</speed>
      </trkpt>
      <trkpt lat="47.085006" lon="15.403142">
        <ele>383</ele>
        <time>2016-07-17T05:04:20.463Z</time>
        <speed>30</speed>
      </trkpt>
      <trkpt lat="47.08655" lon="15.402678">
        <ele>373</ele>
        <time>2016-07-17T05:04:41.49Z</time>
        <speed>30</speed>
      </trkpt>
      <trkpt lat="47.086988" lon="15.402456">
        <ele>376</ele>
        <time>2016-07-17T05:04:47.672Z</time>
        <speed>30</speed>
      </trkpt>
      <trkpt lat="47.087899" lon="15.401822">
        <ele>379</ele>
        <time>2016-07-17T05:05:01.128Z</time>
        <speed>30</speed>
      </trkpt>
      <trkpt lat="47.088736" lon="15.400784">
        <ele>389</ele>
        <time>2016-07-17T05:05:15.761Z</time>
        <speed>30</speed>
      </trkpt>
      <trkpt lat="47.089815" lon="15.398472">
        <ele>381</ele>
        <time>2016-07-17T05:05:41.275Z</time>
        <speed>30</speed>
      </trkpt>
      <trkpt lat="47.090188" lon="15.397997">
        <ele>377</ele>
        <time>2016-07-17T05:05:47.87Z</time>
        <speed>30</speed>
      </trkpt>
      <trkpt lat="47.090732" lon="15.397527">
        <ele>382</ele>
        <time>2016-07-17T05:05:56.297Z</time>
        <speed>30</speed>
      </trkpt>
      <trkpt lat="47.091148" lon="15.397318">
        <ele>381</ele>
        <time>2016-07-17T05:06:02.163Z</time>
        <speed>30</speed>
      </trkpt>
      <trkpt lat="47.091678" lon="15.397319">
        <ele>374</ele>
        <time>2016-07-17T05:06:09.234Z</time>
        <speed>30</speed>
      </trkpt>
      <trkpt lat="47.092094" lon="15.397181">
        <ele>378</ele>
        <time>2016-07-17T05:06:14.924Z</time>
        <speed>30</speed>
      </trkpt>
      <trkpt lat="47.093314" lon="15.396403">
        <ele>379</ele>
        <time>2016-07-17T05:06:32.676Z</time>
        <speed>30</speed>
      </trkpt>
      <trkpt lat="47.094083" lon="15.39634">
        <ele>381</ele>
        <time>2016-07-17T05:06:42.951Z</time>
        <speed>30</speed>
      </trkpt>
      <trkpt lat="47.094972" lon="15.395948">
        <ele>378</ele>
        <time>2016-07-17T05:06:55.337Z</time>
        <speed>30</speed>
      </trkpt>
      <trkpt lat="47.09619" lon="15.395601">
        <ele>380</ele>
        <time>2016-07-17T05:07:11.89Z</time>
        <speed>30</speed>
      </trkpt>
      <trkpt lat="47.096546" lon="15.395307">
        <ele>378</ele>
        <time>2016-07-17T05:07:17.34Z</time>
        <speed>30</speed>
      </trkpt>
      <trkpt lat="47.09707" lon="15.394511">
        <ele>381</ele>
        <time>2016-07-17T05:07:27.412Z</time>
        <speed>30</speed>
      </trkpt>
      <trkpt lat="47.097432" lon="15.394113">
        <ele>379</ele>
        <time>2016-07-17T05:07:33.451Z</time>
        <speed>30</speed>
      </trkpt>
      <trkpt lat="47.098717" lon="15.393088">
        <ele>380</ele>
        <time>2016-07-17T05:07:52.972Z</time>
        <speed>30</speed>
      </trkpt>
      <trkpt lat="47.099272" lon="15.392907">
        <ele>381</ele>
        <time>2016-07-17T05:08:00.557Z</time>
        <speed>30</speed>
      </trkpt>
      <trkpt lat="47.099414" lon="15.391974">
        <ele>385</ele>
        <time>2016-07-17T05:08:09.265Z</time>
        <speed>30</speed>
      </trkpt>
      <trkpt lat="47.099603" lon="15.391396">
        <ele>382</ele>
        <time>2016-07-17T05:08:15.103Z</time>
        <speed>30</speed>
      </trkpt>
      <trkpt lat="47.099815" lon="15.39105">
        <ele>381</ele>
        <time>2016-07-17T05:08:19.334Z</time>
        <speed>30</speed>
      </trkpt>
      <trkpt lat="47.100357" lon="15.390638">
        <ele>382</ele>
        <time>2016-07-17T05:08:27.481Z</time>
        <speed>30</speed>
      </trkpt>
      <trkpt lat="47.100818" lon="15.390044">
        <ele>385</ele>
        <time>2016-07-17T05:08:35.673Z</time>
        <speed>30</speed>
      </trkpt>
      <trkpt lat="47.101047" lon="15.389036">
        <ele>386</ele>
        <time>2016-07-17T05:08:45.35Z</time>
        <speed>30</speed>
      </trkpt>
      <trkpt lat="47.101456" lon="15.388418">
        <ele>389</ele>
        <time>2016-07-17T05:08:53.19Z</time>
        <speed>30</speed>
      </trkpt>
      <trkpt lat="47.101773" lon="15.387455">
        <ele>389</ele>
        <time>2016-07-17T05:09:02.929Z</time>
        <speed>30</speed>
      </trkpt>
      <trkpt lat="47.10191" lon="15.385701">
        <ele>396</ele>
        <time>2016-07-17T05:09:19.011Z</time>
        <speed>30</speed>
      </trkpt>
      <trkpt lat="47.101706" lon="15.383837">
        <ele>401</ele>
        <time>2016-07-17T05:09:36.208Z</time>
        <speed>30</speed>
      </trkpt>
      <trkpt lat="47.101253" lon="15.382644">
        <ele>411</ele>
        <time>2016-07-17T05:09:48.643Z</time>
        <speed>30</speed>
      </trkpt>
      <trkpt lat="47.100622" lon="15.381717">
        <ele>402</ele>
        <time>2016-07-17T05:10:00.567Z</time>
        <speed>30</speed>
      </trkpt>
      <trkpt lat="47.100288" lon="15.38032">
        <ele>417</ele>
        <time>2016-07-17T05:10:14.051Z</time>
        <speed>30</speed>
      </trkpt>
      <trkpt lat="47.099653" lon="15.379317">
        <ele>411</ele>
        <time>2016-07-17T05:10:26.511Z</time>
        <speed>30</speed>
      </trkpt>
      <trkpt lat="47.09937" lon="15.377803">
        <ele>438</ele>
        <time>2016-07-17T05:10:40.811Z</time>
        <speed>30</speed>
      </trkpt>
      <trkpt lat="47.099057" lon="15.377368">
        <ele>433</ele>
        <time>2016-07-17T05:10:46.568Z</time>
        <speed>30</speed>
      </trkpt>
      <trkpt lat="47.098251" lon="15.376777">
        <ele>429</ele>
        <time>2016-07-17T05:10:58.593Z</time>
        <speed>30</speed>
      </trkpt>
      <trkpt lat="47.097674" lon="15.375984">
        <ele>428</ele>
        <time>2016-07-17T05:11:09.15Z</time>
        <speed>30</speed>
      </trkpt>
      <trkpt lat="47.096766" lon="15.375447">
        <ele>414</ele>
        <time>2016-07-17T05:11:22.214Z</time>
        <speed>30</speed>
      </trkpt>
      <trkpt lat="47.095712" lon="15.374549">
        <ele>421</ele>
        <time>2016-07-17T05:11:38.482Z</time>
        <speed>30</speed>
      </trkpt>
      <trkpt lat="47.095071" lon="15.374148">
        <ele>423</ele>
        <time>2016-07-17T05:11:47.781Z</time>
        <speed>30</speed>
      </trkpt>
      <trkpt lat="47.094698" lon="15.374085">
        <ele>422</ele>
        <time>2016-07-17T05:11:52.79Z</time>
        <speed>30</speed>
      </trkpt>
      <trkpt lat="47.093121" lon="15.374242">
        <ele>425</ele>
        <time>2016-07-17T05:12:13.877Z</time>
        <speed>30</speed>
      </trkpt>
      <trkpt lat="47.092801" lon="15.374348">
        <ele>413</ele>
        <time>2016-07-17T05:12:18.254Z</time>
        <speed>30</speed>
      </trkpt>
      <trkpt lat="47.092258" lon="15.37473">
        <ele>406</ele>
        <time>2016-07-17T05:12:26.291Z</time>
        <speed>30</speed>
      </trkpt>
      <trkpt lat="47.091946" lon="15.374844">
        <ele>407</ele>
        <time>2016-07-17T05:12:30.581Z</time>
        <speed>30</speed>
      </trkpt>
      <trkpt lat="47.091649" lon="15.374733">
        <ele>408</ele>
        <time>2016-07-17T05:12:34.67Z</time>
        <speed>30</speed>
      </trkpt>
      <trkpt lat="47.090453" lon="15.373926">
        <ele>443</ele>
        <time>2016-07-17T05:12:52.238Z</time>
        <speed>30</speed>
      </trkpt>
      <trkpt lat="47.089617" lon="15.373612">
        <ele>437</ele>
        <time>2016-07-17T05:13:03.751Z</time>
        <speed>30</speed>
      </trkpt>
      <trkpt lat="47.088618" lon="15.372915">
        <ele>434</ele>
        <time>2016-07-17T05:13:18.514Z</time>
        <speed>30</speed>
      </trkpt>
      <trkpt lat="47.087812" lon="15.371965">
        <ele>425</ele>
        <time>2016-07-17T05:13:32.318Z</time>
        <speed>30</speed>
      </trkpt>
      <trkpt lat="47.086448" lon="15.371419">
        <ele>443</ele>
        <time>2016-07-17T05:13:51.183Z</time>
        <speed>30</speed>
      </trkpt>
      <trkpt lat="47.084818" lon="15.370222">
        <ele>446</ele>
        <time>2016-07-17T05:14:15.51Z</time>
        <speed>30</speed>
      </trkpt>
      <trkpt lat="47.084017" lon="15.369039">
        <ele>456</ele>
        <time>2016-07-17T05:14:30.689Z</time>
        <speed>30</speed>
      </trkpt>
      <trkpt lat="47.08359" lon="15.36864">
        <ele>456</ele>
        <time>2016-07-17T05:14:37.447Z</time>
        <speed>30</speed>
      </trkpt>
      <trkpt lat="47.081292" lon="15.367271">
        <ele>454</ele>
        <time>2016-07-17T05:15:10.545Z</time>
        <speed>30</speed>
      </trkpt>
      <trkpt lat="47.080332" lon="15.366339">
        <ele>455</ele>
        <time>2016-07-17T05:15:25.912Z</time>
        <speed>30</speed>
      </trkpt>
      <trkpt lat="47.079653" lon="15.365272">
        <ele>458</ele>
        <time>2016-07-17T05:15:39.201Z</time>
        <speed>30</speed>
      </trkpt>
      <trkpt lat="47.079346" lon="15.364567">
        <ele>451</ele>
        <time>2016-07-17T05:15:46.82Z</time>
        <speed>30</speed>
      </trkpt>
      <trkpt lat="47.079284" lon="15.364221">
        <ele>450.2</ele>
        <time>2016-07-17T05:15:50.075Z</time>
        <speed>30</speed>
      </trkpt>
      <trkpt lat="47.079788" lon="15.36202">
        <ele>458.8</ele>
        <time>2016-07-17T05:16:11.23Z</time>
        <speed>30</speed>
      </trkpt>
      <trkpt lat="47.079741" lon="15.361457">
        <ele>451.1</ele>
        <time>2016-07-17T05:16:16.399Z</time>
        <speed>30</speed>
      </trkpt>
      <trkpt lat="47.079436" lon="15.360931">
        <ele>442.5</ele>
        <time>2016-07-17T05:16:22.687Z</time>
        <speed>30</speed>
      </trkpt>
      <trkpt lat="47.077803" lon="15.359306">
        <ele>435.2</ele>
        <time>2016-07-17T05:16:49.029Z</time>
        <speed>30</speed>
      </trkpt>
      <trkpt lat="47.077072" lon="15.357699">
        <ele>436.7</ele>
        <time>2016-07-17T05:17:06.624Z</time>
        <speed>30</speed>
      </trkpt>
      <trkpt lat="47.077395" lon="15.356512">
        <ele>436.2</ele>
        <time>2016-07-17T05:17:18.268Z</time>
        <speed>30</speed>
      </trkpt>
      <trkpt lat="47.077681" lon="15.355857">
        <ele>435.9</ele>
        <time>2016-07-17T05:17:25.353Z</time>
        <speed>30</speed>
      </trkpt>
      <trkpt lat="47.078085" lon="15.355179">
        <ele>437.3</ele>
        <time>2016-07-17T05:17:33.552Z</time>
        <speed>30</speed>
      </trkpt>
      <trkpt lat="47.079039" lon="15.354">
        <ele>439.7</ele>
        <time>2016-07-17T05:17:50.208Z</time>
        <speed>30</speed>
      </trkpt>
      <trkpt lat="47.079244" lon="15.352799">
        <ele>439.7</ele>
        <time>2016-07-17T05:18:01.489Z</time>
        <speed>30</speed>
      </trkpt>
      <trkpt lat="47.079271" lon="15.351946">
        <ele>443.8</ele>
        <time>2016-07-17T05:18:09.271Z</time>
        <speed>30</speed>
      </trkpt>
      <trkpt lat="47.077449" lon="15.349497">
        <ele>458.8</ele>
        <time>2016-07-17T05:18:42.27Z</time>
        <speed>30</speed>
      </trkpt>
      <trkpt lat="47.077313" lon="15.349194">
        <ele>460</ele>
        <time>2016-07-17T05:18:45.571Z</time>
        <speed>30</speed>
      </trkpt>
      <trkpt lat="47.077004" lon="15.347615">
        <ele>465.4</ele>
        <time>2016-07-17T05:19:00.54Z</time>
        <speed>30</speed>
      </trkpt>
      <trkpt lat="47.076915" lon="15.346308">
        <ele>474.1</ele>
        <time>2016-07-17T05:19:12.51Z</time>
        <speed>30</speed>
      </trkpt>
      <trkpt lat="47.076716" lon="15.345725">
        <ele>478.5</ele>
        <time>2016-07-17T05:19:18.45Z</time>
        <speed>30</speed>
      </trkpt>
      <trkpt lat="47.076241" lon="15.344877">
        <ele>488.7</ele>
        <time>2016-07-17T05:19:28.444Z</time>
        <speed>30</speed>
      </trkpt>
      <trkpt lat="47.076045" lon="15.344321">
        <ele>495.6</ele>
        <time>2016-07-17T05:19:34.146Z</time>
        <speed>30</speed>
      </trkpt>
      <trkpt lat="47.075945" lon="15.34356">
        <ele>502.4</ele>
        <time>2016-07-17T05:19:41.209Z</time>
        <speed>30</speed>
      </trkpt>
      <trkpt lat="47.075466" lon="15.341428">
        <ele>509.9</ele>
        <time>2016-07-17T05:20:01.663Z</time>
        <speed>30</speed>
      </trkpt>
      <trkpt lat="47.075111" lon="15.340788">
        <ele>509.6</ele>
        <time>2016-07-17T05:20:09.176Z</time>
        <speed>30</speed>
      </trkpt>
      <trkpt lat="47.074389" lon="15.339964">
        <ele>513.2</ele>
        <time>2016-07-17T05:20:21.39Z</time>
        <speed>30</speed>
      </trkpt>
      <trkpt lat="47.074235" lon="15.339669">
        <ele>514.2</ele>
        <time>2016-07-17T05:20:24.77Z</time>
        <speed>30</speed>
      </trkpt>
      <trkpt lat="47.074229" lon="15.339408">
        <ele>515.4</ele>
        <time>2016-07-17T05:20:27.146Z</time>
        <speed>30</speed>
      </trkpt>
      <trkpt lat="47.074676" lon="15.338583">
        <ele>510</ele>
        <time>2016-07-17T05:20:36.743Z</time>
        <speed>30</speed>
      </trkpt>
      <trkpt lat="47.074715" lon="15.338252">
        <ele>505.9</ele>
        <time>2016-07-17T05:20:39.8Z</time>
        <speed>30</speed>
      </trkpt>
      <trkpt lat="47.074454" lon="15.33791">
        <ele>500.7</ele>
        <time>2016-07-17T05:20:44.47Z</time>
        <speed>30</speed>
      </trkpt>
      <trkpt lat="47.073977" lon="15.337566">
        <ele>492.9</ele>
        <time>2016-07-17T05:20:51.562Z</time>
        <speed>30</speed>
      </trkpt>
      <trkpt lat="47.073384" lon="15.337473">
        <ele>485.7</ele>
        <time>2016-07-17T05:20:59.518Z</time>
        <speed>30</speed>
      </trkpt>
      <trkpt lat="47.073229" lon="15.337143">
        <ele>481.3</ele>
        <time>2016-07-17T05:21:03.164Z</time>
        <speed>30</speed>
      </trkpt>
      <trkpt lat="47.073095" lon="15.336295">
        <ele>476.6</ele>
        <time>2016-07-17T05:21:11.097Z</time>
        <speed>30</speed>
      </trkpt>
      <trkpt lat="47.072872" lon="15.335753">
        <ele>476.2</ele>
        <time>2016-07-17T05:21:16.864Z</time>
        <speed>30</speed>
      </trkpt>
      <trkpt lat="47.072581" lon="15.335527">
        <ele>476.3</ele>
        <time>2016-07-17T05:21:21.257Z</time>
        <speed>30</speed>
      </trkpt>
      <trkpt lat="47.072606" lon="15.334923">
        <ele>479.4</ele>
        <time>2016-07-17T05:21:26.772Z</time>
        <speed>30</speed>
      </trkpt>
      <trkpt lat="47.072508" lon="15.333955">
        <ele>485.3</ele>
        <time>2016-07-17T05:21:35.691Z</time>
        <speed>30</speed>
      </trkpt>
      <trkpt lat="47.07255" lon="15.333329">
        <ele>487.7</ele>
        <time>2016-07-17T05:21:41.424Z</time>
        <speed>30</speed>
      </trkpt>
      <trkpt lat="47.072764" lon="15.332479">
        <ele>492.6</ele>
        <time>2016-07-17T05:21:49.68Z</time>
        <speed>30</speed>
      </trkpt>
      <trkpt lat="47.073179" lon="15.332064">
        <ele>498.2</ele>
        <time>2016-07-17T05:21:56.385Z</time>
        <speed>30</speed>
      </trkpt>
      <trkpt lat="47.073169" lon="15.331541">
        <ele>501.5</ele>
        <time>2016-07-17T05:22:01.154Z</time>
        <speed>30</speed>
      </trkpt>
      <trkpt lat="47.072575" lon="15.330562">
        <ele>507.6</ele>
        <time>2016-07-17T05:22:13.088Z</time>
        <speed>30</speed>
      </trkpt>
      <trkpt lat="47.072088" lon="15.330043">
        <ele>516.1</ele>
        <time>2016-07-17T05:22:21.125Z</time>
        <speed>30</speed>
      </trkpt>
      <trkpt lat="47.071709" lon="15.329297">
        <ele>523</ele>
        <time>2016-07-17T05:22:29.598Z</time>
        <speed>30</speed>
      </trkpt>
      <trkpt lat="47.071469" lon="15.32918">
        <ele>524.1</ele>
        <time>2016-07-17T05:22:32.972Z</time>
        <speed>30</speed>
      </trkpt>
      <trkpt lat="47.070578" lon="15.329343">
        <ele>525.5</ele>
        <time>2016-07-17T05:22:44.951Z</time>
        <speed>30</speed>
      </trkpt>
      <trkpt lat="47.070315" lon="15.329308">
        <ele>525.3</ele>
        <time>2016-07-17T05:22:48.474Z</time>
        <speed>30</speed>
      </trkpt>
      <trkpt lat="47.069964" lon="15.329062">
        <ele>528.9</ele>
        <time>2016-07-17T05:22:53.664Z</time>
        <speed>30</speed>
      </trkpt>
      <trkpt lat="47.069656" lon="15.328549">
        <ele>544</ele>
        <time>2016-07-17T05:22:59.889Z</time>
        <speed>30</speed>
      </trkpt>
      <trkpt lat="47.068626" lon="15.328224">
        <ele>541.8</ele>
        <time>2016-07-17T05:23:13.945Z</time>
        <speed>30</speed>
      </trkpt>
      <trkpt lat="47.067673" lon="15.327538">
        <ele>541.4</ele>
        <time>2016-07-17T05:23:28.113Z</time>
        <speed>30</speed>
      </trkpt>
      <trkpt lat="47.067421" lon="15.32755">
        <ele>538.7</ele>
        <time>2016-07-17T05:23:31.477Z</time>
        <speed>30</speed>
      </trkpt>
      <trkpt lat="47.066973" lon="15.327848">
        <ele>535.9</ele>
        <time>2016-07-17T05:23:38.04Z</time>
        <speed>30</speed>
      </trkpt>
      <trkpt lat="47.066263" lon="15.329187">
        <ele>532.5</ele>
        <time>2016-07-17T05:23:53.49Z</time>
        <speed>30</speed>
      </trkpt>
      <trkpt lat="47.066132" lon="15.329292">
        <ele>532.1</ele>
        <time>2016-07-17T05:23:55.482Z</time>
        <speed>30</speed>
      </trkpt>
      <trkpt lat="47.065921" lon="15.329211">
        <ele>531.7</ele>
        <time>2016-07-17T05:23:58.392Z</time>
        <speed>30</speed>
      </trkpt>
      <trkpt lat="47.06612" lon="15.328323">
        <ele>534.9</ele>
        <time>2016-07-17T05:24:06.911Z</time>
        <speed>30</speed>
      </trkpt>
      <trkpt lat="47.06611" lon="15.327477">
        <ele>541.7</ele>
        <time>2016-07-17T05:24:14.624Z</time>
        <speed>30</speed>
      </trkpt>
      <trkpt lat="47.066261" lon="15.326141">
        <ele>552.3</ele>
        <time>2016-07-17T05:24:26.968Z</time>
        <speed>30</speed>
      </trkpt>
      <trkpt lat="47.066553" lon="15.325507">
        <ele>554.6</ele>
        <time>2016-07-17T05:24:33.937Z</time>
        <speed>30</speed>
      </trkpt>
      <trkpt lat="47.067026" lon="15.324933">
        <ele>555.8</ele>
        <time>2016-07-17T05:24:42.134Z</time>
        <speed>30</speed>
      </trkpt>
      <trkpt lat="47.067249" lon="15.324313">
        <ele>554.7</ele>
        <time>2016-07-17T05:24:48.521Z</time>
        <speed>30</speed>
      </trkpt>
      <trkpt lat="47.067788" lon="15.323844">
        <ele>550.6</ele>
        <time>2016-07-17T05:24:56.886Z</time>
        <speed>30</speed>
      </trkpt>
      <trkpt lat="47.068322" lon="15.322853">
        <ele>539.9</ele>
        <time>2016-07-17T05:25:08.39Z</time>
        <speed>30</speed>
      </trkpt>
      <trkpt lat="47.06842" lon="15.320646">
        <ele>530.2</ele>
        <time>2016-07-17T05:25:28.549Z</time>
        <speed>30</speed>
      </trkpt>
      <trkpt lat="47.06824" lon="15.318875">
        <ele>513.5</ele>
        <time>2016-07-17T05:25:44.869Z</time>
        <speed>30</speed>
      </trkpt>
      <trkpt lat="47.067857" lon="15.317598">
        <ele>506</ele>
        <time>2016-07-17T05:25:57.581Z</time>
        <speed>30</speed>
      </trkpt>
      <trkpt lat="47.064961" lon="15.311389">
        <ele>500.5</ele>
        <time>2016-07-17T05:27:06.108Z</time>
        <speed>30</speed>
      </trkpt>
      <trkpt lat="47.064477" lon="15.309957">
        <ele>496.3</ele>
        <time>2016-07-17T05:27:20.671Z</time>
        <speed>30</speed>
      </trkpt>
      <trkpt lat="47.06436" lon="15.30826">
        <ele>485.6</ele>
        <time>2016-07-17T05:27:36.219Z</time>
        <speed>30</speed>
      </trkpt>
      <trkpt lat="47.063879" lon="15.307561">
        <ele>479.1</ele>
        <time>2016-07-17T05:27:45.262Z</time>
        <speed>30</speed>
      </trkpt>
      <trkpt lat="47.063741" lon="15.307044">
        <ele>473.9</ele>
        <time>2016-07-17T05:27:50.322Z</time>
        <speed>30</speed>
      </trkpt>
      <trkpt lat="47.063842" lon="15.306241">
        <ele>467.8</ele>
        <time>2016-07-17T05:27:57.765Z</time>
        <speed>30</speed>
      </trkpt>
      <trkpt lat="47.06427" lon="15.305188">
        <ele>459.9</ele>
        <time>2016-07-17T05:28:08.934Z</time>
        <speed>30</speed>
      </trkpt>
      <trkpt lat="47.064232" lon="15.305019">
        <ele>457.8</ele>
        <time>2016-07-17T05:28:10.554Z</time>
        <speed>30</speed>
      </trkpt>
      <trkpt lat="47.064096" lon="15.305073">
        <ele>457.8</ele>
        <time>2016-07-17T05:28:12.434Z</time>
        <speed>30</speed>
      </trkpt>
      <trkpt lat="47.063863" lon="15.305475">
        <ele>460</ele>
        <time>2016-07-17T05:28:17.239Z</time>
        <speed>30</speed>
      </trkpt>
      <trkpt lat="47.063576" lon="15.305709">
        <ele>458.8</ele>
        <time>2016-07-17T05:28:21.62Z</time>
        <speed>30</speed>
      </trkpt>
      <trkpt lat="47.063406" lon="15.306238">
        <ele>462.3</ele>
        <time>2016-07-17T05:28:26.949Z</time>
        <speed>30</speed>
      </trkpt>
      <trkpt lat="47.063315" lon="15.306143">
        <ele>460.3</ele>
        <time>2016-07-17T05:28:28.439Z</time>
        <speed>30</speed>
      </trkpt>
      <trkpt lat="47.06333" lon="15.305863">
        <ele>456.9</ele>
        <time>2016-07-17T05:28:30.995Z</time>
        <speed>30</speed>
      </trkpt>
      <trkpt lat="47.063698" lon="15.30455">
        <ele>450</ele>
        <time>2016-07-17T05:28:43.932Z</time>
        <speed>30</speed>
      </trkpt>
      <trkpt lat="47.064297" lon="15.303299">
        <ele>425.9</ele>
        <time>2016-07-17T05:28:57.857Z</time>
        <speed>30</speed>
      </trkpt>
      <trkpt lat="47.064545" lon="15.302575">
        <ele>416.5</ele>
        <time>2016-07-17T05:29:05.24Z</time>
        <speed>30</speed>
      </trkpt>
      <trkpt lat="47.06466" lon="15.301579">
        <ele>415.4</ele>
        <time>2016-07-17T05:29:14.448Z</time>
        <speed>30</speed>
      </trkpt>
      <trkpt lat="47.06447" lon="15.30061">
        <ele>419.7</ele>
        <time>2016-07-17T05:29:23.638Z</time>
        <speed>30</speed>
      </trkpt>
      <trkpt lat="47.063382" lon="15.298362">
        <ele>412.5</ele>
        <time>2016-07-17T05:29:48.75Z</time>
        <speed>30</speed>
      </trkpt>
      <trkpt lat="47.062681" lon="15.296011">
        <ele>408.1</ele>
        <time>2016-07-17T05:30:12.133Z</time>
        <speed>30</speed>
      </trkpt>
      <trkpt lat="47.061091" lon="15.29337">
        <ele>404.4</ele>
        <time>2016-07-17T05:30:44.22Z</time>
        <speed>30</speed>
      </trkpt>
      <trkpt lat="47.059477" lon="15.292064">
        <ele>401.3</ele>
        <time>2016-07-17T05:31:08.824Z</time>
        <speed>30</speed>
      </trkpt>
      <trkpt lat="47.058131" lon="15.291434">
        <ele>399.3</ele>
        <time>2016-07-17T05:31:27.677Z</time>
        <speed>30</speed>
      </trkpt>
      <trkpt lat="47.05778" lon="15.291188">
        <ele>399.8</ele>
        <time>2016-07-17T05:31:32.867Z</time>
        <speed>30</speed>
      </trkpt>
      <trkpt lat="47.057566" lon="15.290894">
        <ele>400.4</ele>
        <time>2016-07-17T05:31:36.78Z</time>
        <speed>30</speed>
      </trkpt>
      <trkpt lat="47.056745" lon="15.289223">
        <ele>413.4</ele>
        <time>2016-07-17T05:31:55.543Z</time>
        <speed>30</speed>
      </trkpt>
      <trkpt lat="47.056112" lon="15.288556">
        <ele>417.2</ele>
        <time>2016-07-17T05:32:05.949Z</time>
        <speed>30</speed>
      </trkpt>
      <trkpt lat="47.055657" lon="15.2883">
        <ele>417.3</ele>
        <time>2016-07-17T05:32:12.451Z</time>
        <speed>30</speed>
      </trkpt>
      <trkpt lat="47.055155" lon="15.288365">
        <ele>412.3</ele>
        <time>2016-07-17T05:32:19.174Z</time>
        <speed>30</speed>
      </trkpt>
      <trkpt lat="47.054173" lon="15.288219">
        <ele>405.4</ele>
        <time>2016-07-17T05:32:32.342Z</time>
        <speed>30</speed>
      </trkpt>
      <trkpt lat="47.054024" lon="15.288054">
        <ele>403.9</ele>
        <time>2016-07-17T05:32:34.833Z</time>
        <speed>30</speed>
      </trkpt>
      <trkpt lat="47.054101" lon="15.287695">
        <ele>404.1</ele>
        <time>2016-07-17T05:32:38.259Z</time>
        <speed>30</speed>
      </trkpt>
      <trkpt lat="47.054973" lon="15.286483">
        <ele>410.7</ele>
        <time>2016-07-17T05:32:54.304Z</time>
        <speed>30</speed>
      </trkpt>
      <trkpt lat="47.055646" lon="15.285359">
        <ele>408.8</ele>
        <time>2016-07-17T05:33:07.928Z</time>
        <speed>30</speed>
      </trkpt>
      <trkpt lat="47.056618" lon="15.284517">
        <ele>410.5</ele>
        <time>2016-07-17T05:33:22.997Z</time>
        <speed>30</speed>
      </trkpt>
      <trkpt lat="47.057109" lon="15.283932">
        <ele>411.2</ele>
        <time>2016-07-17T05:33:31.444Z</time>
        <speed>30</speed>
      </trkpt>
      <trkpt lat="47.057715" lon="15.283069">
        <ele>410.5</ele>
        <time>2016-07-17T05:33:42.725Z</time>
        <speed>30</speed>
      </trkpt>
      <trkpt lat="47.058174" lon="15.282181">
        <ele>407.2</ele>
        <time>2016-07-17T05:33:52.876Z</time>
        <speed>30</speed>
      </trkpt>
      <trkpt lat="47.058465" lon="15.281843">
        <ele>406.7</ele>
        <time>2016-07-17T05:33:57.829Z</time>
        <speed>30</speed>
      </trkpt>
      <trkpt lat="47.060203" lon="15.280343">
        <ele>410.5</ele>
        <time>2016-07-17T05:34:24.747Z</time>
        <speed>30</speed>
      </trkpt>
      <trkpt lat="47.060625" lon="15.279893">
        <ele>411.3</ele>
        <time>2016-07-17T05:34:31.713Z</time>
        <speed>30</speed>
      </trkpt>
      <trkpt lat="47.061487" lon="15.279531">
        <ele>414.7</ele>
        <time>2016-07-17T05:34:43.675Z</time>
        <speed>30</speed>
      </trkpt>
      <trkpt lat="47.062278" lon="15.278528">
        <ele>409.6</ele>
        <time>2016-07-17T05:34:57.638Z</time>
        <speed>30</speed>
      </trkpt>
      <trkpt lat="47.063511" lon="15.277626">
        <ele>411.6</ele>
        <time>2016-07-17T05:35:16.028Z</time>
        <speed>30</speed>
      </trkpt>
      <trkpt lat="47.064092" lon="15.2767">
        <ele>410.3</ele>
        <time>2016-07-17T05:35:27.488Z</time>
        <speed>30</speed>
      </trkpt>
      <trkpt lat="47.067791" lon="15.271647">
        <ele>415.2</ele>
        <time>2016-07-17T05:36:34.991Z</time>
        <speed>30</speed>
      </trkpt>
      <trkpt lat="47.068769" lon="15.270796">
        <ele>416.4</ele>
        <time>2016-07-17T05:36:50.17Z</time>
        <speed>30</speed>
      </trkpt>
      <trkpt lat="47.069687" lon="15.269773">
        <ele>415.8</ele>
        <time>2016-07-17T05:37:05.563Z</time>
        <speed>30</speed>
      </trkpt>
      <trkpt lat="47.072083" lon="15.268374">
        <ele>422.2</ele>
        <time>2016-07-17T05:37:39.977Z</time>
        <speed>30</speed>
      </trkpt>
      <trkpt lat="47.072729" lon="15.267395">
        <ele>422.4</ele>
        <time>2016-07-17T05:37:52.382Z</time>
        <speed>30</speed>
      </trkpt>
      <trkpt lat="47.074148" lon="15.266517">
        <ele>424.1</ele>
        <time>2016-07-17T05:38:12.934Z</time>
        <speed>30</speed>
      </trkpt>
      <trkpt lat="47.074377" lon="15.266267">
        <ele>424.4</ele>
        <time>2016-07-17T05:38:16.743Z</time>
        <speed>30</speed>
      </trkpt>
      <trkpt lat="47.074754" lon="15.2656">
        <ele>423.5</ele>
        <time>2016-07-17T05:38:24.633Z</time>
        <speed>30</speed>
      </trkpt>
      <trkpt lat="47.075222" lon="15.265665">
        <ele>429.6</ele>
        <time>2016-07-17T05:38:30.904Z</time>
        <speed>30</speed>
      </trkpt>
      <trkpt lat="47.075828" lon="15.265257">
        <ele>432.5</ele>
        <time>2016-07-17T05:38:39.803Z</time>
        <speed>30</speed>
      </trkpt>
      <trkpt lat="47.07612" lon="15.264938">
        <ele>430.3</ele>
        <time>2016-07-17T05:38:44.661Z</time>
        <speed>30</speed>
      </trkpt>
      <trkpt lat="47.077654" lon="15.262766">
        <ele>430.5</ele>
        <time>2016-07-17T05:39:13.133Z</time>
        <speed>30</speed>
      </trkpt>
      <trkpt lat="47.079812" lon="15.259464">
        <ele>435.1</ele>
        <time>2016-07-17T05:39:54.779Z</time>
        <speed>30</speed>
      </trkpt>
      <trkpt lat="47.081907" lon="15.257044">
        <ele>446.5</ele>
        <time>2016-07-17T05:40:30.381Z</time>
        <speed>30</speed>
      </trkpt>
      <trkpt lat="47.08328" lon="15.254643">
        <ele>442.4</ele>
        <time>2016-07-17T05:40:58.915Z</time>
        <speed>30</speed>
      </trkpt>
      <trkpt lat="47.083618" lon="15.253682">
        <ele>445.5</ele>
        <time>2016-07-17T05:41:08.765Z</time>
        <speed>30</speed>
      </trkpt>
      <trkpt lat="47.083969" lon="15.253094">
        <ele>448.6</ele>
        <time>2016-07-17T05:41:15.881Z</time>
        <speed>30</speed>
      </trkpt>
      <trkpt lat="47.084505" lon="15.252364">
        <ele>454.1</ele>
        <time>2016-07-17T05:41:25.647Z</time>
        <speed>30</speed>
      </trkpt>
      <trkpt lat="47.085321" lon="15.251743">
        <ele>456.1</ele>
        <time>2016-07-17T05:41:37.916Z</time>
        <speed>30</speed>
      </trkpt>
      <trkpt lat="47.085458" lon="15.2513">
        <ele>455.3</ele>
        <time>2016-07-17T05:41:42.347Z</time>
        <speed>30</speed>
      </trkpt>
      <trkpt lat="47.085634" lon="15.249952">
        <ele>458.3</ele>
        <time>2016-07-17T05:41:54.853Z</time>
        <speed>30</speed>
      </trkpt>
      <trkpt lat="47.085341" lon="15.247276">
        <ele>465.3</ele>
        <time>2016-07-17T05:42:19.548Z</time>
        <speed>30</speed>
      </trkpt>
      <trkpt lat="47.085376" lon="15.24677">
        <ele>465.6</ele>
        <time>2016-07-17T05:42:24.182Z</time>
        <speed>30</speed>
      </trkpt>
      <trkpt lat="47.085513" lon="15.246301">
        <ele>465</ele>
        <time>2016-07-17T05:42:28.83Z</time>
        <speed>30</speed>
      </trkpt>
      <trkpt lat="47.087629" lon="15.243092">
        <ele>460</ele>
        <time>2016-07-17T05:43:09.473Z</time>
        <speed>30</speed>
      </trkpt>
      <trkpt lat="47.088086" lon="15.241866">
        <ele>453.5</ele>
        <time>2016-07-17T05:43:22.199Z</time>
        <speed>30</speed>
      </trkpt>
      <trkpt lat="47.088374" lon="15.241729">
        <ele>454.6</ele>
        <time>2016-07-17T05:43:26.238Z</time>
        <speed>30</speed>
      </trkpt>
      <trkpt lat="47.088966" lon="15.241738">
        <ele>461.3</ele>
        <time>2016-07-17T05:43:34.136Z</time>
        <speed>30</speed>
      </trkpt>
      <trkpt lat="47.089353" lon="15.241372">
        <ele>460</ele>
        <time>2016-07-17T05:43:40.279Z</time>
        <speed>30</speed>
      </trkpt>
      <trkpt lat="47.089906" lon="15.24016">
        <ele>458.2</ele>
        <time>2016-07-17T05:43:53.56Z</time>
        <speed>30</speed>
      </trkpt>
      <trkpt lat="47.090236" lon="15.23911">
        <ele>461.4</ele>
        <time>2016-07-17T05:44:04.091Z</time>
        <speed>30</speed>
      </trkpt>
      <trkpt lat="47.090537" lon="15.238661">
        <ele>466.4</ele>
        <time>2016-07-17T05:44:09.823Z</time>
        <speed>30</speed>
      </trkpt>
      <trkpt lat="47.091021" lon="15.237548">
        <ele>466.1</ele>
        <time>2016-07-17T05:44:21.845Z</time>
        <speed>30</speed>
      </trkpt>
      <trkpt lat="47.091698" lon="15.236629">
        <ele>473.7</ele>
        <time>2016-07-17T05:44:34.161Z</time>
        <speed>30</speed>
      </trkpt>
      <trkpt lat="47.091972" lon="15.235588">
        <ele>476.9</ele>
        <time>2016-07-17T05:44:44.326Z</time>
        <speed>30</speed>
      </trkpt>
      <trkpt lat="47.092554" lon="15.234236">
        <ele>476.6</ele>
        <time>2016-07-17T05:44:58.887Z</time>
        <speed>30</speed>
      </trkpt>
      <trkpt lat="47.093357" lon="15.230597">
        <ele>479.9</ele>
        <time>2016-07-17T05:45:33.729Z</time>
        <speed>30</speed>
      </trkpt>
      <trkpt lat="47.09339" lon="15.229816">
        <ele>477.4</ele>
        <time>2016-07-17T05:45:40.858Z</time>
        <speed>30</speed>
      </trkpt>
      <trkpt lat="47.093156" lon="15.228825">
        <ele>479.8</ele>
        <time>2016-07-17T05:45:50.411Z</time>
        <speed>30</speed>
      </trkpt>
      <trkpt lat="47.093097" lon="15.228121">
        <ele>483.1</ele>
        <time>2016-07-17T05:45:56.873Z</time>
        <speed>30</speed>
      </trkpt>
      <trkpt lat="47.093095" lon="15.227007">
        <ele>484.3</ele>
        <time>2016-07-17T05:46:07.023Z</time>
        <speed>30</speed>
      </trkpt>
      <trkpt lat="47.093211" lon="15.225898">
        <ele>489.6</ele>
        <time>2016-07-17T05:46:17.245Z</time>
        <speed>30</speed>
      </trkpt>
      <trkpt lat="47.093186" lon="15.224887">
        <ele>489.9</ele>
        <time>2016-07-17T05:46:26.462Z</time>
        <speed>30</speed>
      </trkpt>
      <trkpt lat="47.09335" lon="15.223717">
        <ele>483.9</ele>
        <time>2016-07-17T05:46:37.344Z</time>
        <speed>30</speed>
      </trkpt>
      <trkpt lat="47.093631" lon="15.222772">
        <ele>488.4</ele>
        <time>2016-07-17T05:46:46.734Z</time>
        <speed>30</speed>
      </trkpt>
      <trkpt lat="47.0938" lon="15.221647">
        <ele>488.8</ele>
        <time>2016-07-17T05:46:57.229Z</time>
        <speed>30</speed>
      </trkpt>
      <trkpt lat="47.093979" lon="15.221266">
        <ele>487.7</ele>
        <time>2016-07-17T05:47:01.442Z</time>
        <speed>30</speed>
      </trkpt>
      <trkpt lat="47.094327" lon="15.221067">
        <ele>487.6</ele>
        <time>2016-07-17T05:47:06.425Z</time>
        <speed>30</speed>
      </trkpt>
      <trkpt lat="47.095095" lon="15.22104">
        <ele>500.2</ele>
        <time>2016-07-17T05:47:16.674Z</time>
        <speed>30</speed>
      </trkpt>
      <trkpt lat="47.097332" lon="15.22028">
        <ele>502.4</ele>
        <time>2016-07-17T05:47:47.31Z</time>
        <speed>30</speed>
      </trkpt>
      <trkpt lat="47.097882" lon="15.220257">
        <ele>502.9</ele>
        <time>2016-07-17T05:47:54.65Z</time>
        <speed>30</speed>
      </trkpt>
      <trkpt lat="47.098641" lon="15.220057">
        <ele>494.8</ele>
        <time>2016-07-17T05:48:04.938Z</time>
        <speed>30</speed>
      </trkpt>
      <trkpt lat="47.099885" lon="15.219316">
        <ele>486.8</ele>
        <time>2016-07-17T05:48:22.854Z</time>
        <speed>30</speed>
      </trkpt>
      <trkpt lat="47.1018" lon="15.218661">
        <ele>492.8</ele>
        <time>2016-07-17T05:48:49.089Z</time>
        <speed>30</speed>
      </trkpt>
      <trkpt lat="47.102129" lon="15.218769">
        <ele>493.9</ele>
        <time>2016-07-17T05:48:53.587Z</time>
        <speed>30</speed>
      </trkpt>
      <trkpt lat="47.102581" lon="15.219375">
        <ele>496.8</ele>
        <time>2016-07-17T05:49:01.762Z</time>
        <speed>30</speed>
      </trkpt>
      <trkpt lat="47.102724" lon="15.219405">
        <ele>497.6</ele>
        <time>2016-07-17T05:49:03.689Z</time>
        <speed>30</speed>
      </trkpt>
      <trkpt lat="47.103048" lon="15.219294">
        <ele>498.5</ele>
        <time>2016-07-17T05:49:08.128Z</time>
        <speed>30</speed>
      </trkpt>
      <trkpt lat="47.103833" lon="15.218629">
        <ele>501.2</ele>
        <time>2016-07-17T05:49:20.226Z</time>
        <speed>30</speed>
      </trkpt>
      <trkpt lat="47.104197" lon="15.218149">
        <ele>500.7</ele>
        <time>2016-07-17T05:49:26.76Z</time>
        <speed>30</speed>
      </trkpt>
      <trkpt lat="47.104655" lon="15.217727">
        <ele>501.4</ele>
        <time>2016-07-17T05:49:33.979Z</time>
        <speed>30</speed>
      </trkpt>
      <trkpt lat="47.105331" lon="15.217281">
        <ele>503.4</ele>
        <time>2016-07-17T05:49:43.87Z</time>
        <speed>30</speed>
      </trkpt>
      <trkpt lat="47.10589" lon="15.216599">
        <ele>502.8</ele>
        <time>2016-07-17T05:49:53.576Z</time>
        <speed>30</speed>
      </trkpt>
      <trkpt lat="47.108025" lon="15.214897">
        <ele>516</ele>
        <time>2016-07-17T05:50:26.004Z</time>
        <speed>30</speed>
      </trkpt>
      <trkpt lat="47.109545" lon="15.214096">
        <ele>513.6</ele>
        <time>2016-07-17T05:50:47.554Z</time>
        <speed>30</speed>
      </trkpt>
      <trkpt lat="47.110526" lon="15.213426">
        <ele>515</ele>
        <time>2016-07-17T05:51:01.994Z</time>
        <speed>30</speed>
      </trkpt>
      <trkpt lat="47.111482" lon="15.213189">
        <ele>525.7</ele>
        <time>2016-07-17T05:51:14.929Z</time>
        <speed>30</speed>
      </trkpt>
      <trkpt lat="47.1118" lon="15.212563">
        <ele>524.4</ele>
        <time>2016-07-17T05:51:22.036Z</time>
        <speed>30</speed>
      </trkpt>
      <trkpt lat="47.111951" lon="15.21207">
        <ele>526.3</ele>
        <time>2016-07-17T05:51:26.957Z</time>
        <speed>30</speed>
      </trkpt>
      <trkpt lat="47.112159" lon="15.210399">
        <ele>539</ele>
        <time>2016-07-17T05:51:42.427Z</time>
        <speed>30</speed>
      </trkpt>
      <trkpt lat="47.112351" lon="15.209727">
        <ele>536</ele>
        <time>2016-07-17T05:51:49.062Z</time>
        <speed>30</speed>
      </trkpt>
      <trkpt lat="47.113139" lon="15.20791">
        <ele>536.1</ele>
        <time>2016-07-17T05:52:08.667Z</time>
        <speed>30</speed>
      </trkpt>
      <trkpt lat="47.113599" lon="15.20719">
        <ele>535.8</ele>
        <time>2016-07-17T05:52:17.648Z</time>
        <speed>30</speed>
      </trkpt>
      <trkpt lat="47.114231" lon="15.206755">
        <ele>529.8</ele>
        <time>2016-07-17T05:52:26.964Z</time>
        <speed>30</speed>
      </trkpt>
      <trkpt lat="47.115454" lon="15.206936">
        <ele>538.7</ele>
        <time>2016-07-17T05:52:43.363Z</time>
        <speed>30</speed>
      </trkpt>
      <trkpt lat="47.11582" lon="15.206823">
        <ele>541.9</ele>
        <time>2016-07-17T05:52:48.353Z</time>
        <speed>30</speed>
      </trkpt>
      <trkpt lat="47.116488" lon="15.206112">
        <ele>536.4</ele>
        <time>2016-07-17T05:52:59.369Z</time>
        <speed>30</speed>
      </trkpt>
      <trkpt lat="47.11699" lon="15.205729">
        <ele>533.9</ele>
        <time>2016-07-17T05:53:06.92Z</time>
        <speed>30</speed>
      </trkpt>
      <trkpt lat="47.117401" lon="15.205125">
        <ele>532.8</ele>
        <time>2016-07-17T05:53:14.687Z</time>
        <speed>30</speed>
      </trkpt>
      <trkpt lat="47.117714" lon="15.204856">
        <ele>534.9</ele>
        <time>2016-07-17T05:53:19.526Z</time>
        <speed>30</speed>
      </trkpt>
      <trkpt lat="47.117991" lon="15.204678">
        <ele>536.5</ele>
        <time>2016-07-17T05:53:23.56Z</time>
        <speed>30</speed>
      </trkpt>
      <trkpt lat="47.119647" lon="15.204061">
        <ele>542.3</ele>
        <time>2016-07-17T05:53:46.356Z</time>
        <speed>30</speed>
      </trkpt>
      <trkpt lat="47.121123" lon="15.20294">
        <ele>556</ele>
        <time>2016-07-17T05:54:08.536Z</time>
        <speed>30</speed>
      </trkpt>
      <trkpt lat="47.121326" lon="15.202683">
        <ele>555.8</ele>
        <time>2016-07-17T05:54:12.113Z</time>
        <speed>30</speed>
      </trkpt>
      <trkpt lat="47.121611" lon="15.201854">
        <ele>551.4</ele>
        <time>2016-07-17T05:54:20.565Z</time>
        <speed>30</speed>
      </trkpt>
      <trkpt lat="47.122275" lon="15.20093">
        <ele>559.5</ele>
        <time>2016-07-17T05:54:32.782Z</time>
        <speed>30</speed>
      </trkpt>
      <trkpt lat="47.122803" lon="15.200516">
        <ele>565.3</ele>
        <time>2016-07-17T05:54:40.771Z</time>
        <speed>30</speed>
      </trkpt>
      <trkpt lat="47.123461" lon="15.200218">
        <ele>565.3</ele>
        <time>2016-07-17T05:54:49.958Z</time>
        <speed>30</speed>
      </trkpt>
      <trkpt lat="47.123664" lon="15.200014">
        <ele>566.9</ele>
        <time>2016-07-17T05:54:53.24Z</time>
        <speed>30</speed>
      </trkpt>
      <trkpt lat="47.124492" lon="15.19772">
        <ele>572.9</ele>
        <time>2016-07-17T05:55:16.869Z</time>
        <speed>30</speed>
      </trkpt>
      <trkpt lat="47.124927" lon="15.19726">
        <ele>564.8</ele>
        <time>2016-07-17T05:55:24.026Z</time>
        <speed>30</speed>
      </trkpt>
      <trkpt lat="47.12543" lon="15.196346">
        <ele>576.6</ele>
        <time>2016-07-17T05:55:34.717Z</time>
        <speed>30</speed>
      </trkpt>
      <trkpt lat="47.125949" lon="15.195676">
        <ele>576.7</ele>
        <time>2016-07-17T05:55:43.945Z</time>
        <speed>30</speed>
      </trkpt>
      <trkpt lat="47.126273" lon="15.195344">
        <ele>577.8</ele>
        <time>2016-07-17T05:55:49.217Z</time>
        <speed>30</speed>
      </trkpt>
      <trkpt lat="47.126589" lon="15.19517">
        <ele>575.6</ele>
        <time>2016-07-17T05:55:53.72Z</time>
        <speed>30</speed>
      </trkpt>
      <trkpt lat="47.126897" lon="15.195116">
        <ele>575</ele>
        <time>2016-07-17T05:55:57.858Z</time>
        <speed>30</speed>
      </trkpt>
      <trkpt lat="47.127377" lon="15.195184">
        <ele>578.1</ele>
        <time>2016-07-17T05:56:04.291Z</time>
        <speed>30</speed>
      </trkpt>
      <trkpt lat="47.127907" lon="15.194939">
        <ele>579.3</ele>
        <time>2016-07-17T05:56:11.704Z</time>
        <speed>30</speed>
      </trkpt>
      <trkpt lat="47.128377" lon="15.194869">
        <ele>584.3</ele>
        <time>2016-07-17T05:56:18.006Z</time>
        <speed>30</speed>
      </trkpt>
      <trkpt lat="47.128508" lon="15.194767">
        <ele>584.6</ele>
        <time>2016-07-17T05:56:19.984Z</time>
        <speed>30</speed>
      </trkpt>
      <trkpt lat="47.12856" lon="15.194574">
        <ele>583.3</ele>
        <time>2016-07-17T05:56:21.871Z</time>
        <speed>30</speed>
      </trkpt>
      <trkpt lat="47.128442" lon="15.193885">
        <ele>579.8</ele>
        <time>2016-07-17T05:56:28.339Z</time>
        <speed>30</speed>
      </trkpt>
      <trkpt lat="47.128503" lon="15.193455">
        <ele>585.8</ele>
        <time>2016-07-17T05:56:32.338Z</time>
        <speed>30</speed>
      </trkpt>
      <trkpt lat="47.128683" lon="15.193011">
        <ele>592.4</ele>
        <time>2016-07-17T05:56:37.04Z</time>
        <speed>30</speed>
      </trkpt>
      <trkpt lat="47.129313" lon="15.192009">
        <ele>596.7</ele>
        <time>2016-07-17T05:56:49.444Z</time>
        <speed>30</speed>
      </trkpt>
      <trkpt lat="47.130525" lon="15.188125">
        <ele>616.5</ele>
        <time>2016-07-17T05:57:28.327Z</time>
        <speed>30</speed>
      </trkpt>
      <trkpt lat="47.132321" lon="15.187118">
        <ele>654</ele>
        <time>2016-07-17T05:57:53.981Z</time>
        <speed>30</speed>
      </trkpt>
      <trkpt lat="47.132651" lon="15.18678">
        <ele>661.4</ele>
        <time>2016-07-17T05:57:59.35Z</time>
        <speed>30</speed>
      </trkpt>
      <trkpt lat="47.13263" lon="15.186624">
        <ele>661</ele>
        <time>2016-07-17T05:58:00.795Z</time>
        <speed>30</speed>
      </trkpt>
      <trkpt lat="47.132391" lon="15.186664">
        <ele>654</ele>
        <time>2016-07-17T05:58:04.004Z</time>
        <speed>30</speed>
      </trkpt>
      <trkpt lat="47.131521" lon="15.186527">
        <ele>643.2</ele>
        <time>2016-07-17T05:58:15.677Z</time>
        <speed>30</speed>
      </trkpt>
      <trkpt lat="47.131303" lon="15.186293">
        <ele>641</ele>
        <time>2016-07-17T05:58:19.28Z</time>
        <speed>30</speed>
      </trkpt>
      <trkpt lat="47.131369" lon="15.184922">
        <ele>664</ele>
        <time>2016-07-17T05:58:31.793Z</time>
        <speed>30</speed>
      </trkpt>
      <trkpt lat="47.131495" lon="15.184454">
        <ele>673.3</ele>
        <time>2016-07-17T05:58:36.373Z</time>
        <speed>30</speed>
      </trkpt>
      <trkpt lat="47.131465" lon="15.183949">
        <ele>669.4</ele>
        <time>2016-07-17T05:58:40.988Z</time>
        <speed>30</speed>
      </trkpt>
      <trkpt lat="47.132238" lon="15.182653">
        <ele>686.8</ele>
        <time>2016-07-17T05:58:56.659Z</time>
        <speed>30</speed>
      </trkpt>
      <trkpt lat="47.132472" lon="15.182492">
        <ele>695.7</ele>
        <time>2016-07-17T05:59:00.107Z</time>
        <speed>30</speed>
      </trkpt>
      <trkpt lat="47.133109" lon="15.18234">
        <ele>710.5</ele>
        <time>2016-07-17T05:59:08.717Z</time>
        <speed>30</speed>
      </trkpt>
      <trkpt lat="47.133385" lon="15.182018">
        <ele>709</ele>
        <time>2016-07-17T05:59:13.421Z</time>
        <speed>30</speed>
      </trkpt>
      <trkpt lat="47.133598" lon="15.181918">
        <ele>709.7</ele>
        <time>2016-07-17T05:59:16.404Z</time>
        <speed>30</speed>
      </trkpt>
      <trkpt lat="47.135088" lon="15.182068">
        <ele>727</ele>
        <time>2016-07-17T05:59:36.329Z</time>
        <speed>30</speed>
      </trkpt>
      <trkpt lat="47.135311" lon="15.182153">
        <ele>726</ele>
        <time>2016-07-17T05:59:39.403Z</time>
        <speed>30</speed>
      </trkpt>
      <trkpt lat="47.135448" lon="15.182243">
        <ele>726.2</ele>
        <time>2016-07-17T05:59:41.405Z</time>
        <speed>30</speed>
      </trkpt>
      <trkpt lat="47.135578" lon="15.182531">
        <ele>730.6</ele>
        <time>2016-07-17T05:59:44.545Z</time>
        <speed>30</speed>
      </trkpt>
      <trkpt lat="47.135855" lon="15.184493">
        <ele>747.8</ele>
        <time>2016-07-17T06:00:02.784Z</time>
        <speed>30</speed>
      </trkpt>
      <trkpt lat="47.136157" lon="15.185188">
        <ele>754.6</ele>
        <time>2016-07-17T06:00:10.285Z</time>
        <speed>30</speed>
      </trkpt>
      <trkpt lat="47.137131" lon="15.185941">
        <ele>760.7</ele>
        <time>2016-07-17T06:00:24.976Z</time>
        <speed>30</speed>
      </trkpt>
      <trkpt lat="47.137855" lon="15.186676">
        <ele>755.2</ele>
        <time>2016-07-17T06:00:36.726Z</time>
        <speed>30</speed>
      </trkpt>
      <trkpt lat="47.138037" lon="15.186744">
        <ele>756.5</ele>
        <time>2016-07-17T06:00:39.231Z</time>
        <speed>30</speed>
      </trkpt>
      <trkpt lat="47.138747" lon="15.186698">
        <ele>758</ele>
        <time>2016-07-17T06:00:48.712Z</time>
        <speed>30</speed>
      </trkpt>
      <trkpt lat="47.139806" lon="15.187198">
        <ele>761.4</ele>
        <time>2016-07-17T06:01:03.555Z</time>
        <speed>30</speed>
      </trkpt>
      <trkpt lat="47.141064" lon="15.18646">
        <ele>753.1</ele>
        <time>2016-07-17T06:01:21.632Z</time>
        <speed>30</speed>
      </trkpt>
      <trkpt lat="47.143449" lon="15.185924">
        <ele>761.2</ele>
        <time>2016-07-17T06:01:53.822Z</time>
        <speed>30</speed>
      </trkpt>
      <trkpt lat="47.143753" lon="15.18561">
        <ele>762.1</ele>
        <time>2016-07-17T06:01:58.781Z</time>
        <speed>30</speed>
      </trkpt>
      <trkpt lat="47.144099" lon="15.184857">
        <ele>763.2</ele>
        <time>2016-07-17T06:02:07.044Z</time>
        <speed>30</speed>
      </trkpt>
      <trkpt lat="47.144348" lon="15.184677">
        <ele>762.3</ele>
        <time>2016-07-17T06:02:10.747Z</time>
        <speed>30</speed>
      </trkpt>
      <trkpt lat="47.146092" lon="15.184476">
        <ele>765.3</ele>
        <time>2016-07-17T06:02:34.085Z</time>
        <speed>30</speed>
      </trkpt>
      <trkpt lat="47.147076" lon="15.184083">
        <ele>770</ele>
        <time>2016-07-17T06:02:47.691Z</time>
        <speed>30</speed>
      </trkpt>
      <trkpt lat="47.147653" lon="15.183574">
        <ele>769.8</ele>
        <time>2016-07-17T06:02:56.675Z</time>
        <speed>30</speed>
      </trkpt>
      <trkpt lat="47.148015" lon="15.183391">
        <ele>769.4</ele>
        <time>2016-07-17T06:03:01.783Z</time>
        <speed>30</speed>
      </trkpt>
      <trkpt lat="47.149252" lon="15.183303">
        <ele>769.4</ele>
        <time>2016-07-17T06:03:18.305Z</time>
        <speed>30</speed>
      </trkpt>
      <trkpt lat="47.15098" lon="15.182659">
        <ele>762.6</ele>
        <time>2016-07-17T06:03:42.091Z</time>
        <speed>30</speed>
      </trkpt>
      <trkpt lat="47.151263" lon="15.182668">
        <ele>764.4</ele>
        <time>2016-07-17T06:03:45.867Z</time>
        <speed>30</speed>
      </trkpt>
      <trkpt lat="47.152048" lon="15.183105">
        <ele>761.5</ele>
        <time>2016-07-17T06:03:57.069Z</time>
        <speed>30</speed>
      </trkpt>
      <trkpt lat="47.152923" lon="15.183155">
        <ele>759.4</ele>
        <time>2016-07-17T06:04:08.751Z</time>
        <speed>30</speed>
      </trkpt>
      <trkpt lat="47.153914" lon="15.182893">
        <ele>754.6</ele>
        <time>2016-07-17T06:04:22.184Z</time>
        <speed>30</speed>
      </trkpt>
      <trkpt lat="47.154332" lon="15.183053">
        <ele>746.1</ele>
        <time>2016-07-17T06:04:27.947Z</time>
        <speed>30</speed>
      </trkpt>
      <trkpt lat="47.154604" lon="15.18307">
        <ele>742.3</ele>
        <time>2016-07-17T06:04:31.579Z</time>
        <speed>30</speed>
      </trkpt>
      <trkpt lat="47.155051" lon="15.182845">
        <ele>742.4</ele>
        <time>2016-07-17T06:04:37.883Z</time>
        <speed>30</speed>
      </trkpt>
      <trkpt lat="47.155175" lon="15.18292">
        <ele>743.7</ele>
        <time>2016-07-17T06:04:39.672Z</time>
        <speed>30</speed>
      </trkpt>
      <trkpt lat="47.155316" lon="15.183243">
        <ele>740.7</ele>
        <time>2016-07-17T06:04:43.158Z</time>
        <speed>30</speed>
      </trkpt>
      <trkpt lat="47.15536" lon="15.183636">
        <ele>736.1</ele>
        <time>2016-07-17T06:04:46.782Z</time>
        <speed>30</speed>
      </trkpt>
      <trkpt lat="47.155272" lon="15.184081">
        <ele>730</ele>
        <time>2016-07-17T06:04:50.998Z</time>
        <speed>30</speed>
      </trkpt>
      <trkpt lat="47.155448" lon="15.184273">
        <ele>728.9</ele>
        <time>2016-07-17T06:04:53.923Z</time>
        <speed>30</speed>
      </trkpt>
      <trkpt lat="47.156236" lon="15.183974">
        <ele>732.4</ele>
        <time>2016-07-17T06:05:04.781Z</time>
        <speed>30</speed>
      </trkpt>
      <trkpt lat="47.157062" lon="15.184019">
        <ele>725.1</ele>
        <time>2016-07-17T06:05:15.808Z</time>
        <speed>30</speed>
      </trkpt>
      <trkpt lat="47.157358" lon="15.183959">
        <ele>725.2</ele>
        <time>2016-07-17T06:05:19.794Z</time>
        <speed>30</speed>
      </trkpt>
      <trkpt lat="47.157725" lon="15.183432">
        <ele>733.1</ele>
        <time>2016-07-17T06:05:26.647Z</time>
        <speed>30</speed>
      </trkpt>
      <trkpt lat="47.157833" lon="15.183396">
        <ele>733.2</ele>
        <time>2016-07-17T06:05:28.124Z</time>
        <speed>30</speed>
      </trkpt>
      <trkpt lat="47.158139" lon="15.183668">
        <ele>725</ele>
        <time>2016-07-17T06:05:32.896Z</time>
        <speed>30</speed>
      </trkpt>
      <trkpt lat="47.159036" lon="15.183748">
        <ele>719</ele>
        <time>2016-07-17T06:05:44.885Z</time>
        <speed>30</speed>
      </trkpt>
      <trkpt lat="47.15954" lon="15.183886">
        <ele>712.2</ele>
        <time>2016-07-17T06:05:51.725Z</time>
        <speed>30</speed>
      </trkpt>
      <trkpt lat="47.160452" lon="15.183045">
        <ele>718.5</ele>
        <time>2016-07-17T06:06:06.098Z</time>
        <speed>30</speed>
      </trkpt>
      <trkpt lat="47.160604" lon="15.183249">
        <ele>716.2</ele>
        <time>2016-07-17T06:06:08.845Z</time>
        <speed>30</speed>
      </trkpt>
      <trkpt lat="47.160483" lon="15.18382">
        <ele>708.3</ele>
        <time>2016-07-17T06:06:14.286Z</time>
        <speed>30</speed>
      </trkpt>
      <trkpt lat="47.160541" lon="15.18396">
        <ele>706</ele>
        <time>2016-07-17T06:06:15.775Z</time>
        <speed>30</speed>
      </trkpt>
      <trkpt lat="47.160706" lon="15.184003">
        <ele>704.7</ele>
        <time>2016-07-17T06:06:18.011Z</time>
        <speed>30</speed>
      </trkpt>
      <trkpt lat="47.161976" lon="15.183744">
        <ele>701.2</ele>
        <time>2016-07-17T06:06:35.117Z</time>
        <speed>30</speed>
      </trkpt>
      <trkpt lat="47.162294" lon="15.183286">
        <ele>702.8</ele>
        <time>2016-07-17T06:06:41.064Z</time>
        <speed>30</speed>
      </trkpt>
      <trkpt lat="47.162415" lon="15.18318">
        <ele>700.8</ele>
        <time>2016-07-17T06:06:42.944Z</time>
        <speed>30</speed>
      </trkpt>
      <trkpt lat="47.162543" lon="15.1832">
        <ele>698.9</ele>
        <time>2016-07-17T06:06:44.661Z</time>
        <speed>30</speed>
      </trkpt>
      <trkpt lat="47.162712" lon="15.183809">
        <ele>690.5</ele>
        <time>2016-07-17T06:06:50.643Z</time>
        <speed>30</speed>
      </trkpt>
      <trkpt lat="47.163458" lon="15.184389">
        <ele>684.9</ele>
        <time>2016-07-17T06:07:01.908Z</time>
        <speed>30</speed>
      </trkpt>
      <trkpt lat="47.164058" lon="15.184995">
        <ele>679.5</ele>
        <time>2016-07-17T06:07:11.628Z</time>
        <speed>30</speed>
      </trkpt>
      <trkpt lat="47.164641" lon="15.186675">
        <ele>683.7</ele>
        <time>2016-07-17T06:07:28.779Z</time>
        <speed>30</speed>
      </trkpt>
      <trkpt lat="47.164855" lon="15.188008">
        <ele>672.3</ele>
        <time>2016-07-17T06:07:41.239Z</time>
        <speed>30</speed>
      </trkpt>
      <trkpt lat="47.164945" lon="15.188147">
        <ele>668.5</ele>
        <time>2016-07-17T06:07:42.981Z</time>
        <speed>30</speed>
      </trkpt>
      <trkpt lat="47.165145" lon="15.188092">
        <ele>667.4</ele>
        <time>2016-07-17T06:07:45.696Z</time>
        <speed>30</speed>
      </trkpt>
      <trkpt lat="47.16595" lon="15.187453">
        <ele>675.2</ele>
        <time>2016-07-17T06:07:57.908Z</time>
        <speed>30</speed>
      </trkpt>
      <trkpt lat="47.167085" lon="15.186819">
        <ele>681.5</ele>
        <time>2016-07-17T06:08:14.111Z</time>
        <speed>30</speed>
      </trkpt>
      <trkpt lat="47.167499" lon="15.186486">
        <ele>683.3</ele>
        <time>2016-07-17T06:08:20.408Z</time>
        <speed>30</speed>
      </trkpt>
      <trkpt lat="47.167974" lon="15.185893">
        <ele>692</ele>
        <time>2016-07-17T06:08:28.731Z</time>
        <speed>30</speed>
      </trkpt>
      <trkpt lat="47.16835" lon="15.184981">
        <ele>697.7</ele>
        <time>2016-07-17T06:08:38.427Z</time>
        <speed>30</speed>
      </trkpt>
      <trkpt lat="47.168988" lon="15.184288">
        <ele>697</ele>
        <time>2016-07-17T06:08:49.019Z</time>
        <speed>30</speed>
      </trkpt>
      <trkpt lat="47.169454" lon="15.183544">
        <ele>691.1</ele>
        <time>2016-07-17T06:08:58.21Z</time>
        <speed>30</speed>
      </trkpt>
      <trkpt lat="47.170167" lon="15.18291">
        <ele>686.1</ele>
        <time>2016-07-17T06:09:09.334Z</time>
        <speed>30</speed>
      </trkpt>
      <trkpt lat="47.170699" lon="15.183052">
        <ele>692.7</ele>
        <time>2016-07-17T06:09:16.548Z</time>
        <speed>30</speed>
      </trkpt>
      <trkpt lat="47.171096" lon="15.182377">
        <ele>684.6</ele>
        <time>2016-07-17T06:09:24.657Z</time>
        <speed>30</speed>
      </trkpt>
      <trkpt lat="47.171462" lon="15.182275">
        <ele>689.4</ele>
        <time>2016-07-17T06:09:29.627Z</time>
        <speed>30</speed>
      </trkpt>
      <trkpt lat="47.171519" lon="15.182039">
        <ele>689</ele>
        <time>2016-07-17T06:09:31.902Z</time>
        <speed>30</speed>
      </trkpt>
      <trkpt lat="47.171438" lon="15.181786">
        <ele>685.8</ele>
        <time>2016-07-17T06:09:34.441Z</time>
        <speed>30</speed>
      </trkpt>
      <trkpt lat="47.171148" lon="15.181334">
        <ele>680.2</ele>
        <time>2016-07-17T06:09:40.087Z</time>
        <speed>30</speed>
      </trkpt>
      <trkpt lat="47.170655" lon="15.1809">
        <ele>672.3</ele>
        <time>2016-07-17T06:09:47.758Z</time>
        <speed>30</speed>
      </trkpt>
      <trkpt lat="47.170538" lon="15.180597">
        <ele>669.9</ele>
        <time>2016-07-17T06:09:50.922Z</time>
        <speed>30</speed>
      </trkpt>
      <trkpt lat="47.170707" lon="15.179392">
        <ele>667.6</ele>
        <time>2016-07-17T06:10:02.114Z</time>
        <speed>30</speed>
      </trkpt>
      <trkpt lat="47.170933" lon="15.179132">
        <ele>669.8</ele>
        <time>2016-07-17T06:10:05.944Z</time>
        <speed>30</speed>
      </trkpt>
      <trkpt lat="47.171581" lon="15.178882">
        <ele>676.3</ele>
        <time>2016-07-17T06:10:14.882Z</time>
        <speed>30</speed>
      </trkpt>
      <trkpt lat="47.172638" lon="15.178149">
        <ele>669.2</ele>
        <time>2016-07-17T06:10:30.481Z</time>
        <speed>30</speed>
      </trkpt>
      <trkpt lat="47.172781" lon="15.177923">
        <ele>667.7</ele>
        <time>2016-07-17T06:10:33.283Z</time>
        <speed>30</speed>
      </trkpt>
      <trkpt lat="47.172801" lon="15.177635">
        <ele>665</ele>
        <time>2016-07-17T06:10:35.913Z</time>
        <speed>30</speed>
      </trkpt>
      <trkpt lat="47.172681" lon="15.177381">
        <ele>663.5</ele>
        <time>2016-07-17T06:10:38.721Z</time>
        <speed>30</speed>
      </trkpt>
      <trkpt lat="47.17249" lon="15.177323">
        <ele>662.7</ele>
        <time>2016-07-17T06:10:41.323Z</time>
        <speed>30</speed>
      </trkpt>
      <trkpt lat="47.171942" lon="15.177713">
        <ele>661.1</ele>
        <time>2016-07-17T06:10:49.449Z</time>
        <speed>30</speed>
      </trkpt>
      <trkpt lat="47.171181" lon="15.177884">
        <ele>655.2</ele>
        <time>2016-07-17T06:10:59.72Z</time>
        <speed>30</speed>
      </trkpt>
      <trkpt lat="47.170982" lon="15.177773">
        <ele>651.1</ele>
        <time>2016-07-17T06:11:02.56Z</time>
        <speed>30</speed>
      </trkpt>
      <trkpt lat="47.170857" lon="15.177523">
        <ele>646.1</ele>
        <time>2016-07-17T06:11:05.377Z</time>
        <speed>30</speed>
      </trkpt>
      <trkpt lat="47.17088" lon="15.176886">
        <ele>641.3</ele>
        <time>2016-07-17T06:11:11.18Z</time>
        <speed>30</speed>
      </trkpt>
      <trkpt lat="47.171421" lon="15.175983">
        <ele>648.8</ele>
        <time>2016-07-17T06:11:22.115Z</time>
        <speed>30</speed>
      </trkpt>
      <trkpt lat="47.171362" lon="15.175781">
        <ele>647.9</ele>
        <time>2016-07-17T06:11:24.112Z</time>
        <speed>30</speed>
      </trkpt>
      <trkpt lat="47.171146" lon="15.175543">
        <ele>646.9</ele>
        <time>2016-07-17T06:11:27.714Z</time>
        <speed>30</speed>
      </trkpt>
      <trkpt lat="47.171118" lon="15.174925">
        <ele>651.9</ele>
        <time>2016-07-17T06:11:33.349Z</time>
        <speed>30</speed>
      </trkpt>
      <trkpt lat="47.170908" lon="15.17453">
        <ele>651.7</ele>
        <time>2016-07-17T06:11:37.906Z</time>
        <speed>30</speed>
      </trkpt>
      <trkpt lat="47.170809" lon="15.174125">
        <ele>651.5</ele>
        <time>2016-07-17T06:11:41.82Z</time>
        <speed>30</speed>
      </trkpt>
      <trkpt lat="47.170794" lon="15.173348">
        <ele>648.7</ele>
        <time>2016-07-17T06:11:48.892Z</time>
        <speed>30</speed>
      </trkpt>
      <trkpt lat="47.171058" lon="15.172234">
        <ele>649.8</ele>
        <time>2016-07-17T06:11:59.621Z</time>
        <speed>30</speed>
      </trkpt>
      <trkpt lat="47.171087" lon="15.171713">
        <ele>648.8</ele>
        <time>2016-07-17T06:12:04.377Z</time>
        <speed>30</speed>
      </trkpt>
      <trkpt lat="47.170603" lon="15.17034">
        <ele>623.8</ele>
        <time>2016-07-17T06:12:18.438Z</time>
        <speed>30</speed>
      </trkpt>
      <trkpt lat="47.170707" lon="15.169862">
        <ele>622.1</ele>
        <time>2016-07-17T06:12:23.003Z</time>
        <speed>30</speed>
      </trkpt>
      <trkpt lat="47.171145" lon="15.169364">
        <ele>628.6</ele>
        <time>2016-07-17T06:12:30.397Z</time>
        <speed>30</speed>
      </trkpt>
      <trkpt lat="47.171155" lon="15.169076">
        <ele>627</ele>
        <time>2016-07-17T06:12:33.016Z</time>
        <speed>30</speed>
      </trkpt>
      <trkpt lat="47.170911" lon="15.168778">
        <ele>624.1</ele>
        <time>2016-07-17T06:12:37.25Z</time>
        <speed>30</speed>
      </trkpt>
      <trkpt lat="47.170345" lon="15.168586">
        <ele>613.4</ele>
        <time>2016-07-17T06:12:45Z</time>
        <speed>30</speed>
      </trkpt>
      <trkpt lat="47.169873" lon="15.168077">
        <ele>610.3</ele>
        <time>2016-07-17T06:12:52.816Z</time>
        <speed>30</speed>
      </trkpt>
      <trkpt lat="47.16923" lon="15.167603">
        <ele>604.2</ele>
        <time>2016-07-17T06:13:02.417Z</time>
        <speed>30</speed>
      </trkpt>
      <trkpt lat="47.169093" lon="15.167401">
        <ele>602.4</ele>
        <time>2016-07-17T06:13:05.007Z</time>
        <speed>30</speed>
      </trkpt>
      <trkpt lat="47.169104" lon="15.16714">
        <ele>600.5</ele>
        <time>2016-07-17T06:13:07.382Z</time>
        <speed>30</speed>
      </trkpt>
      <trkpt lat="47.169336" lon="15.166884">
        <ele>601.7</ele>
        <time>2016-07-17T06:13:11.253Z</time>
        <speed>30</speed>
      </trkpt>
      <trkpt lat="47.170168" lon="15.166485">
        <ele>602.8</ele>
        <time>2016-07-17T06:13:22.931Z</time>
        <speed>30</speed>
      </trkpt>
      <trkpt lat="47.170622" lon="15.16647">
        <ele>602</ele>
        <time>2016-07-17T06:13:28.989Z</time>
        <speed>30</speed>
      </trkpt>
      <trkpt lat="47.171442" lon="15.1662">
        <ele>597.3</ele>
        <time>2016-07-17T06:13:40.2Z</time>
        <speed>30</speed>
      </trkpt>
      <trkpt lat="47.17195" lon="15.166192">
        <ele>598</ele>
        <time>2016-07-17T06:13:46.978Z</time>
        <speed>30</speed>
      </trkpt>
      <trkpt lat="47.172027" lon="15.165978">
        <ele>594.4</ele>
        <time>2016-07-17T06:13:49.177Z</time>
        <speed>30</speed>
      </trkpt>
      <trkpt lat="47.171945" lon="15.165735">
        <ele>591.4</ele>
        <time>2016-07-17T06:13:51.64Z</time>
        <speed>30</speed>
      </trkpt>
      <trkpt lat="47.17135" lon="15.165461">
        <ele>588.3</ele>
        <time>2016-07-17T06:13:59.959Z</time>
        <speed>30</speed>
      </trkpt>
      <trkpt lat="47.171089" lon="15.165156">
        <ele>586.5</ele>
        <time>2016-07-17T06:14:04.409Z</time>
        <speed>30</speed>
      </trkpt>
      <trkpt lat="47.170959" lon="15.164527">
        <ele>587</ele>
        <time>2016-07-17T06:14:10.388Z</time>
        <speed>30</speed>
      </trkpt>
      <trkpt lat="47.171012" lon="15.164368">
        <ele>587.8</ele>
        <time>2016-07-17T06:14:11.996Z</time>
        <speed>30</speed>
      </trkpt>
      <trkpt lat="47.172276" lon="15.164608">
        <ele>595.5</ele>
        <time>2016-07-17T06:14:28.999Z</time>
        <speed>30</speed>
      </trkpt>
      <trkpt lat="47.173081" lon="15.164885">
        <ele>595.7</ele>
        <time>2016-07-17T06:14:40.029Z</time>
        <speed>30</speed>
      </trkpt>
      <trkpt lat="47.173838" lon="15.164878">
        <ele>599.6</ele>
        <time>2016-07-17T06:14:50.128Z</time>
        <speed>30</speed>
      </trkpt>
      <trkpt lat="47.174701" lon="15.164703">
        <ele>603.6</ele>
        <time>2016-07-17T06:15:01.75Z</time>
        <speed>30</speed>
      </trkpt>
      <trkpt lat="47.175756" lon="15.163989">
        <ele>611.2</ele>
        <time>2016-07-17T06:15:17.251Z</time>
        <speed>30</speed>
      </trkpt>
      <trkpt lat="47.17621" lon="15.163448">
        <ele>618.4</ele>
        <time>2016-07-17T06:15:25.055Z</time>
        <speed>30</speed>
      </trkpt>
      <trkpt lat="47.176801" lon="15.162039">
        <ele>636.2</ele>
        <time>2016-07-17T06:15:40.103Z</time>
        <speed>30</speed>
      </trkpt>
      <trkpt lat="47.176947" lon="15.161842">
        <ele>636.8</ele>
        <time>2016-07-17T06:15:42.748Z</time>
        <speed>30</speed>
      </trkpt>
      <trkpt lat="47.178051" lon="15.16074">
        <ele>633.2</ele>
        <time>2016-07-17T06:16:00.564Z</time>
        <speed>30</speed>
      </trkpt>
      <trkpt lat="47.179282" lon="15.160047">
        <ele>628.8</ele>
        <time>2016-07-17T06:16:18.155Z</time>
        <speed>30</speed>
      </trkpt>
      <trkpt lat="47.179803" lon="15.15894">
        <ele>634.4</ele>
        <time>2016-07-17T06:16:30.39Z</time>
        <speed>30</speed>
      </trkpt>
      <trkpt lat="47.180301" lon="15.157604">
        <ele>646.1</ele>
        <time>2016-07-17T06:16:44.24Z</time>
        <speed>30</speed>
      </trkpt>
      <trkpt lat="47.181295" lon="15.157005">
        <ele>651.6</ele>
        <time>2016-07-17T06:16:58.577Z</time>
        <speed>30</speed>
      </trkpt>
      <trkpt lat="47.18193" lon="15.156264">
        <ele>657.9</ele>
        <time>2016-07-17T06:17:09.403Z</time>
        <speed>30</speed>
      </trkpt>
      <trkpt lat="47.183625" lon="15.154789">
        <ele>682</ele>
        <time>2016-07-17T06:17:35.696Z</time>
        <speed>30</speed>
      </trkpt>
      <trkpt lat="47.184567" lon="15.15372">
        <ele>693.7</ele>
        <time>2016-07-17T06:17:51.585Z</time>
        <speed>30</speed>
      </trkpt>
      <trkpt lat="47.185425" lon="15.15345">
        <ele>695.1</ele>
        <time>2016-07-17T06:18:03.291Z</time>
        <speed>30</speed>
      </trkpt>
      <trkpt lat="47.185684" lon="15.153265">
        <ele>697</ele>
        <time>2016-07-17T06:18:07.133Z</time>
        <speed>30</speed>
      </trkpt>
      <trkpt lat="47.186325" lon="15.151728">
        <ele>718.4</ele>
        <time>2016-07-17T06:18:23.52Z</time>
        <speed>30</speed>
      </trkpt>
      <trkpt lat="47.186573" lon="15.150055">
        <ele>716</ele>
        <time>2016-07-17T06:18:39.091Z</time>
        <speed>30</speed>
      </trkpt>
      <trkpt lat="47.18672" lon="15.149522">
        <ele>715</ele>
        <time>2016-07-17T06:18:44.32Z</time>
        <speed>30</speed>
      </trkpt>
      <trkpt lat="47.187301" lon="15.148016">
        <ele>728.7</ele>
        <time>2016-07-17T06:19:00.058Z</time>
        <speed>30</speed>
      </trkpt>
      <trkpt lat="47.18838" lon="15.145609">
        <ele>752.6</ele>
        <time>2016-07-17T06:19:26.258Z</time>
        <speed>30</speed>
      </trkpt>
      <trkpt lat="47.188647" lon="15.143188">
        <ele>764.9</ele>
        <time>2016-07-17T06:19:48.562Z</time>
        <speed>30</speed>
      </trkpt>
      <trkpt lat="47.188814" lon="15.142675">
        <ele>766.4</ele>
        <time>2016-07-17T06:19:53.732Z</time>
        <speed>30</speed>
      </trkpt>
      <trkpt lat="47.189187" lon="15.141908">
        <ele>766.6</ele>
        <time>2016-07-17T06:20:02.301Z</time>
        <speed>30</speed>
      </trkpt>
      <trkpt lat="47.190166" lon="15.140545">
        <ele>774.5</ele>
        <time>2016-07-17T06:20:20.308Z</time>
        <speed>30</speed>
      </trkpt>
      <trkpt lat="47.191028" lon="15.13862">
        <ele>783.5</ele>
        <time>2016-07-17T06:20:41.254Z</time>
        <speed>30</speed>
      </trkpt>
      <trkpt lat="47.191325" lon="15.137505">
        <ele>790.1</ele>
        <time>2016-07-17T06:20:52.141Z</time>
        <speed>30</speed>
      </trkpt>
      <trkpt lat="47.191563" lon="15.135608">
        <ele>800.8</ele>
        <time>2016-07-17T06:21:09.682Z</time>
        <speed>30</speed>
      </trkpt>
      <trkpt lat="47.191636" lon="15.133936">
        <ele>815.2</ele>
        <time>2016-07-17T06:21:24.918Z</time>
        <speed>30</speed>
      </trkpt>
      <trkpt lat="47.192096" lon="15.132927">
        <ele>814.9</ele>
        <time>2016-07-17T06:21:35.957Z</time>
        <speed>30</speed>
      </trkpt>
      <trkpt lat="47.19251" lon="15.132357">
        <ele>814.9</ele>
        <time>2016-07-17T06:21:43.532Z</time>
        <speed>30</speed>
      </trkpt>
      <trkpt lat="47.193064" lon="15.131262">
        <ele>846.3</ele>
        <time>2016-07-17T06:21:55.933Z</time>
        <speed>30</speed>
      </trkpt>
      <trkpt lat="47.193672" lon="15.129431">
        <ele>868.1</ele>
        <time>2016-07-17T06:22:14.454Z</time>
        <speed>30</speed>
      </trkpt>
      <trkpt lat="47.193637" lon="15.129324">
        <ele>869.9</ele>
        <time>2016-07-17T06:22:15.532Z</time>
        <speed>30</speed>
      </trkpt>
      <trkpt lat="47.193539" lon="15.129326">
        <ele>870.1</ele>
        <time>2016-07-17T06:22:16.84Z</time>
        <speed>30</speed>
      </trkpt>
      <trkpt lat="47.193119" lon="15.130204">
        <ele>855.3</ele>
        <time>2016-07-17T06:22:26.594Z</time>
        <speed>30</speed>
      </trkpt>
      <trkpt lat="47.192852" lon="15.13056">
        <ele>851.7</ele>
        <time>2016-07-17T06:22:31.404Z</time>
        <speed>30</speed>
      </trkpt>
      <trkpt lat="47.192745" lon="15.130604">
        <ele>850.7</ele>
        <time>2016-07-17T06:22:32.886Z</time>
        <speed>30</speed>
      </trkpt>
      <trkpt lat="47.192498" lon="15.130443">
        <ele>853.8</ele>
        <time>2016-07-17T06:22:36.491Z</time>
        <speed>30</speed>
      </trkpt>
      <trkpt lat="47.192195" lon="15.130459">
        <ele>850.4</ele>
        <time>2016-07-17T06:22:40.536Z</time>
        <speed>30</speed>
      </trkpt>
      <trkpt lat="47.191985" lon="15.13035">
        <ele>850.7</ele>
        <time>2016-07-17T06:22:43.507Z</time>
        <speed>30</speed>
      </trkpt>
      <trkpt lat="47.19165" lon="15.129731">
        <ele>863.3</ele>
        <time>2016-07-17T06:22:50.695Z</time>
        <speed>30</speed>
      </trkpt>
      <trkpt lat="47.191043" lon="15.129248">
        <ele>869.1</ele>
        <time>2016-07-17T06:22:59.908Z</time>
        <speed>30</speed>
      </trkpt>
      <trkpt lat="47.190526" lon="15.12829">
        <ele>877.2</ele>
        <time>2016-07-17T06:23:11.02Z</time>
        <speed>30</speed>
      </trkpt>
      <trkpt lat="47.19048" lon="15.127567">
        <ele>883.9</ele>
        <time>2016-07-17T06:23:17.624Z</time>
        <speed>30</speed>
      </trkpt>
      <trkpt lat="47.190857" lon="15.126029">
        <ele>897.9</ele>
        <time>2016-07-17T06:23:32.488Z</time>
        <speed>30</speed>
      </trkpt>
      <trkpt lat="47.190649" lon="15.125315">
        <ele>906</ele>
        <time>2016-07-17T06:23:39.549Z</time>
        <speed>30</speed>
      </trkpt>
      <trkpt lat="47.19027" lon="15.125157">
        <ele>907.9</ele>
        <time>2016-07-17T06:23:44.805Z</time>
        <speed>30</speed>
      </trkpt>
      <trkpt lat="47.18965" lon="15.125074">
        <ele>917.8</ele>
        <time>2016-07-17T06:23:53.111Z</time>
        <speed>30</speed>
      </trkpt>
      <trkpt lat="47.189395" lon="15.125225">
        <ele>922.5</ele>
        <time>2016-07-17T06:23:56.779Z</time>
        <speed>30</speed>
      </trkpt>
      <trkpt lat="47.189072" lon="15.125718">
        <ele>922.7</ele>
        <time>2016-07-17T06:24:02.998Z</time>
        <speed>30</speed>
      </trkpt>
      <trkpt lat="47.188501" lon="15.125681">
        <ele>932.4</ele>
        <time>2016-07-17T06:24:10.623Z</time>
        <speed>30</speed>
      </trkpt>
      <trkpt lat="47.188513" lon="15.125579">
        <ele>933.8</ele>
        <time>2016-07-17T06:24:11.563Z</time>
        <speed>30</speed>
      </trkpt>
      <trkpt lat="47.188724" lon="15.12557">
        <ele>930.5</ele>
        <time>2016-07-17T06:24:14.379Z</time>
        <speed>30</speed>
      </trkpt>
      <trkpt lat="47.188829" lon="15.125363">
        <ele>932</ele>
        <time>2016-07-17T06:24:16.723Z</time>
        <speed>30</speed>
      </trkpt>
      <trkpt lat="47.189073" lon="15.123879">
        <ele>947.9</ele>
        <time>2016-07-17T06:24:30.606Z</time>
        <speed>30</speed>
      </trkpt>
      <trkpt lat="47.189428" lon="15.123037">
        <ele>951.1</ele>
        <time>2016-07-17T06:24:39.61Z</time>
        <speed>30</speed>
      </trkpt>
      <trkpt lat="47.189321" lon="15.122821">
        <ele>951</ele>
        <time>2016-07-17T06:24:42.036Z</time>
        <speed>30</speed>
      </trkpt>
      <trkpt lat="47.18917" lon="15.122742">
        <ele>950.7</ele>
        <time>2016-07-17T06:24:44.174Z</time>
        <speed>30</speed>
      </trkpt>
      <trkpt lat="47.188993" lon="15.122805">
        <ele>950.8</ele>
        <time>2016-07-17T06:24:46.604Z</time>
        <speed>30</speed>
      </trkpt>
      <trkpt lat="47.188441" lon="15.123428">
        <ele>958</ele>
        <time>2016-07-17T06:24:55.896Z</time>
        <speed>30</speed>
      </trkpt>
      <trkpt lat="47.188008" lon="15.123665">
        <ele>960.7</ele>
        <time>2016-07-17T06:25:02.06Z</time>
        <speed>30</speed>
      </trkpt>
      <trkpt lat="47.18778" lon="15.123664">
        <ele>961.4</ele>
        <time>2016-07-17T06:25:05.102Z</time>
        <speed>30</speed>
      </trkpt>
      <trkpt lat="47.187019" lon="15.123367">
        <ele>959.8</ele>
        <time>2016-07-17T06:25:15.607Z</time>
        <speed>30</speed>
      </trkpt>
      <trkpt lat="47.18705" lon="15.12316">
        <ele>956.2</ele>
        <time>2016-07-17T06:25:17.532Z</time>
        <speed>30</speed>
      </trkpt>
      <trkpt lat="47.187407" lon="15.123143">
        <ele>954.5</ele>
        <time>2016-07-17T06:25:22.297Z</time>
        <speed>30</speed>
      </trkpt>
      <trkpt lat="47.187745" lon="15.122953">
        <ele>951.2</ele>
        <time>2016-07-17T06:25:27.125Z</time>
        <speed>30</speed>
      </trkpt>
      <trkpt lat="47.188229" lon="15.122325">
        <ele>941.6</ele>
        <time>2016-07-17T06:25:35.746Z</time>
        <speed>30</speed>
      </trkpt>
      <trkpt lat="47.188924" lon="15.121677">
        <ele>930.1</ele>
        <time>2016-07-17T06:25:46.732Z</time>
        <speed>30</speed>
      </trkpt>
      <trkpt lat="47.18926" lon="15.121559">
        <ele>929.6</ele>
        <time>2016-07-17T06:25:51.341Z</time>
        <speed>30</speed>
      </trkpt>
      <trkpt lat="47.189277" lon="15.121411">
        <ele>926.4</ele>
        <time>2016-07-17T06:25:52.704Z</time>
        <speed>30</speed>
      </trkpt>
      <trkpt lat="47.188709" lon="15.120981">
        <ele>912</ele>
        <time>2016-07-17T06:26:01.231Z</time>
        <speed>30</speed>
      </trkpt>
      <trkpt lat="47.188315" lon="15.121305">
        <ele>919</ele>
        <time>2016-07-17T06:26:07.255Z</time>
        <speed>30</speed>
      </trkpt>
      <trkpt lat="47.188073" lon="15.121372">
        <ele>921</ele>
        <time>2016-07-17T06:26:10.54Z</time>
        <speed>30</speed>
      </trkpt>
      <trkpt lat="47.187575" lon="15.121314">
        <ele>920.2</ele>
        <time>2016-07-17T06:26:17.205Z</time>
        <speed>30</speed>
      </trkpt>
      <trkpt lat="47.187249" lon="15.12109">
        <ele>920.9</ele>
        <time>2016-07-17T06:26:22.006Z</time>
        <speed>30</speed>
      </trkpt>
      <trkpt lat="47.187152" lon="15.120877">
        <ele>919.2</ele>
        <time>2016-07-17T06:26:24.333Z</time>
        <speed>30</speed>
      </trkpt>
      <trkpt lat="47.18715" lon="15.120586">
        <ele>916.1</ele>
        <time>2016-07-17T06:26:26.976Z</time>
        <speed>30</speed>
      </trkpt>
      <trkpt lat="47.187412" lon="15.119481">
        <ele>898.1</ele>
        <time>2016-07-17T06:26:37.616Z</time>
        <speed>30</speed>
      </trkpt>
      <trkpt lat="47.187192" lon="15.118837">
        <ele>887.5</ele>
        <time>2016-07-17T06:26:44.167Z</time>
        <speed>30</speed>
      </trkpt>
      <trkpt lat="47.186878" lon="15.118475">
        <ele>880.8</ele>
        <time>2016-07-17T06:26:49.492Z</time>
        <speed>30</speed>
      </trkpt>
      <trkpt lat="47.186222" lon="15.118376">
        <ele>881.5</ele>
        <time>2016-07-17T06:26:58.29Z</time>
        <speed>30</speed>
      </trkpt>
      <trkpt lat="47.185865" lon="15.118018">
        <ele>878.1</ele>
        <time>2016-07-17T06:27:04.056Z</time>
        <speed>30</speed>
      </trkpt>
      <trkpt lat="47.185887" lon="15.117444">
        <ele>870</ele>
        <time>2016-07-17T06:27:09.285Z</time>
        <speed>30</speed>
      </trkpt>
      <trkpt lat="47.185637" lon="15.116039">
        <ele>854.2</ele>
        <time>2016-07-17T06:27:22.492Z</time>
        <speed>30</speed>
      </trkpt>
      <trkpt lat="47.185836" lon="15.113873">
        <ele>836.7</ele>
        <time>2016-07-17T06:27:42.37Z</time>
        <speed>30</speed>
      </trkpt>
      <trkpt lat="47.185919" lon="15.113722">
        <ele>835</ele>
        <time>2016-07-17T06:27:44.132Z</time>
        <speed>30</speed>
      </trkpt>
      <trkpt lat="47.186041" lon="15.113794">
        <ele>835.4</ele>
        <time>2016-07-17T06:27:45.886Z</time>
        <speed>30</speed>
      </trkpt>
      <trkpt lat="47.186082" lon="15.114595">
        <ele>841.1</ele>
        <time>2016-07-17T06:27:53.192Z</time>
        <speed>30</speed>
      </trkpt>
      <trkpt lat="47.186272" lon="15.115236">
        <ele>842.6</ele>
        <time>2016-07-17T06:27:59.549Z</time>
        <speed>30</speed>
      </trkpt>
      <trkpt lat="47.186966" lon="15.115814">
        <ele>839.1</ele>
        <time>2016-07-17T06:28:10.196Z</time>
        <speed>30</speed>
      </trkpt>
      <trkpt lat="47.186998" lon="15.115609">
        <ele>841.2</ele>
        <time>2016-07-17T06:28:12.106Z</time>
        <speed>30</speed>
      </trkpt>
      <trkpt lat="47.186691" lon="15.114786">
        <ele>838.7</ele>
        <time>2016-07-17T06:28:20.638Z</time>
        <speed>30</speed>
      </trkpt>
      <trkpt lat="47.186796" lon="15.113328">
        <ele>836.5</ele>
        <time>2016-07-17T06:28:33.972Z</time>
        <speed>30</speed>
      </trkpt>
      <trkpt lat="47.18644" lon="15.112138">
        <ele>823</ele>
        <time>2016-07-17T06:28:45.791Z</time>
        <speed>30</speed>
      </trkpt>
      <trkpt lat="47.186005" lon="15.11161">
        <ele>812</ele>
        <time>2016-07-17T06:28:53.324Z</time>
        <speed>30</speed>
      </trkpt>
      <trkpt lat="47.185559" lon="15.111733">
        <ele>800.1</ele>
        <time>2016-07-17T06:28:59.378Z</time>
        <speed>30</speed>
      </trkpt>
      <trkpt lat="47.184994" lon="15.112208">
        <ele>786</ele>
        <time>2016-07-17T06:29:08.066Z</time>
        <speed>30</speed>
      </trkpt>
      <trkpt lat="47.184818" lon="15.112241">
        <ele>782.7</ele>
        <time>2016-07-17T06:29:10.433Z</time>
        <speed>30</speed>
      </trkpt>
      <trkpt lat="47.184678" lon="15.112114">
        <ele>779.6</ele>
        <time>2016-07-17T06:29:12.628Z</time>
        <speed>30</speed>
      </trkpt>
      <trkpt lat="47.184159" lon="15.111">
        <ele>767.9</ele>
        <time>2016-07-17T06:29:24.9Z</time>
        <speed>30</speed>
      </trkpt>
      <trkpt lat="47.183553" lon="15.110699">
        <ele>768.5</ele>
        <time>2016-07-17T06:29:33.434Z</time>
        <speed>30</speed>
      </trkpt>
      <trkpt lat="47.183382" lon="15.110487">
        <ele>765.8</ele>
        <time>2016-07-17T06:29:36.419Z</time>
        <speed>30</speed>
      </trkpt>
      <trkpt lat="47.183318" lon="15.109989">
        <ele>759.9</ele>
        <time>2016-07-17T06:29:41.028Z</time>
        <speed>30</speed>
      </trkpt>
      <trkpt lat="47.18347" lon="15.109314">
        <ele>759.3</ele>
        <time>2016-07-17T06:29:47.494Z</time>
        <speed>30</speed>
      </trkpt>
      <trkpt lat="47.18343" lon="15.108972">
        <ele>757.9</ele>
        <time>2016-07-17T06:29:50.645Z</time>
        <speed>30</speed>
      </trkpt>
      <trkpt lat="47.183042" lon="15.107726">
        <ele>759.2</ele>
        <time>2016-07-17T06:30:03.104Z</time>
        <speed>30</speed>
      </trkpt>
      <trkpt lat="47.182676" lon="15.107082">
        <ele>751.5</ele>
        <time>2016-07-17T06:30:10.73Z</time>
        <speed>30</speed>
      </trkpt>
      <trkpt lat="47.182477" lon="15.105897">
        <ele>742.2</ele>
        <time>2016-07-17T06:30:21.83Z</time>
        <speed>30</speed>
      </trkpt>
      <trkpt lat="47.181979" lon="15.104934">
        <ele>747.9</ele>
        <time>2016-07-17T06:30:32.824Z</time>
        <speed>30</speed>
      </trkpt>
      <trkpt lat="47.181652" lon="15.10399">
        <ele>744.1</ele>
        <time>2016-07-17T06:30:42.455Z</time>
        <speed>30</speed>
      </trkpt>
      <trkpt lat="47.181396" lon="15.102763">
        <ele>747.5</ele>
        <time>2016-07-17T06:30:54.126Z</time>
        <speed>30</speed>
      </trkpt>
      <trkpt lat="47.181422" lon="15.101366">
        <ele>739.8</ele>
        <time>2016-07-17T06:31:06.838Z</time>
        <speed>30</speed>
      </trkpt>
      <trkpt lat="47.180931" lon="15.09898">
        <ele>718.3</ele>
        <time>2016-07-17T06:31:29.508Z</time>
        <speed>30</speed>
      </trkpt>
      <trkpt lat="47.180558" lon="15.098321">
        <ele>716.4</ele>
        <time>2016-07-17T06:31:37.299Z</time>
        <speed>30</speed>
      </trkpt>
      <trkpt lat="47.180342" lon="15.098143">
        <ele>715.7</ele>
        <time>2016-07-17T06:31:40.603Z</time>
        <speed>30</speed>
      </trkpt>
      <trkpt lat="47.179766" lon="15.097992">
        <ele>710.5</ele>
        <time>2016-07-17T06:31:48.409Z</time>
        <speed>30</speed>
      </trkpt>
      <trkpt lat="47.178823" lon="15.098082">
        <ele>707.4</ele>
        <time>2016-07-17T06:32:01.016Z</time>
        <speed>30</speed>
      </trkpt>
      <trkpt lat="47.178268" lon="15.097572">
        <ele>691.6</ele>
        <time>2016-07-17T06:32:09.753Z</time>
        <speed>30</speed>
      </trkpt>
      <trkpt lat="47.177667" lon="15.09734">
        <ele>685.9</ele>
        <time>2016-07-17T06:32:18.043Z</time>
        <speed>30</speed>
      </trkpt>
      <trkpt lat="47.175748" lon="15.096138">
        <ele>672.6</ele>
        <time>2016-07-17T06:32:45.881Z</time>
        <speed>30</speed>
      </trkpt>
      <trkpt lat="47.174663" lon="15.095819">
        <ele>656.5</ele>
        <time>2016-07-17T06:33:00.643Z</time>
        <speed>30</speed>
      </trkpt>
      <trkpt lat="47.174513" lon="15.095844">
        <ele>656.8</ele>
        <time>2016-07-17T06:33:02.657Z</time>
        <speed>30</speed>
      </trkpt>
      <trkpt lat="47.173991" lon="15.096206">
        <ele>662.4</ele>
        <time>2016-07-17T06:33:10.358Z</time>
        <speed>30</speed>
      </trkpt>
      <trkpt lat="47.173717" lon="15.096568">
        <ele>664.2</ele>
        <time>2016-07-17T06:33:15.275Z</time>
        <speed>30</speed>
      </trkpt>
      <trkpt lat="47.173223" lon="15.096728">
        <ele>660.8</ele>
        <time>2016-07-17T06:33:22.024Z</time>
        <speed>30</speed>
      </trkpt>
      <trkpt lat="47.172318" lon="15.096625">
        <ele>654.1</ele>
        <time>2016-07-17T06:33:34.134Z</time>
        <speed>30</speed>
      </trkpt>
      <trkpt lat="47.170949" lon="15.096652">
        <ele>650.8</ele>
        <time>2016-07-17T06:33:52.399Z</time>
        <speed>30</speed>
      </trkpt>
      <trkpt lat="47.170532" lon="15.096583">
        <ele>654.3</ele>
        <time>2016-07-17T06:33:57.997Z</time>
        <speed>30</speed>
      </trkpt>
      <trkpt lat="47.170029" lon="15.096828">
        <ele>654.3</ele>
        <time>2016-07-17T06:34:05.067Z</time>
        <speed>30</speed>
      </trkpt>
      <trkpt lat="47.169244" lon="15.096835">
        <ele>647.8</ele>
        <time>2016-07-17T06:34:15.54Z</time>
        <speed>30</speed>
      </trkpt>
      <trkpt lat="47.16857" lon="15.097092">
        <ele>638.8</ele>
        <time>2016-07-17T06:34:24.83Z</time>
        <speed>30</speed>
      </trkpt>
      <trkpt lat="47.168213" lon="15.097061">
        <ele>633.9</ele>
        <time>2016-07-17T06:34:29.601Z</time>
        <speed>30</speed>
      </trkpt>
      <trkpt lat="47.167508" lon="15.096842">
        <ele>627.8</ele>
        <time>2016-07-17T06:34:39.214Z</time>
        <speed>30</speed>
      </trkpt>
      <trkpt lat="47.166753" lon="15.097099">
        <ele>622.4</ele>
        <time>2016-07-17T06:34:49.553Z</time>
        <speed>30</speed>
      </trkpt>
      <trkpt lat="47.166343" lon="15.097152">
        <ele>619.5</ele>
        <time>2016-07-17T06:34:55.044Z</time>
        <speed>30</speed>
      </trkpt>
      <trkpt lat="47.166024" lon="15.09708">
        <ele>617.3</ele>
        <time>2016-07-17T06:34:59.35Z</time>
        <speed>30</speed>
      </trkpt>
      <trkpt lat="47.165504" lon="15.096791">
        <ele>613.3</ele>
        <time>2016-07-17T06:35:06.767Z</time>
        <speed>30</speed>
      </trkpt>
      <trkpt lat="47.165169" lon="15.096754">
        <ele>610.9</ele>
        <time>2016-07-17T06:35:11.249Z</time>
        <speed>30</speed>
      </trkpt>
      <trkpt lat="47.16495" lon="15.096848">
        <ele>609.8</ele>
        <time>2016-07-17T06:35:14.293Z</time>
        <speed>30</speed>
      </trkpt>
      <trkpt lat="47.164576" lon="15.097222">
        <ele>609.6</ele>
        <time>2016-07-17T06:35:20.332Z</time>
        <speed>30</speed>
      </trkpt>
      <trkpt lat="47.164028" lon="15.097101">
        <ele>607.9</ele>
        <time>2016-07-17T06:35:27.725Z</time>
        <speed>30</speed>
      </trkpt>
      <trkpt lat="47.163806" lon="15.097158">
        <ele>606.7</ele>
        <time>2016-07-17T06:35:30.732Z</time>
        <speed>30</speed>
      </trkpt>
      <trkpt lat="47.163204" lon="15.097652">
        <ele>602</ele>
        <time>2016-07-17T06:35:39.935Z</time>
        <speed>30</speed>
      </trkpt>
      <trkpt lat="47.16298" lon="15.09766">
        <ele>602.2</ele>
        <time>2016-07-17T06:35:42.924Z</time>
        <speed>30</speed>
      </trkpt>
      <trkpt lat="47.162568" lon="15.097458">
        <ele>604.2</ele>
        <time>2016-07-17T06:35:48.719Z</time>
        <speed>30</speed>
      </trkpt>
      <trkpt lat="47.161946" lon="15.097771">
        <ele>605.1</ele>
        <time>2016-07-17T06:35:57.491Z</time>
        <speed>30</speed>
      </trkpt>
      <trkpt lat="47.161632" lon="15.097835">
        <ele>605.2</ele>
        <time>2016-07-17T06:36:01.72Z</time>
        <speed>30</speed>
      </trkpt>
      <trkpt lat="47.16065" lon="15.097695">
        <ele>594.6</ele>
        <time>2016-07-17T06:36:14.882Z</time>
        <speed>30</speed>
      </trkpt>
      <trkpt lat="47.159707" lon="15.097367">
        <ele>590.5</ele>
        <time>2016-07-17T06:36:27.811Z</time>
        <speed>30</speed>
      </trkpt>
      <trkpt lat="47.159122" lon="15.097074">
        <ele>589.4</ele>
        <time>2016-07-17T06:36:36.057Z</time>
        <speed>30</speed>
      </trkpt>
      <trkpt lat="47.158832" lon="15.097033">
        <ele>588.4</ele>
        <time>2016-07-17T06:36:39.944Z</time>
        <speed>30</speed>
      </trkpt>
      <trkpt lat="47.158016" lon="15.097597">
        <ele>602.4</ele>
        <time>2016-07-17T06:36:51.979Z</time>
        <speed>30</speed>
      </trkpt>
      <trkpt lat="47.157797" lon="15.097396">
        <ele>607.9</ele>
        <time>2016-07-17T06:36:55.424Z</time>
        <speed>30</speed>
      </trkpt>
      <trkpt lat="47.15686" lon="15.09541">
        <ele>595.3</ele>
        <time>2016-07-17T06:37:17.398Z</time>
        <speed>30</speed>
      </trkpt>
      <trkpt lat="47.156577" lon="15.094977">
        <ele>587.7</ele>
        <time>2016-07-17T06:37:22.855Z</time>
        <speed>30</speed>
      </trkpt>
      <trkpt lat="47.155524" lon="15.094237">
        <ele>588.6</ele>
        <time>2016-07-17T06:37:38.434Z</time>
        <speed>30</speed>
      </trkpt>
      <trkpt lat="47.154685" lon="15.093933">
        <ele>588.6</ele>
        <time>2016-07-17T06:37:49.963Z</time>
        <speed>30</speed>
      </trkpt>
      <trkpt lat="47.154308" lon="15.093499">
        <ele>578</ele>
        <time>2016-07-17T06:37:56.358Z</time>
        <speed>30</speed>
      </trkpt>
      <trkpt lat="47.154315" lon="15.093264">
        <ele>572.6</ele>
        <time>2016-07-17T06:37:58.495Z</time>
        <speed>30</speed>
      </trkpt>
      <trkpt lat="47.154819" lon="15.092901">
        <ele>570.6</ele>
        <time>2016-07-17T06:38:05.984Z</time>
        <speed>30</speed>
      </trkpt>
      <trkpt lat="47.155282" lon="15.092411">
        <ele>573.5</ele>
        <time>2016-07-17T06:38:13.602Z</time>
        <speed>30</speed>
      </trkpt>
      <trkpt lat="47.155554" lon="15.091552">
        <ele>582.8</ele>
        <time>2016-07-17T06:38:22.22Z</time>
        <speed>30</speed>
      </trkpt>
      <trkpt lat="47.155573" lon="15.090569">
        <ele>587.3</ele>
        <time>2016-07-17T06:38:31.169Z</time>
        <speed>30</speed>
      </trkpt>
      <trkpt lat="47.15531" lon="15.089245">
        <ele>594.6</ele>
        <time>2016-07-17T06:38:43.718Z</time>
        <speed>30</speed>
      </trkpt>
      <trkpt lat="47.155212" lon="15.088259">
        <ele>596</ele>
        <time>2016-07-17T06:38:52.786Z</time>
        <speed>30</speed>
      </trkpt>
      <trkpt lat="47.154937" lon="15.087133">
        <ele>588</ele>
        <time>2016-07-17T06:39:03.67Z</time>
        <speed>30</speed>
      </trkpt>
      <trkpt lat="47.155058" lon="15.086106">
        <ele>592.4</ele>
        <time>2016-07-17T06:39:13.154Z</time>
        <speed>30</speed>
      </trkpt>
      <trkpt lat="47.154819" lon="15.084609">
        <ele>598.1</ele>
        <time>2016-07-17T06:39:27.145Z</time>
        <speed>30</speed>
      </trkpt>
      <trkpt lat="47.155062" lon="15.083681">
        <ele>591.1</ele>
        <time>2016-07-17T06:39:36.191Z</time>
        <speed>30</speed>
      </trkpt>
      <trkpt lat="47.155057" lon="15.083371">
        <ele>590.5</ele>
        <time>2016-07-17T06:39:39.008Z</time>
        <speed>30</speed>
      </trkpt>
      <trkpt lat="47.154817" lon="15.08273">
        <ele>596.5</ele>
        <time>2016-07-17T06:39:45.662Z</time>
        <speed>30</speed>
      </trkpt>
      <trkpt lat="47.153527" lon="15.081111">
        <ele>607.7</ele>
        <time>2016-07-17T06:40:08.317Z</time>
        <speed>30</speed>
      </trkpt>
      <trkpt lat="47.153364" lon="15.080598">
        <ele>606.8</ele>
        <time>2016-07-17T06:40:13.467Z</time>
        <speed>30</speed>
      </trkpt>
      <trkpt lat="47.153354" lon="15.079917">
        <ele>607.3</ele>
        <time>2016-07-17T06:40:19.666Z</time>
        <speed>30</speed>
      </trkpt>
      <trkpt lat="47.153409" lon="15.079449">
        <ele>610.7</ele>
        <time>2016-07-17T06:40:23.988Z</time>
        <speed>30</speed>
      </trkpt>
      <trkpt lat="47.153973" lon="15.077192">
        <ele>624.8</ele>
        <time>2016-07-17T06:40:45.863Z</time>
        <speed>30</speed>
      </trkpt>
      <trkpt lat="47.155113" lon="15.075504">
        <ele>614.6</ele>
        <time>2016-07-17T06:41:07.48Z</time>
        <speed>30</speed>
      </trkpt>
      <trkpt lat="47.156285" lon="15.072354">
        <ele>622.8</ele>
        <time>2016-07-17T06:41:40.132Z</time>
        <speed>30</speed>
      </trkpt>
      <trkpt lat="47.156281" lon="15.07019">
        <ele>636.7</ele>
        <time>2016-07-17T06:41:59.825Z</time>
        <speed>30</speed>
      </trkpt>
      <trkpt lat="47.156568" lon="15.068596">
        <ele>635.2</ele>
        <time>2016-07-17T06:42:14.827Z</time>
        <speed>30</speed>
      </trkpt>
      <trkpt lat="47.156528" lon="15.067183">
        <ele>641.9</ele>
        <time>2016-07-17T06:42:27.696Z</time>
        <speed>30</speed>
      </trkpt>
      <trkpt lat="47.156786" lon="15.064974">
        <ele>649.9</ele>
        <time>2016-07-17T06:42:48.09Z</time>
        <speed>30</speed>
      </trkpt>
      <trkpt lat="47.156761" lon="15.064438">
        <ele>653.4</ele>
        <time>2016-07-17T06:42:52.979Z</time>
        <speed>30</speed>
      </trkpt>
      <trkpt lat="47.156151" lon="15.062306">
        <ele>660.4</ele>
        <time>2016-07-17T06:43:14.018Z</time>
        <speed>30</speed>
      </trkpt>
      <trkpt lat="47.154706" lon="15.060723">
        <ele>668.9</ele>
        <time>2016-07-17T06:43:38.083Z</time>
        <speed>30</speed>
      </trkpt>
      <trkpt lat="47.154208" lon="15.060044">
        <ele>669.9</ele>
        <time>2016-07-17T06:43:47.156Z</time>
        <speed>30</speed>
      </trkpt>
      <trkpt lat="47.154007" lon="15.059566">
        <ele>668.7</ele>
        <time>2016-07-17T06:43:52.266Z</time>
        <speed>30</speed>
      </trkpt>
      <trkpt lat="47.154116" lon="15.059133">
        <ele>660.8</ele>
        <time>2016-07-17T06:43:56.466Z</time>
        <speed>30</speed>
      </trkpt>
      <trkpt lat="47.153899" lon="15.057102">
        <ele>676.5</ele>
        <time>2016-07-17T06:44:15.174Z</time>
        <speed>30</speed>
      </trkpt>
      <trkpt lat="47.153451" lon="15.055723">
        <ele>682.6</ele>
        <time>2016-07-17T06:44:29.074Z</time>
        <speed>30</speed>
      </trkpt>
      <trkpt lat="47.152902" lon="15.054574">
        <ele>694.9</ele>
        <time>2016-07-17T06:44:41.84Z</time>
        <speed>30</speed>
      </trkpt>
      <trkpt lat="47.152783" lon="15.054061">
        <ele>694.6</ele>
        <time>2016-07-17T06:44:46.771Z</time>
        <speed>30</speed>
      </trkpt>
      <trkpt lat="47.152799" lon="15.053742">
        <ele>695</ele>
        <time>2016-07-17T06:44:49.677Z</time>
        <speed>30</speed>
      </trkpt>
      <trkpt lat="47.152948" lon="15.053439">
        <ele>695.8</ele>
        <time>2016-07-17T06:44:53.073Z</time>
        <speed>30</speed>
      </trkpt>
      <trkpt lat="47.153461" lon="15.053205">
        <ele>702.9</ele>
        <time>2016-07-17T06:45:00.24Z</time>
        <speed>30</speed>
      </trkpt>
      <trkpt lat="47.153607" lon="15.052958">
        <ele>708.9</ele>
        <time>2016-07-17T06:45:03.212Z</time>
        <speed>30</speed>
      </trkpt>
      <trkpt lat="47.153533" lon="15.051006">
        <ele>712.1</ele>
        <time>2016-07-17T06:45:21.004Z</time>
        <speed>30</speed>
      </trkpt>
      <trkpt lat="47.15329" lon="15.049815">
        <ele>715.3</ele>
        <time>2016-07-17T06:45:32.317Z</time>
        <speed>30</speed>
      </trkpt>
      <trkpt lat="47.153064" lon="15.049127">
        <ele>722.3</ele>
        <time>2016-07-17T06:45:39.266Z</time>
        <speed>30</speed>
      </trkpt>
      <trkpt lat="47.15284" lon="15.047879">
        <ele>729.5</ele>
        <time>2016-07-17T06:45:51.01Z</time>
        <speed>30</speed>
      </trkpt>
      <trkpt lat="47.152365" lon="15.046203">
        <ele>742.8</ele>
        <time>2016-07-17T06:46:07.527Z</time>
        <speed>30</speed>
      </trkpt>
      <trkpt lat="47.152398" lon="15.045211">
        <ele>752.2</ele>
        <time>2016-07-17T06:46:16.566Z</time>
        <speed>30</speed>
      </trkpt>
      <trkpt lat="47.152278" lon="15.044355">
        <ele>763.5</ele>
        <time>2016-07-17T06:46:24.519Z</time>
        <speed>30</speed>
      </trkpt>
      <trkpt lat="47.151717" lon="15.042086">
        <ele>786.9</ele>
        <time>2016-07-17T06:46:46.483Z</time>
        <speed>30</speed>
      </trkpt>
      <trkpt lat="47.151598" lon="15.042019">
        <ele>788.9</ele>
        <time>2016-07-17T06:46:48.183Z</time>
        <speed>30</speed>
      </trkpt>
      <trkpt lat="47.151506" lon="15.042212">
        <ele>790.8</ele>
        <time>2016-07-17T06:46:50.324Z</time>
        <speed>30</speed>
      </trkpt>
      <trkpt lat="47.151466" lon="15.044401">
        <ele>773.8</ele>
        <time>2016-07-17T06:47:10.253Z</time>
        <speed>30</speed>
      </trkpt>
      <trkpt lat="47.151339" lon="15.044845">
        <ele>773.1</ele>
        <time>2016-07-17T06:47:14.635Z</time>
        <speed>30</speed>
      </trkpt>
      <trkpt lat="47.151229" lon="15.04494">
        <ele>773.6</ele>
        <time>2016-07-17T06:47:16.338Z</time>
        <speed>30</speed>
      </trkpt>
      <trkpt lat="47.151112" lon="15.044748">
        <ele>776.2</ele>
        <time>2016-07-17T06:47:18.679Z</time>
        <speed>30</speed>
      </trkpt>
      <trkpt lat="47.151034" lon="15.044149">
        <ele>782.4</ele>
        <time>2016-07-17T06:47:24.229Z</time>
        <speed>30</speed>
      </trkpt>
      <trkpt lat="47.150902" lon="15.04381">
        <ele>789.3</ele>
        <time>2016-07-17T06:47:27.777Z</time>
        <speed>30</speed>
      </trkpt>
      <trkpt lat="47.150113" lon="15.042767">
        <ele>807.2</ele>
        <time>2016-07-17T06:47:41.951Z</time>
        <speed>30</speed>
      </trkpt>
      <trkpt lat="47.150103" lon="15.04192">
        <ele>826.6</ele>
        <time>2016-07-17T06:47:49.661Z</time>
        <speed>30</speed>
      </trkpt>
      <trkpt lat="47.149987" lon="15.041496">
        <ele>837</ele>
        <time>2016-07-17T06:47:53.819Z</time>
        <speed>30</speed>
      </trkpt>
      <trkpt lat="47.149579" lon="15.041126">
        <ele>841.7</ele>
        <time>2016-07-17T06:48:00.22Z</time>
        <speed>30</speed>
      </trkpt>
      <trkpt lat="47.149015" lon="15.041103">
        <ele>837.6</ele>
        <time>2016-07-17T06:48:07.747Z</time>
        <speed>30</speed>
      </trkpt>
      <trkpt lat="47.148656" lon="15.040312">
        <ele>865.1</ele>
        <time>2016-07-17T06:48:16.394Z</time>
        <speed>30</speed>
      </trkpt>
      <trkpt lat="47.148447" lon="15.040083">
        <ele>872.8</ele>
        <time>2016-07-17T06:48:19.873Z</time>
        <speed>30</speed>
      </trkpt>
      <trkpt lat="47.14818" lon="15.040017">
        <ele>876.6</ele>
        <time>2016-07-17T06:48:23.485Z</time>
        <speed>30</speed>
      </trkpt>
      <trkpt lat="47.147846" lon="15.04007">
        <ele>878.6</ele>
        <time>2016-07-17T06:48:27.967Z</time>
        <speed>30</speed>
      </trkpt>
      <trkpt lat="47.147538" lon="15.040338">
        <ele>872.4</ele>
        <time>2016-07-17T06:48:32.744Z</time>
        <speed>30</speed>
      </trkpt>
      <trkpt lat="47.147304" lon="15.040429">
        <ele>869.5</ele>
        <time>2016-07-17T06:48:35.973Z</time>
        <speed>30</speed>
      </trkpt>
      <trkpt lat="47.14695" lon="15.039882">
        <ele>890.8</ele>
        <time>2016-07-17T06:48:42.835Z</time>
        <speed>30</speed>
      </trkpt>
      <trkpt lat="47.146638" lon="15.039849">
        <ele>893</ele>
        <time>2016-07-17T06:48:47.008Z</time>
        <speed>30</speed>
      </trkpt>
      <trkpt lat="47.14608" lon="15.040122">
        <ele>891.9</ele>
        <time>2016-07-17T06:48:54.855Z</time>
        <speed>30</speed>
      </trkpt>
      <trkpt lat="47.145677" lon="15.040068">
        <ele>901.2</ele>
        <time>2016-07-17T06:49:00.254Z</time>
        <speed>30</speed>
      </trkpt>
      <trkpt lat="47.143932" lon="15.040819">
        <ele>898.8</ele>
        <time>2016-07-17T06:49:24.517Z</time>
        <speed>30</speed>
      </trkpt>
      <trkpt lat="47.14385" lon="15.040726">
        <ele>899.1</ele>
        <time>2016-07-17T06:49:25.899Z</time>
        <speed>30</speed>
      </trkpt>
      <trkpt lat="47.1439" lon="15.040358">
        <ele>902.5</ele>
        <time>2016-07-17T06:49:29.309Z</time>
        <speed>30</speed>
      </trkpt>
      <trkpt lat="47.143839" lon="15.040079">
        <ele>903.2</ele>
        <time>2016-07-17T06:49:31.972Z</time>
        <speed>30</speed>
      </trkpt>
      <trkpt lat="47.143356" lon="15.039452">
        <ele>889.7</ele>
        <time>2016-07-17T06:49:40.58Z</time>
        <speed>30</speed>
      </trkpt>
      <trkpt lat="47.14337" lon="15.039293">
        <ele>890.1</ele>
        <time>2016-07-17T06:49:42.037Z</time>
        <speed>30</speed>
      </trkpt>
      <trkpt lat="47.143755" lon="15.038906">
        <ele>892.1</ele>
        <time>2016-07-17T06:49:48.265Z</time>
        <speed>30</speed>
      </trkpt>
      <trkpt lat="47.144071" lon="15.038295">
        <ele>882</ele>
        <time>2016-07-17T06:49:55.244Z</time>
        <speed>30</speed>
      </trkpt>
      <trkpt lat="47.14457" lon="15.038402">
        <ele>894.1</ele>
        <time>2016-07-17T06:50:01.972Z</time>
        <speed>30</speed>
      </trkpt>
      <trkpt lat="47.144838" lon="15.037439">
        <ele>874.2</ele>
        <time>2016-07-17T06:50:11.438Z</time>
        <speed>30</speed>
      </trkpt>
      <trkpt lat="47.145734" lon="15.036381">
        <ele>857.7</ele>
        <time>2016-07-17T06:50:26.788Z</time>
        <speed>30</speed>
      </trkpt>
      <trkpt lat="47.146042" lon="15.036228">
        <ele>861.1</ele>
        <time>2016-07-17T06:50:31.126Z</time>
        <speed>30</speed>
      </trkpt>
      <trkpt lat="47.146508" lon="15.03534">
        <ele>847.8</ele>
        <time>2016-07-17T06:50:41.323Z</time>
        <speed>30</speed>
      </trkpt>
      <trkpt lat="47.146787" lon="15.035172">
        <ele>847.8</ele>
        <time>2016-07-17T06:50:45.346Z</time>
        <speed>30</speed>
      </trkpt>
      <trkpt lat="47.146944" lon="15.035171">
        <ele>850</ele>
        <time>2016-07-17T06:50:47.441Z</time>
        <speed>30</speed>
      </trkpt>
      <trkpt lat="47.147001" lon="15.035053">
        <ele>847.3</ele>
        <time>2016-07-17T06:50:48.756Z</time>
        <speed>30</speed>
      </trkpt>
      <trkpt lat="47.146382" lon="15.035071">
        <ele>837.6</ele>
        <time>2016-07-17T06:50:57.016Z</time>
        <speed>30</speed>
      </trkpt>
      <trkpt lat="47.145933" lon="15.03545">
        <ele>836.1</ele>
        <time>2016-07-17T06:51:03.928Z</time>
        <speed>30</speed>
      </trkpt>
      <trkpt lat="47.14433" lon="15.035897">
        <ele>816.5</ele>
        <time>2016-07-17T06:51:25.697Z</time>
        <speed>30</speed>
      </trkpt>
      <trkpt lat="47.143548" lon="15.035813">
        <ele>805.3</ele>
        <time>2016-07-17T06:51:36.157Z</time>
        <speed>30</speed>
      </trkpt>
      <trkpt lat="47.142717" lon="15.035453">
        <ele>798.1</ele>
        <time>2016-07-17T06:51:47.716Z</time>
        <speed>30</speed>
      </trkpt>
      <trkpt lat="47.141696" lon="15.035187">
        <ele>778.4</ele>
        <time>2016-07-17T06:52:01.55Z</time>
        <speed>30</speed>
      </trkpt>
      <trkpt lat="47.140778" lon="15.035073">
        <ele>766.7</ele>
        <time>2016-07-17T06:52:13.841Z</time>
        <speed>30</speed>
      </trkpt>
      <trkpt lat="47.140453" lon="15.035144">
        <ele>764.8</ele>
        <time>2016-07-17T06:52:18.225Z</time>
        <speed>30</speed>
      </trkpt>
      <trkpt lat="47.139745" lon="15.03553">
        <ele>764</ele>
        <time>2016-07-17T06:52:28.303Z</time>
        <speed>30</speed>
      </trkpt>
      <trkpt lat="47.139079" lon="15.035461">
        <ele>757.2</ele>
        <time>2016-07-17T06:52:37.21Z</time>
        <speed>30</speed>
      </trkpt>
      <trkpt lat="47.13818" lon="15.035032">
        <ele>745.1</ele>
        <time>2016-07-17T06:52:49.823Z</time>
        <speed>30</speed>
      </trkpt>
      <trkpt lat="47.137164" lon="15.035154">
        <ele>745.3</ele>
        <time>2016-07-17T06:53:03.423Z</time>
        <speed>30</speed>
      </trkpt>
      <trkpt lat="47.137027" lon="15.035109">
        <ele>745.6</ele>
        <time>2016-07-17T06:53:05.296Z</time>
        <speed>30</speed>
      </trkpt>
      <trkpt lat="47.136033" lon="15.034323">
        <ele>738.4</ele>
        <time>2016-07-17T06:53:20.364Z</time>
        <speed>30</speed>
      </trkpt>
      <trkpt lat="47.134904" lon="15.033767">
        <ele>727</ele>
        <time>2016-07-17T06:53:36.254Z</time>
        <speed>30</speed>
      </trkpt>
      <trkpt lat="47.134254" lon="15.03364">
        <ele>722.7</ele>
        <time>2016-07-17T06:53:45.002Z</time>
        <speed>30</speed>
      </trkpt>
      <trkpt lat="47.133081" lon="15.033637">
        <ele>713.2</ele>
        <time>2016-07-17T06:54:00.651Z</time>
        <speed>30</speed>
      </trkpt>
      <trkpt lat="47.132547" lon="15.033735">
        <ele>710.4</ele>
        <time>2016-07-17T06:54:07.83Z</time>
        <speed>30</speed>
      </trkpt>
      <trkpt lat="47.131941" lon="15.03397">
        <ele>703.3</ele>
        <time>2016-07-17T06:54:16.192Z</time>
        <speed>30</speed>
      </trkpt>
      <trkpt lat="47.13152" lon="15.03392">
        <ele>702.7</ele>
        <time>2016-07-17T06:54:21.827Z</time>
        <speed>30</speed>
      </trkpt>
      <trkpt lat="47.131425" lon="15.034076">
        <ele>700.6</ele>
        <time>2016-07-17T06:54:23.729Z</time>
        <speed>30</speed>
      </trkpt>
      <trkpt lat="47.131344" lon="15.034662">
        <ele>699.4</ele>
        <time>2016-07-17T06:54:29.172Z</time>
        <speed>30</speed>
      </trkpt>
      <trkpt lat="47.131157" lon="15.034949">
        <ele>698.5</ele>
        <time>2016-07-17T06:54:32.782Z</time>
        <speed>30</speed>
      </trkpt>
      <trkpt lat="47.130578" lon="15.035466">
        <ele>703</ele>
        <time>2016-07-17T06:54:41.827Z</time>
        <speed>30</speed>
      </trkpt>
      <trkpt lat="47.129849" lon="15.035825">
        <ele>700.7</ele>
        <time>2016-07-17T06:54:52.085Z</time>
        <speed>30</speed>
      </trkpt>
      <trkpt lat="47.12947" lon="15.035907">
        <ele>700.8</ele>
        <time>2016-07-17T06:54:57.196Z</time>
        <speed>30</speed>
      </trkpt>
      <trkpt lat="47.128877" lon="15.035897">
        <ele>693.5</ele>
        <time>2016-07-17T06:55:05.108Z</time>
        <speed>30</speed>
      </trkpt>
      <trkpt lat="47.127642" lon="15.035546">
        <ele>683.2</ele>
        <time>2016-07-17T06:55:21.89Z</time>
        <speed>30</speed>
      </trkpt>
      <trkpt lat="47.127141" lon="15.035479">
        <ele>681.3</ele>
        <time>2016-07-17T06:55:28.601Z</time>
        <speed>30</speed>
      </trkpt>
      <trkpt lat="47.126074" lon="15.036039">
        <ele>680.9</ele>
        <time>2016-07-17T06:55:43.721Z</time>
        <speed>30</speed>
      </trkpt>
      <trkpt lat="47.12511" lon="15.036171">
        <ele>682.2</ele>
        <time>2016-07-17T06:55:56.637Z</time>
        <speed>30</speed>
      </trkpt>
      <trkpt lat="47.124671" lon="15.03635">
        <ele>680.9</ele>
        <time>2016-07-17T06:56:02.715Z</time>
        <speed>30</speed>
      </trkpt>
      <trkpt lat="47.124269" lon="15.036741">
        <ele>674.9</ele>
        <time>2016-07-17T06:56:09.152Z</time>
        <speed>30</speed>
      </trkpt>
      <trkpt lat="47.123677" lon="15.037762">
        <ele>665.3</ele>
        <time>2016-07-17T06:56:21.351Z</time>
        <speed>30</speed>
      </trkpt>
      <trkpt lat="47.123334" lon="15.038024">
        <ele>665.6</ele>
        <time>2016-07-17T06:56:26.51Z</time>
        <speed>30</speed>
      </trkpt>
      <trkpt lat="47.122955" lon="15.03805">
        <ele>668</ele>
        <time>2016-07-17T06:56:31.572Z</time>
        <speed>30</speed>
      </trkpt>
      <trkpt lat="47.121192" lon="15.037811">
        <ele>668.5</ele>
        <time>2016-07-17T06:56:55.192Z</time>
        <speed>30</speed>
      </trkpt>
      <trkpt lat="47.120735" lon="15.037879">
        <ele>669.6</ele>
        <time>2016-07-17T06:57:01.32Z</time>
        <speed>30</speed>
      </trkpt>
      <trkpt lat="47.120369" lon="15.038289">
        <ele>667.8</ele>
        <time>2016-07-17T06:57:07.467Z</time>
        <speed>30</speed>
      </trkpt>
      <trkpt lat="47.11977" lon="15.0395">
        <ele>659.5</ele>
        <time>2016-07-17T06:57:21.086Z</time>
        <speed>30</speed>
      </trkpt>
      <trkpt lat="47.119264" lon="15.040206">
        <ele>652.4</ele>
        <time>2016-07-17T06:57:30.408Z</time>
        <speed>30</speed>
      </trkpt>
      <trkpt lat="47.118634" lon="15.041356">
        <ele>659.3</ele>
        <time>2016-07-17T06:57:43.836Z</time>
        <speed>30</speed>
      </trkpt>
      <trkpt lat="47.118257" lon="15.041581">
        <ele>654.2</ele>
        <time>2016-07-17T06:57:49.266Z</time>
        <speed>30</speed>
      </trkpt>
      <trkpt lat="47.116752" lon="15.041939">
        <ele>646.3</ele>
        <time>2016-07-17T06:58:09.606Z</time>
        <speed>30</speed>
      </trkpt>
      <trkpt lat="47.116192" lon="15.042306">
        <ele>645.1</ele>
        <time>2016-07-17T06:58:17.788Z</time>
        <speed>30</speed>
      </trkpt>
      <trkpt lat="47.115751" lon="15.043009">
        <ele>643</ele>
        <time>2016-07-17T06:58:26.483Z</time>
        <speed>30</speed>
      </trkpt>
      <trkpt lat="47.115057" lon="15.044796">
        <ele>637.5</ele>
        <time>2016-07-17T06:58:45.207Z</time>
        <speed>30</speed>
      </trkpt>
      <trkpt lat="47.114622" lon="15.04532">
        <ele>635.3</ele>
        <time>2016-07-17T06:58:52.72Z</time>
        <speed>30</speed>
      </trkpt>
      <trkpt lat="47.114224" lon="15.04616">
        <ele>625.9</ele>
        <time>2016-07-17T06:59:02.032Z</time>
        <speed>30</speed>
      </trkpt>
      <trkpt lat="47.113848" lon="15.046734">
        <ele>626.2</ele>
        <time>2016-07-17T06:59:09.277Z</time>
        <speed>30</speed>
      </trkpt>
      <trkpt lat="47.113486" lon="15.046988">
        <ele>629.2</ele>
        <time>2016-07-17T06:59:14.63Z</time>
        <speed>30</speed>
      </trkpt>
      <trkpt lat="47.112686" lon="15.047073">
        <ele>624.3</ele>
        <time>2016-07-17T06:59:25.331Z</time>
        <speed>30</speed>
      </trkpt>
      <trkpt lat="47.112453" lon="15.047235">
        <ele>622.6</ele>
        <time>2016-07-17T06:59:28.771Z</time>
        <speed>30</speed>
      </trkpt>
      <trkpt lat="47.11195" lon="15.047811">
        <ele>624.3</ele>
        <time>2016-07-17T06:59:37.289Z</time>
        <speed>30</speed>
      </trkpt>
      <trkpt lat="47.1111" lon="15.048234">
        <ele>614.6</ele>
        <time>2016-07-17T06:59:49.265Z</time>
        <speed>30</speed>
      </trkpt>
      <trkpt lat="47.110599" lon="15.048833">
        <ele>621.4</ele>
        <time>2016-07-17T06:59:57.893Z</time>
        <speed>30</speed>
      </trkpt>
      <trkpt lat="47.109781" lon="15.050284">
        <ele>608.8</ele>
        <time>2016-07-17T07:00:15.032Z</time>
        <speed>30</speed>
      </trkpt>
      <trkpt lat="47.109153" lon="15.05104">
        <ele>595</ele>
        <time>2016-07-17T07:00:25.877Z</time>
        <speed>30</speed>
      </trkpt>
      <trkpt lat="47.108798" lon="15.051246">
        <ele>600.1</ele>
        <time>2016-07-17T07:00:30.97Z</time>
        <speed>30</speed>
      </trkpt>
      <trkpt lat="47.108306" lon="15.051399">
        <ele>603.8</ele>
        <time>2016-07-17T07:00:37.68Z</time>
        <speed>30</speed>
      </trkpt>
      <trkpt lat="47.107045" lon="15.051471">
        <ele>596</ele>
        <time>2016-07-17T07:00:54.515Z</time>
        <speed>30</speed>
      </trkpt>
      <trkpt lat="47.105995" lon="15.051796">
        <ele>592.6</ele>
        <time>2016-07-17T07:01:08.831Z</time>
        <speed>30</speed>
      </trkpt>
      <trkpt lat="47.105005" lon="15.051741">
        <ele>586.5</ele>
        <time>2016-07-17T07:01:22.048Z</time>
        <speed>30</speed>
      </trkpt>
      <trkpt lat="47.104081" lon="15.051423">
        <ele>566.9</ele>
        <time>2016-07-17T07:01:34.71Z</time>
        <speed>30</speed>
      </trkpt>
      <trkpt lat="47.103568" lon="15.051415">
        <ele>566.6</ele>
        <time>2016-07-17T07:01:41.554Z</time>
        <speed>30</speed>
      </trkpt>
      <trkpt lat="47.101831" lon="15.051846">
        <ele>572.4</ele>
        <time>2016-07-17T07:02:05.057Z</time>
        <speed>30</speed>
      </trkpt>
      <trkpt lat="47.100858" lon="15.052335">
        <ele>558.2</ele>
        <time>2016-07-17T07:02:18.781Z</time>
        <speed>30</speed>
      </trkpt>
      <trkpt lat="47.100247" lon="15.052354">
        <ele>559.8</ele>
        <time>2016-07-17T07:02:26.934Z</time>
        <speed>30</speed>
      </trkpt>
      <trkpt lat="47.099828" lon="15.052501">
        <ele>559.2</ele>
        <time>2016-07-17T07:02:32.681Z</time>
        <speed>30</speed>
      </trkpt>
      <trkpt lat="47.099253" lon="15.052992">
        <ele>559.5</ele>
        <time>2016-07-17T07:02:41.561Z</time>
        <speed>30</speed>
      </trkpt>
      <trkpt lat="47.098527" lon="15.053878">
        <ele>561</ele>
        <time>2016-07-17T07:02:54.169Z</time>
        <speed>30</speed>
      </trkpt>
      <trkpt lat="47.097948" lon="15.055019">
        <ele>550.4</ele>
        <time>2016-07-17T07:03:07.119Z</time>
        <speed>30</speed>
      </trkpt>
      <trkpt lat="47.09761" lon="15.055505">
        <ele>547.4</ele>
        <time>2016-07-17T07:03:13.438Z</time>
        <speed>30</speed>
      </trkpt>
      <trkpt lat="47.096573" lon="15.05607">
        <ele>533.5</ele>
        <time>2016-07-17T07:03:28.199Z</time>
        <speed>30</speed>
      </trkpt>
      <trkpt lat="47.095968" lon="15.056588">
        <ele>524</ele>
        <time>2016-07-17T07:03:37.549Z</time>
        <speed>30</speed>
      </trkpt>
      <trkpt lat="47.095896" lon="15.05689">
        <ele>522.5</ele>
        <time>2016-07-17T07:03:40.459Z</time>
        <speed>30</speed>
      </trkpt>
      <trkpt lat="47.095919" lon="15.057671">
        <ele>524.4</ele>
        <time>2016-07-17T07:03:47.581Z</time>
        <speed>30</speed>
      </trkpt>
      <trkpt lat="47.095771" lon="15.057998">
        <ele>523.5</ele>
        <time>2016-07-17T07:03:51.151Z</time>
        <speed>30</speed>
      </trkpt>
      <trkpt lat="47.09467" lon="15.057176">
        <ele>528.9</ele>
        <time>2016-07-17T07:04:07.638Z</time>
        <speed>30</speed>
      </trkpt>
      <trkpt lat="47.094536" lon="15.05693">
        <ele>532.5</ele>
        <time>2016-07-17T07:04:10.502Z</time>
        <speed>30</speed>
      </trkpt>
      <trkpt lat="47.094676" lon="15.055412">
        <ele>536.1</ele>
        <time>2016-07-17T07:04:24.457Z</time>
        <speed>30</speed>
      </trkpt>
      <trkpt lat="47.094817" lon="15.054579">
        <ele>539.5</ele>
        <time>2016-07-17T07:04:32.276Z</time>
        <speed>30</speed>
      </trkpt>
      <trkpt lat="47.095027" lon="15.05392">
        <ele>536.4</ele>
        <time>2016-07-17T07:04:38.901Z</time>
        <speed>30</speed>
      </trkpt>
      <trkpt lat="47.095042" lon="15.053442">
        <ele>535.3</ele>
        <time>2016-07-17T07:04:43.26Z</time>
        <speed>30</speed>
      </trkpt>
      <trkpt lat="47.094699" lon="15.052358">
        <ele>535.4</ele>
        <time>2016-07-17T07:04:54.144Z</time>
        <speed>30</speed>
      </trkpt>
      <trkpt lat="47.093875" lon="15.051071">
        <ele>544.8</ele>
        <time>2016-07-17T07:05:10.216Z</time>
        <speed>30</speed>
      </trkpt>
      <trkpt lat="47.093725" lon="15.050611">
        <ele>545.9</ele>
        <time>2016-07-17T07:05:14.86Z</time>
        <speed>30</speed>
      </trkpt>
      <trkpt lat="47.093858" lon="15.050117">
        <ele>546.3</ele>
        <time>2016-07-17T07:05:19.698Z</time>
        <speed>30</speed>
      </trkpt>
      <trkpt lat="47.094456" lon="15.049391">
        <ele>557.8</ele>
        <time>2016-07-17T07:05:30.061Z</time>
        <speed>30</speed>
      </trkpt>
      <trkpt lat="47.094515" lon="15.048846">
        <ele>565.8</ele>
        <time>2016-07-17T07:05:35.088Z</time>
        <speed>30</speed>
      </trkpt>
      <trkpt lat="47.094309" lon="15.048398">
        <ele>562.6</ele>
        <time>2016-07-17T07:05:40.009Z</time>
        <speed>30</speed>
      </trkpt>
      <trkpt lat="47.094095" lon="15.048251">
        <ele>558.7</ele>
        <time>2016-07-17T07:05:43.162Z</time>
        <speed>30</speed>
      </trkpt>
      <trkpt lat="47.093504" lon="15.048052">
        <ele>555.2</ele>
        <time>2016-07-17T07:05:51.252Z</time>
        <speed>30</speed>
      </trkpt>
      <trkpt lat="47.093281" lon="15.047713">
        <ele>558.1</ele>
        <time>2016-07-17T07:05:55.537Z</time>
        <speed>30</speed>
      </trkpt>
      <trkpt lat="47.093255" lon="15.047316">
        <ele>563.3</ele>
        <time>2016-07-17T07:05:59.171Z</time>
        <speed>30</speed>
      </trkpt>
      <trkpt lat="47.093497" lon="15.046529">
        <ele>573.2</ele>
        <time>2016-07-17T07:06:07.034Z</time>
        <speed>30</speed>
      </trkpt>
      <trkpt lat="47.093464" lon="15.045949">
        <ele>571</ele>
        <time>2016-07-17T07:06:12.337Z</time>
        <speed>30</speed>
      </trkpt>
      <trkpt lat="47.092297" lon="15.043747">
        <ele>588.9</ele>
        <time>2016-07-17T07:06:37.731Z</time>
        <speed>30</speed>
      </trkpt>
      <trkpt lat="47.092029" lon="15.042065">
        <ele>596.6</ele>
        <time>2016-07-17T07:06:53.467Z</time>
        <speed>30</speed>
      </trkpt>
      <trkpt lat="47.091679" lon="15.041076">
        <ele>584.2</ele>
        <time>2016-07-17T07:07:03.616Z</time>
        <speed>30</speed>
      </trkpt>
      <trkpt lat="47.091565" lon="15.0397">
        <ele>595.8</ele>
        <time>2016-07-17T07:07:16.245Z</time>
        <speed>30</speed>
      </trkpt>
      <trkpt lat="47.091242" lon="15.038934">
        <ele>613.1</ele>
        <time>2016-07-17T07:07:24.447Z</time>
        <speed>30</speed>
      </trkpt>
      <trkpt lat="47.091155" lon="15.038536">
        <ele>617</ele>
        <time>2016-07-17T07:07:28.254Z</time>
        <speed>30</speed>
      </trkpt>
      <trkpt lat="47.091245" lon="15.038003">
        <ele>615.3</ele>
        <time>2016-07-17T07:07:33.256Z</time>
        <speed>30</speed>
      </trkpt>
      <trkpt lat="47.091787" lon="15.037367">
        <ele>597.2</ele>
        <time>2016-07-17T07:07:42.522Z</time>
        <speed>30</speed>
      </trkpt>
      <trkpt lat="47.091931" lon="15.036997">
        <ele>603.5</ele>
        <time>2016-07-17T07:07:46.402Z</time>
        <speed>30</speed>
      </trkpt>
      <trkpt lat="47.091922" lon="15.036642">
        <ele>607.7</ele>
        <time>2016-07-17T07:07:49.634Z</time>
        <speed>30</speed>
      </trkpt>
      <trkpt lat="47.091686" lon="15.0358">
        <ele>612.4</ele>
        <time>2016-07-17T07:07:57.926Z</time>
        <speed>30</speed>
      </trkpt>
      <trkpt lat="47.091757" lon="15.035189">
        <ele>610.1</ele>
        <time>2016-07-17T07:08:03.573Z</time>
        <speed>30</speed>
      </trkpt>
      <trkpt lat="47.091913" lon="15.034968">
        <ele>609</ele>
        <time>2016-07-17T07:08:06.467Z</time>
        <speed>30</speed>
      </trkpt>
      <trkpt lat="47.092407" lon="15.034664">
        <ele>605.5</ele>
        <time>2016-07-17T07:08:13.614Z</time>
        <speed>30</speed>
      </trkpt>
      <trkpt lat="47.092677" lon="15.034145">
        <ele>610.1</ele>
        <time>2016-07-17T07:08:19.558Z</time>
        <speed>30</speed>
      </trkpt>
      <trkpt lat="47.092634" lon="15.033481">
        <ele>610.2</ele>
        <time>2016-07-17T07:08:25.635Z</time>
        <speed>30</speed>
      </trkpt>
      <trkpt lat="47.092103" lon="15.032463">
        <ele>617.5</ele>
        <time>2016-07-17T07:08:37.306Z</time>
        <speed>30</speed>
      </trkpt>
      <trkpt lat="47.092125" lon="15.031899">
        <ele>617</ele>
        <time>2016-07-17T07:08:42.453Z</time>
        <speed>30</speed>
      </trkpt>
      <trkpt lat="47.092288" lon="15.031665">
        <ele>612.9</ele>
        <time>2016-07-17T07:08:45.496Z</time>
        <speed>30</speed>
      </trkpt>
      <trkpt lat="47.092491" lon="15.031564">
        <ele>609.2</ele>
        <time>2016-07-17T07:08:48.356Z</time>
        <speed>30</speed>
      </trkpt>
      <trkpt lat="47.092981" lon="15.031696">
        <ele>617.2</ele>
        <time>2016-07-17T07:08:55.002Z</time>
        <speed>30</speed>
      </trkpt>
      <trkpt lat="47.093225" lon="15.031629">
        <ele>621.3</ele>
        <time>2016-07-17T07:08:58.314Z</time>
        <speed>30</speed>
      </trkpt>
      <trkpt lat="47.093649" lon="15.030794">
        <ele>626.1</ele>
        <time>2016-07-17T07:09:07.794Z</time>
        <speed>30</speed>
      </trkpt>
      <trkpt lat="47.094397" lon="15.030155">
        <ele>639.9</ele>
        <time>2016-07-17T07:09:19.347Z</time>
        <speed>30</speed>
      </trkpt>
      <trkpt lat="47.094509" lon="15.029799">
        <ele>643.5</ele>
        <time>2016-07-17T07:09:22.913Z</time>
        <speed>30</speed>
      </trkpt>
      <trkpt lat="47.094411" lon="15.028785">
        <ele>647.3</ele>
        <time>2016-07-17T07:09:32.243Z</time>
        <speed>30</speed>
      </trkpt>
      <trkpt lat="47.094511" lon="15.028228">
        <ele>655.5</ele>
        <time>2016-07-17T07:09:37.49Z</time>
        <speed>30</speed>
      </trkpt>
      <trkpt lat="47.09493" lon="15.027552">
        <ele>659.8</ele>
        <time>2016-07-17T07:09:45.807Z</time>
        <speed>30</speed>
      </trkpt>
      <trkpt lat="47.095303" lon="15.02651">
        <ele>669.4</ele>
        <time>2016-07-17T07:09:56.525Z</time>
        <speed>30</speed>
      </trkpt>
      <trkpt lat="47.095664" lon="15.026069">
        <ele>663.5</ele>
        <time>2016-07-17T07:10:02.797Z</time>
        <speed>30</speed>
      </trkpt>
      <trkpt lat="47.096351" lon="15.025441">
        <ele>657.3</ele>
        <time>2016-07-17T07:10:13.601Z</time>
        <speed>30</speed>
      </trkpt>
      <trkpt lat="47.096707" lon="15.024782">
        <ele>650.2</ele>
        <time>2016-07-17T07:10:21.256Z</time>
        <speed>30</speed>
      </trkpt>
      <trkpt lat="47.097009" lon="15.022225">
        <ele>660.1</ele>
        <time>2016-07-17T07:10:44.897Z</time>
        <speed>30</speed>
      </trkpt>
      <trkpt lat="47.097257" lon="15.02121">
        <ele>663.3</ele>
        <time>2016-07-17T07:10:54.718Z</time>
        <speed>30</speed>
      </trkpt>
      <trkpt lat="47.0975" lon="15.020746">
        <ele>658.7</ele>
        <time>2016-07-17T07:11:00.045Z</time>
        <speed>30</speed>
      </trkpt>
      <trkpt lat="47.097793" lon="15.020409">
        <ele>669.2</ele>
        <time>2016-07-17T07:11:05.012Z</time>
        <speed>30</speed>
      </trkpt>
      <trkpt lat="47.098366" lon="15.019931">
        <ele>665</ele>
        <time>2016-07-17T07:11:13.81Z</time>
        <speed>30</speed>
      </trkpt>
      <trkpt lat="47.099016" lon="15.019587">
        <ele>684.6</ele>
        <time>2016-07-17T07:11:23.029Z</time>
        <speed>30</speed>
      </trkpt>
      <trkpt lat="47.099145" lon="15.019378">
        <ele>683.1</ele>
        <time>2016-07-17T07:11:25.593Z</time>
        <speed>30</speed>
      </trkpt>
      <trkpt lat="47.099156" lon="15.019094">
        <ele>679.8</ele>
        <time>2016-07-17T07:11:28.18Z</time>
        <speed>30</speed>
      </trkpt>
      <trkpt lat="47.098844" lon="15.01833">
        <ele>694.8</ele>
        <time>2016-07-17T07:11:36.29Z</time>
        <speed>30</speed>
      </trkpt>
      <trkpt lat="47.098859" lon="15.018085">
        <ele>695</ele>
        <time>2016-07-17T07:11:38.527Z</time>
        <speed>30</speed>
      </trkpt>
      <trkpt lat="47.098999" lon="15.017823">
        <ele>688.9</ele>
        <time>2016-07-17T07:11:41.555Z</time>
        <speed>30</speed>
      </trkpt>
      <trkpt lat="47.099273" lon="15.017581">
        <ele>680.8</ele>
        <time>2016-07-17T07:11:45.822Z</time>
        <speed>30</speed>
      </trkpt>
      <trkpt lat="47.100115" lon="15.017369">
        <ele>688.6</ele>
        <time>2016-07-17T07:11:57.219Z</time>
        <speed>30</speed>
      </trkpt>
      <trkpt lat="47.100452" lon="15.017137">
        <ele>700</ele>
        <time>2016-07-17T07:12:02.185Z</time>
        <speed>30</speed>
      </trkpt>
      <trkpt lat="47.100819" lon="15.016634">
        <ele>694.2</ele>
        <time>2016-07-17T07:12:08.891Z</time>
        <speed>30</speed>
      </trkpt>
      <trkpt lat="47.101386" lon="15.015249">
        <ele>711.2</ele>
        <time>2016-07-17T07:12:23.601Z</time>
        <speed>30</speed>
      </trkpt>
      <trkpt lat="47.101667" lon="15.014755">
        <ele>705</ele>
        <time>2016-07-17T07:12:29.458Z</time>
        <speed>30</speed>
      </trkpt>
      <trkpt lat="47.102544" lon="15.014137">
        <ele>706.3</ele>
        <time>2016-07-17T07:12:42.442Z</time>
        <speed>30</speed>
      </trkpt>
      <trkpt lat="47.104066" lon="15.012607">
        <ele>711.5</ele>
        <time>2016-07-17T07:13:07.07Z</time>
        <speed>30</speed>
      </trkpt>
      <trkpt lat="47.104488" lon="15.012291">
        <ele>717</ele>
        <time>2016-07-17T07:13:13.391Z</time>
        <speed>30</speed>
      </trkpt>
      <trkpt lat="47.104891" lon="15.012232">
        <ele>722.1</ele>
        <time>2016-07-17T07:13:18.794Z</time>
        <speed>30</speed>
      </trkpt>
      <trkpt lat="47.105358" lon="15.012422">
        <ele>726.2</ele>
        <time>2016-07-17T07:13:25.259Z</time>
        <speed>30</speed>
      </trkpt>
      <trkpt lat="47.105695" lon="15.012435">
        <ele>729.4</ele>
        <time>2016-07-17T07:13:29.756Z</time>
        <speed>30</speed>
      </trkpt>
      <trkpt lat="47.10686" lon="15.01209">
        <ele>735.8</ele>
        <time>2016-07-17T07:13:45.612Z</time>
        <speed>30</speed>
      </trkpt>
      <trkpt lat="47.10772" lon="15.01271">
        <ele>746.2</ele>
        <time>2016-07-17T07:13:58.4Z</time>
        <speed>30</speed>
      </trkpt>
      <trkpt lat="47.108146" lon="15.012879">
        <ele>742.7</ele>
        <time>2016-07-17T07:14:04.287Z</time>
        <speed>30</speed>
      </trkpt>
      <trkpt lat="47.108546" lon="15.01287">
        <ele>742.5</ele>
        <time>2016-07-17T07:14:09.624Z</time>
        <speed>30</speed>
      </trkpt>
      <trkpt lat="47.108847" lon="15.012625">
        <ele>740</ele>
        <time>2016-07-17T07:14:14.216Z</time>
        <speed>30</speed>
      </trkpt>
      <trkpt lat="47.109546" lon="15.011584">
        <ele>737.8</ele>
        <time>2016-07-17T07:14:27.515Z</time>
        <speed>30</speed>
      </trkpt>
      <trkpt lat="47.110225" lon="15.011348">
        <ele>748.7</ele>
        <time>2016-07-17T07:14:36.824Z</time>
        <speed>30</speed>
      </trkpt>
      <trkpt lat="47.110453" lon="15.011177">
        <ele>752.4</ele>
        <time>2016-07-17T07:14:40.24Z</time>
        <speed>30</speed>
      </trkpt>
      <trkpt lat="47.110868" lon="15.0098">
        <ele>742.3</ele>
        <time>2016-07-17T07:14:53.949Z</time>
        <speed>30</speed>
      </trkpt>
      <trkpt lat="47.111063" lon="15.009534">
        <ele>746.2</ele>
        <time>2016-07-17T07:14:57.501Z</time>
        <speed>30</speed>
      </trkpt>
      <trkpt lat="47.111252" lon="15.009429">
        <ele>744.9</ele>
        <time>2016-07-17T07:15:00.197Z</time>
        <speed>30</speed>
      </trkpt>
      <trkpt lat="47.111508" lon="15.009435">
        <ele>741.1</ele>
        <time>2016-07-17T07:15:03.613Z</time>
        <speed>30</speed>
      </trkpt>
      <trkpt lat="47.112187" lon="15.009978">
        <ele>745.7</ele>
        <time>2016-07-17T07:15:13.933Z</time>
        <speed>30</speed>
      </trkpt>
      <trkpt lat="47.112434" lon="15.010062">
        <ele>750.2</ele>
        <time>2016-07-17T07:15:17.316Z</time>
        <speed>30</speed>
      </trkpt>
      <trkpt lat="47.112706" lon="15.009915">
        <ele>749.3</ele>
        <time>2016-07-17T07:15:21.183Z</time>
        <speed>30</speed>
      </trkpt>
      <trkpt lat="47.112924" lon="15.009494">
        <ele>750.9</ele>
        <time>2016-07-17T07:15:25.995Z</time>
        <speed>30</speed>
      </trkpt>
      <trkpt lat="47.113044" lon="15.006222">
        <ele>771.5</ele>
        <time>2016-07-17T07:15:55.838Z</time>
        <speed>30</speed>
      </trkpt>
      <trkpt lat="47.112934" lon="15.004888">
        <ele>777.5</ele>
        <time>2016-07-17T07:16:08.076Z</time>
        <speed>30</speed>
      </trkpt>
      <trkpt lat="47.112547" lon="15.003299">
        <ele>789.3</ele>
        <time>2016-07-17T07:16:23.441Z</time>
        <speed>30</speed>
      </trkpt>
      <trkpt lat="47.11252" lon="15.002671">
        <ele>789.3</ele>
        <time>2016-07-17T07:16:29.172Z</time>
        <speed>30</speed>
      </trkpt>
      <trkpt lat="47.11276" lon="15.00112">
        <ele>808</ele>
        <time>2016-07-17T07:16:43.656Z</time>
        <speed>30</speed>
      </trkpt>
      <trkpt lat="47.112491" lon="14.999195">
        <ele>804.5</ele>
        <time>2016-07-17T07:17:01.551Z</time>
        <speed>30</speed>
      </trkpt>
      <trkpt lat="47.112868" lon="14.997738">
        <ele>817.9</ele>
        <time>2016-07-17T07:17:15.742Z</time>
        <speed>30</speed>
      </trkpt>
      <trkpt lat="47.112877" lon="14.995924">
        <ele>823</ele>
        <time>2016-07-17T07:17:32.263Z</time>
        <speed>30</speed>
      </trkpt>
      <trkpt lat="47.11351" lon="14.994702">
        <ele>823.1</ele>
        <time>2016-07-17T07:17:46.233Z</time>
        <speed>30</speed>
      </trkpt>
      <trkpt lat="47.113623" lon="14.99415">
        <ele>823</ele>
        <time>2016-07-17T07:17:51.481Z</time>
        <speed>30</speed>
      </trkpt>
      <trkpt lat="47.113658" lon="14.991344">
        <ele>822.8</ele>
        <time>2016-07-17T07:18:17.04Z</time>
        <speed>30</speed>
      </trkpt>
      <trkpt lat="47.113339" lon="14.990633">
        <ele>817.2</ele>
        <time>2016-07-17T07:18:24.789Z</time>
        <speed>30</speed>
      </trkpt>
      <trkpt lat="47.113137" lon="14.990439">
        <ele>819.4</ele>
        <time>2016-07-17T07:18:28.01Z</time>
        <speed>30</speed>
      </trkpt>
      <trkpt lat="47.11243" lon="14.990033">
        <ele>812.7</ele>
        <time>2016-07-17T07:18:38.141Z</time>
        <speed>30</speed>
      </trkpt>
      <trkpt lat="47.112272" lon="14.989845">
        <ele>822</ele>
        <time>2016-07-17T07:18:40.855Z</time>
        <speed>30</speed>
      </trkpt>
      <trkpt lat="47.112052" lon="14.989407">
        <ele>829.6</ele>
        <time>2016-07-17T07:18:45.807Z</time>
        <speed>30</speed>
      </trkpt>
      <trkpt lat="47.111384" lon="14.98731">
        <ele>834.2</ele>
        <time>2016-07-17T07:19:06.883Z</time>
        <speed>30</speed>
      </trkpt>
      <trkpt lat="47.111185" lon="14.987032">
        <ele>838.1</ele>
        <time>2016-07-17T07:19:10.549Z</time>
        <speed>30</speed>
      </trkpt>
      <trkpt lat="47.110712" lon="14.986725">
        <ele>833.8</ele>
        <time>2016-07-17T07:19:17.449Z</time>
        <speed>30</speed>
      </trkpt>
      <trkpt lat="47.110421" lon="14.986236">
        <ele>838.1</ele>
        <time>2016-07-17T07:19:23.357Z</time>
        <speed>30</speed>
      </trkpt>
      <trkpt lat="47.110355" lon="14.985897">
        <ele>836.9</ele>
        <time>2016-07-17T07:19:26.563Z</time>
        <speed>30</speed>
      </trkpt>
      <trkpt lat="47.110388" lon="14.985509">
        <ele>837.2</ele>
        <time>2016-07-17T07:19:30.124Z</time>
        <speed>30</speed>
      </trkpt>
      <trkpt lat="47.111081" lon="14.984465">
        <ele>847.9</ele>
        <time>2016-07-17T07:19:43.386Z</time>
        <speed>30</speed>
      </trkpt>
      <trkpt lat="47.11127" lon="14.983513">
        <ele>854.2</ele>
        <time>2016-07-17T07:19:52.416Z</time>
        <speed>30</speed>
      </trkpt>
      <trkpt lat="47.110844" lon="14.982409">
        <ele>850.1</ele>
        <time>2016-07-17T07:20:03.966Z</time>
        <speed>30</speed>
      </trkpt>
      <trkpt lat="47.110623" lon="14.981392">
        <ele>868.9</ele>
        <time>2016-07-17T07:20:13.687Z</time>
        <speed>30</speed>
      </trkpt>
      <trkpt lat="47.110313" lon="14.980726">
        <ele>873.7</ele>
        <time>2016-07-17T07:20:21.029Z</time>
        <speed>30</speed>
      </trkpt>
      <trkpt lat="47.110194" lon="14.978963">
        <ele>879.4</ele>
        <time>2016-07-17T07:20:37.165Z</time>
        <speed>30</speed>
      </trkpt>
      <trkpt lat="47.110056" lon="14.978219">
        <ele>876.8</ele>
        <time>2016-07-17T07:20:44.187Z</time>
        <speed>30</speed>
      </trkpt>
      <trkpt lat="47.10903" lon="14.976234">
        <ele>866.9</ele>
        <time>2016-07-17T07:21:06.863Z</time>
        <speed>30</speed>
      </trkpt>
      <trkpt lat="47.108666" lon="14.973857">
        <ele>873.9</ele>
        <time>2016-07-17T07:21:29.051Z</time>
        <speed>30</speed>
      </trkpt>
      <trkpt lat="47.108397" lon="14.972767">
        <ele>870</ele>
        <time>2016-07-17T07:21:39.608Z</time>
        <speed>30</speed>
      </trkpt>
      <trkpt lat="47.106715" lon="14.970133">
        <ele>890.7</ele>
        <time>2016-07-17T07:22:12.458Z</time>
        <speed>30</speed>
      </trkpt>
      <trkpt lat="47.10646" lon="14.969598">
        <ele>900.4</ele>
        <time>2016-07-17T07:22:18.401Z</time>
        <speed>30</speed>
      </trkpt>
      <trkpt lat="47.106226" lon="14.968767">
        <ele>908.4</ele>
        <time>2016-07-17T07:22:26.589Z</time>
        <speed>30</speed>
      </trkpt>
      <trkpt lat="47.105633" lon="14.967436">
        <ele>905.9</ele>
        <time>2016-07-17T07:22:41.065Z</time>
        <speed>30</speed>
      </trkpt>
      <trkpt lat="47.105041" lon="14.966522">
        <ele>904.9</ele>
        <time>2016-07-17T07:22:52.54Z</time>
        <speed>30</speed>
      </trkpt>
      <trkpt lat="47.104696" lon="14.965493">
        <ele>912.7</ele>
        <time>2016-07-17T07:23:02.982Z</time>
        <speed>30</speed>
      </trkpt>
      <trkpt lat="47.104447" lon="14.964343">
        <ele>927.6</ele>
        <time>2016-07-17T07:23:13.971Z</time>
        <speed>30</speed>
      </trkpt>
      <trkpt lat="47.104188" lon="14.962403">
        <ele>941.8</ele>
        <time>2016-07-17T07:23:31.977Z</time>
        <speed>30</speed>
      </trkpt>
      <trkpt lat="47.104233" lon="14.960147">
        <ele>955.6</ele>
        <time>2016-07-17T07:23:52.536Z</time>
        <speed>30</speed>
      </trkpt>
      <trkpt lat="47.104567" lon="14.958529">
        <ele>965.8</ele>
        <time>2016-07-17T07:24:07.933Z</time>
        <speed>30</speed>
      </trkpt>
      <trkpt lat="47.104553" lon="14.957407">
        <ele>967.5</ele>
        <time>2016-07-17T07:24:18.155Z</time>
        <speed>30</speed>
      </trkpt>
      <trkpt lat="47.104222" lon="14.955825">
        <ele>969</ele>
        <time>2016-07-17T07:24:33.227Z</time>
        <speed>30</speed>
      </trkpt>
      <trkpt lat="47.103553" lon="14.953463">
        <ele>991</ele>
        <time>2016-07-17T07:24:56.52Z</time>
        <speed>30</speed>
      </trkpt>
      <trkpt lat="47.103355" lon="14.952122">
        <ele>992.5</ele>
        <time>2016-07-17T07:25:09.018Z</time>
        <speed>30</speed>
      </trkpt>
      <trkpt lat="47.10349" lon="14.951151">
        <ele>1001</ele>
        <time>2016-07-17T07:25:18.044Z</time>
        <speed>30</speed>
      </trkpt>
      <trkpt lat="47.104143" lon="14.949189">
        <ele>1006.2</ele>
        <time>2016-07-17T07:25:37.926Z</time>
        <speed>30</speed>
      </trkpt>
      <trkpt lat="47.104265" lon="14.948984">
        <ele>1012.3</ele>
        <time>2016-07-17T07:25:40.401Z</time>
        <speed>30</speed>
      </trkpt>
      <trkpt lat="47.104471" lon="14.948915">
        <ele>1018.2</ele>
        <time>2016-07-17T07:25:43.22Z</time>
        <speed>30</speed>
      </trkpt>
      <trkpt lat="47.104606" lon="14.949053">
        <ele>1020.1</ele>
        <time>2016-07-17T07:25:45.415Z</time>
        <speed>30</speed>
      </trkpt>
      <trkpt lat="47.104671" lon="14.949458">
        <ele>1024.1</ele>
        <time>2016-07-17T07:25:49.205Z</time>
        <speed>30</speed>
      </trkpt>
      <trkpt lat="47.104296" lon="14.950872">
        <ele>1010.3</ele>
        <time>2016-07-17T07:26:03.022Z</time>
        <speed>30</speed>
      </trkpt>
      <trkpt lat="47.104322" lon="14.951882">
        <ele>1016.2</ele>
        <time>2016-07-17T07:26:12.229Z</time>
        <speed>30</speed>
      </trkpt>
      <trkpt lat="47.104663" lon="14.952761">
        <ele>1025.9</ele>
        <time>2016-07-17T07:26:21.438Z</time>
        <speed>30</speed>
      </trkpt>
      <trkpt lat="47.105568" lon="14.954268">
        <ele>1053.8</ele>
        <time>2016-07-17T07:26:39.719Z</time>
        <speed>30</speed>
      </trkpt>
      <trkpt lat="47.106286" lon="14.957265">
        <ele>1040.7</ele>
        <time>2016-07-17T07:27:08.649Z</time>
        <speed>30</speed>
      </trkpt>
      <trkpt lat="47.106437" lon="14.957473">
        <ele>1041.8</ele>
        <time>2016-07-17T07:27:11.412Z</time>
        <speed>30</speed>
      </trkpt>
      <trkpt lat="47.10671" lon="14.957507">
        <ele>1048.7</ele>
        <time>2016-07-17T07:27:15.067Z</time>
        <speed>30</speed>
      </trkpt>
      <trkpt lat="47.107005" lon="14.957077">
        <ele>1051.9</ele>
        <time>2016-07-17T07:27:20.619Z</time>
        <speed>30</speed>
      </trkpt>
      <trkpt lat="47.107184" lon="14.956055">
        <ele>1066</ele>
        <time>2016-07-17T07:27:30.229Z</time>
        <speed>30</speed>
      </trkpt>
      <trkpt lat="47.107626" lon="14.954605">
        <ele>1084.3</ele>
        <time>2016-07-17T07:27:44.693Z</time>
        <speed>30</speed>
      </trkpt>
      <trkpt lat="47.108006" lon="14.952795">
        <ele>1097.7</ele>
        <time>2016-07-17T07:28:01.941Z</time>
        <speed>30</speed>
      </trkpt>
      <trkpt lat="47.108024" lon="14.950651">
        <ele>1119.1</ele>
        <time>2016-07-17T07:28:21.471Z</time>
        <speed>30</speed>
      </trkpt>
      <trkpt lat="47.108207" lon="14.948221">
        <ele>1129</ele>
        <time>2016-07-17T07:28:43.738Z</time>
        <speed>30</speed>
      </trkpt>
      <trkpt lat="47.108932" lon="14.945452">
        <ele>1160.2</ele>
        <time>2016-07-17T07:29:10.75Z</time>
        <speed>30</speed>
      </trkpt>
      <trkpt lat="47.10917" lon="14.944928">
        <ele>1162.8</ele>
        <time>2016-07-17T07:29:16.482Z</time>
        <speed>30</speed>
      </trkpt>
      <trkpt lat="47.109488" lon="14.944705">
        <ele>1169.9</ele>
        <time>2016-07-17T07:29:21.184Z</time>
        <speed>30</speed>
      </trkpt>
      <trkpt lat="47.109844" lon="14.944888">
        <ele>1165.7</ele>
        <time>2016-07-17T07:29:26.216Z</time>
        <speed>30</speed>
      </trkpt>
      <trkpt lat="47.110264" lon="14.945745">
        <ele>1151.7</ele>
        <time>2016-07-17T07:29:35.824Z</time>
        <speed>30</speed>
      </trkpt>
      <trkpt lat="47.110479" lon="14.945732">
        <ele>1156.3</ele>
        <time>2016-07-17T07:29:38.695Z</time>
        <speed>30</speed>
      </trkpt>
      <trkpt lat="47.110564" lon="14.945488">
        <ele>1166.2</ele>
        <time>2016-07-17T07:29:41.187Z</time>
        <speed>30</speed>
      </trkpt>
      <trkpt lat="47.110539" lon="14.945274">
        <ele>1172.6</ele>
        <time>2016-07-17T07:29:43.161Z</time>
        <speed>30</speed>
      </trkpt>
      <trkpt lat="47.110282" lon="14.944815">
        <ele>1177.6</ele>
        <time>2016-07-17T07:29:48.568Z</time>
        <speed>30</speed>
      </trkpt>
      <trkpt lat="47.110046" lon="14.944128">
        <ele>1184.9</ele>
        <time>2016-07-17T07:29:55.573Z</time>
        <speed>30</speed>
      </trkpt>
      <trkpt lat="47.109807" lon="14.943866">
        <ele>1188.9</ele>
        <time>2016-07-17T07:29:59.553Z</time>
        <speed>30</speed>
      </trkpt>
      <trkpt lat="47.109653" lon="14.943815">
        <ele>1191.2</ele>
        <time>2016-07-17T07:30:01.659Z</time>
        <speed>30</speed>
      </trkpt>
      <trkpt lat="47.109252" lon="14.943839">
        <ele>1194.4</ele>
        <time>2016-07-17T07:30:07.013Z</time>
        <speed>30</speed>
      </trkpt>
      <trkpt lat="47.108945" lon="14.944078">
        <ele>1196</ele>
        <time>2016-07-17T07:30:11.65Z</time>
        <speed>30</speed>
      </trkpt>
      <trkpt lat="47.108227" lon="14.94513">
        <ele>1190</ele>
        <time>2016-07-17T07:30:25.199Z</time>
        <speed>30</speed>
      </trkpt>
      <trkpt lat="47.107837" lon="14.945553">
        <ele>1184.5</ele>
        <time>2016-07-17T07:30:31.673Z</time>
        <speed>30</speed>
      </trkpt>
      <trkpt lat="47.107555" lon="14.94552">
        <ele>1188.2</ele>
        <time>2016-07-17T07:30:35.447Z</time>
        <speed>30</speed>
      </trkpt>
      <trkpt lat="47.107433" lon="14.945311">
        <ele>1190.7</ele>
        <time>2016-07-17T07:30:37.949Z</time>
        <speed>30</speed>
      </trkpt>
      <trkpt lat="47.107277" lon="14.944421">
        <ele>1196.6</ele>
        <time>2016-07-17T07:30:46.318Z</time>
        <speed>30</speed>
      </trkpt>
      <trkpt lat="47.107153" lon="14.941966">
        <ele>1217.9</ele>
        <time>2016-07-17T07:31:08.74Z</time>
        <speed>30</speed>
      </trkpt>
      <trkpt lat="47.107471" lon="14.940378">
        <ele>1247.1</ele>
        <time>2016-07-17T07:31:23.813Z</time>
        <speed>30</speed>
      </trkpt>
      <trkpt lat="47.107443" lon="14.93797">
        <ele>1259.4</ele>
        <time>2016-07-17T07:31:45.749Z</time>
        <speed>30</speed>
      </trkpt>
      <trkpt lat="47.107543" lon="14.937331">
        <ele>1261.3</ele>
        <time>2016-07-17T07:31:51.72Z</time>
        <speed>30</speed>
      </trkpt>
      <trkpt lat="47.107947" lon="14.936391">
        <ele>1273.1</ele>
        <time>2016-07-17T07:32:01.837Z</time>
        <speed>30</speed>
      </trkpt>
      <trkpt lat="47.108214" lon="14.935283">
        <ele>1278.1</ele>
        <time>2016-07-17T07:32:12.539Z</time>
        <speed>30</speed>
      </trkpt>
      <trkpt lat="47.108345" lon="14.935031">
        <ele>1283.5</ele>
        <time>2016-07-17T07:32:15.421Z</time>
        <speed>30</speed>
      </trkpt>
      <trkpt lat="47.108589" lon="14.934703">
        <ele>1287.8</ele>
        <time>2016-07-17T07:32:19.836Z</time>
        <speed>30</speed>
      </trkpt>
      <trkpt lat="47.10917" lon="14.934169">
        <ele>1299.7</ele>
        <time>2016-07-17T07:32:28.987Z</time>
        <speed>30</speed>
      </trkpt>
      <trkpt lat="47.109785" lon="14.933212">
        <ele>1298.5</ele>
        <time>2016-07-17T07:32:40.957Z</time>
        <speed>30</speed>
      </trkpt>
      <trkpt lat="47.110728" lon="14.932299">
        <ele>1312.2</ele>
        <time>2016-07-17T07:32:56.037Z</time>
        <speed>30</speed>
      </trkpt>
      <trkpt lat="47.111722" lon="14.930983">
        <ele>1314.5</ele>
        <time>2016-07-17T07:33:13.912Z</time>
        <speed>30</speed>
      </trkpt>
      <trkpt lat="47.112034" lon="14.930453">
        <ele>1319.4</ele>
        <time>2016-07-17T07:33:20.286Z</time>
        <speed>30</speed>
      </trkpt>
      <trkpt lat="47.112208" lon="14.929894">
        <ele>1318.5</ele>
        <time>2016-07-17T07:33:25.881Z</time>
        <speed>30</speed>
      </trkpt>
      <trkpt lat="47.11231" lon="14.929168">
        <ele>1311.5</ele>
        <time>2016-07-17T07:33:32.632Z</time>
        <speed>30</speed>
      </trkpt>
      <trkpt lat="47.112404" lon="14.928066">
        <ele>1306.6</ele>
        <time>2016-07-17T07:33:42.747Z</time>
        <speed>30</speed>
      </trkpt>
      <trkpt lat="47.112343" lon="14.927111">
        <ele>1310.7</ele>
        <time>2016-07-17T07:33:51.483Z</time>
        <speed>30</speed>
      </trkpt>
      <trkpt lat="47.112473" lon="14.926611">
        <ele>1317.7</ele>
        <time>2016-07-17T07:33:56.356Z</time>
        <speed>30</speed>
      </trkpt>
      <trkpt lat="47.112583" lon="14.926531">
        <ele>1320.6</ele>
        <time>2016-07-17T07:33:57.994Z</time>
        <speed>30</speed>
      </trkpt>
      <trkpt lat="47.112774" lon="14.926552">
        <ele>1322.8</ele>
        <time>2016-07-17T07:34:00.549Z</time>
        <speed>30</speed>
      </trkpt>
      <trkpt lat="47.113008" lon="14.926983">
        <ele>1324</ele>
        <time>2016-07-17T07:34:05.564Z</time>
        <speed>30</speed>
      </trkpt>
      <trkpt lat="47.112579" lon="14.92936">
        <ele>1325.6</ele>
        <time>2016-07-17T07:34:27.956Z</time>
        <speed>30</speed>
      </trkpt>
      <trkpt lat="47.112465" lon="14.930882">
        <ele>1348.7</ele>
        <time>2016-07-17T07:34:41.901Z</time>
        <speed>30</speed>
      </trkpt>
      <trkpt lat="47.111879" lon="14.932227">
        <ele>1355.6</ele>
        <time>2016-07-17T07:34:56.433Z</time>
        <speed>30</speed>
      </trkpt>
      <trkpt lat="47.110758" lon="14.934076">
        <ele>1365.9</ele>
        <time>2016-07-17T07:35:18.955Z</time>
        <speed>30</speed>
      </trkpt>
      <trkpt lat="47.110032" lon="14.935591">
        <ele>1364.8</ele>
        <time>2016-07-17T07:35:35.813Z</time>
        <speed>30</speed>
      </trkpt>
      <trkpt lat="47.109979" lon="14.935887">
        <ele>1365.6</ele>
        <time>2016-07-17T07:35:38.596Z</time>
        <speed>30</speed>
      </trkpt>
      <trkpt lat="47.110101" lon="14.936115">
        <ele>1365.4</ele>
        <time>2016-07-17T07:35:41.232Z</time>
        <speed>30</speed>
      </trkpt>
      <trkpt lat="47.110208" lon="14.93612">
        <ele>1365.2</ele>
        <time>2016-07-17T07:35:42.66Z</time>
        <speed>30</speed>
      </trkpt>
      <trkpt lat="47.110334" lon="14.935992">
        <ele>1366.6</ele>
        <time>2016-07-17T07:35:44.705Z</time>
        <speed>30</speed>
      </trkpt>
      <trkpt lat="47.11076" lon="14.934616">
        <ele>1374.4</ele>
        <time>2016-07-17T07:35:58.466Z</time>
        <speed>30</speed>
      </trkpt>
      <trkpt lat="47.111107" lon="14.934007">
        <ele>1377.5</ele>
        <time>2016-07-17T07:36:05.691Z</time>
        <speed>30</speed>
      </trkpt>
      <trkpt lat="47.112909" lon="14.932378">
        <ele>1403.2</ele>
        <time>2016-07-17T07:36:33.941Z</time>
        <speed>30</speed>
      </trkpt>
      <trkpt lat="47.114053" lon="14.930738">
        <ele>1426.6</ele>
        <time>2016-07-17T07:36:55.295Z</time>
        <speed>30</speed>
      </trkpt>
      <trkpt lat="47.114329" lon="14.930182">
        <ele>1428.2</ele>
        <time>2016-07-17T07:37:01.556Z</time>
        <speed>30</speed>
      </trkpt>
      <trkpt lat="47.114625" lon="14.92927">
        <ele>1427.9</ele>
        <time>2016-07-17T07:37:10.753Z</time>
        <speed>30</speed>
      </trkpt>
      <trkpt lat="47.11544" lon="14.927965">
        <ele>1446.6</ele>
        <time>2016-07-17T07:37:26.861Z</time>
        <speed>30</speed>
      </trkpt>
      <trkpt lat="47.115797" lon="14.926816">
        <ele>1448.7</ele>
        <time>2016-07-17T07:37:38.358Z</time>
        <speed>30</speed>
      </trkpt>
      <trkpt lat="47.116366" lon="14.925936">
        <ele>1462.7</ele>
        <time>2016-07-17T07:37:49.396Z</time>
        <speed>30</speed>
      </trkpt>
      <trkpt lat="47.11647" lon="14.925435">
        <ele>1469.3</ele>
        <time>2016-07-17T07:37:54.165Z</time>
        <speed>30</speed>
      </trkpt>
      <trkpt lat="47.116297" lon="14.92476">
        <ele>1470.8</ele>
        <time>2016-07-17T07:38:00.731Z</time>
        <speed>30</speed>
      </trkpt>
      <trkpt lat="47.115485" lon="14.923567">
        <ele>1475.2</ele>
        <time>2016-07-17T07:38:16.073Z</time>
        <speed>30</speed>
      </trkpt>
      <trkpt lat="47.114977" lon="14.922929">
        <ele>1478.7</ele>
        <time>2016-07-17T07:38:25Z</time>
        <speed>30</speed>
      </trkpt>
      <trkpt lat="47.114199" lon="14.922287">
        <ele>1481.7</ele>
        <time>2016-07-17T07:38:36.913Z</time>
        <speed>30</speed>
      </trkpt>
      <trkpt lat="47.113609" lon="14.921182">
        <ele>1496.2</ele>
        <time>2016-07-17T07:38:49.689Z</time>
        <speed>30</speed>
      </trkpt>
      <trkpt lat="47.11337" lon="14.921026">
        <ele>1499.4</ele>
        <time>2016-07-17T07:38:53.179Z</time>
        <speed>30</speed>
      </trkpt>
      <trkpt lat="47.112909" lon="14.920909">
        <ele>1496</ele>
        <time>2016-07-17T07:38:59.42Z</time>
        <speed>30</speed>
      </trkpt>
      <trkpt lat="47.112706" lon="14.920743">
        <ele>1497</ele>
        <time>2016-07-17T07:39:02.52Z</time>
        <speed>30</speed>
      </trkpt>
      <trkpt lat="47.11233" lon="14.919739">
        <ele>1514.1</ele>
        <time>2016-07-17T07:39:12.949Z</time>
        <speed>30</speed>
      </trkpt>
      <trkpt lat="47.111743" lon="14.918912">
        <ele>1524.9</ele>
        <time>2016-07-17T07:39:23.814Z</time>
        <speed>30</speed>
      </trkpt>
      <trkpt lat="47.111277" lon="14.918556">
        <ele>1528.9</ele>
        <time>2016-07-17T07:39:30.823Z</time>
        <speed>30</speed>
      </trkpt>
      <trkpt lat="47.110038" lon="14.917961">
        <ele>1535.4</ele>
        <time>2016-07-17T07:39:48.218Z</time>
        <speed>30</speed>
      </trkpt>
      <trkpt lat="47.108829" lon="14.917126">
        <ele>1540.6</ele>
        <time>2016-07-17T07:40:06.05Z</time>
        <speed>30</speed>
      </trkpt>
      <trkpt lat="47.108409" lon="14.917059">
        <ele>1543.3</ele>
        <time>2016-07-17T07:40:11.686Z</time>
        <speed>30</speed>
      </trkpt>
      <trkpt lat="47.107854" lon="14.91718">
        <ele>1542.6</ele>
        <time>2016-07-17T07:40:19.171Z</time>
        <speed>30</speed>
      </trkpt>
      <trkpt lat="47.107616" lon="14.917144">
        <ele>1543.7</ele>
        <time>2016-07-17T07:40:22.363Z</time>
        <speed>30</speed>
      </trkpt>
      <trkpt lat="47.107423" lon="14.916897">
        <ele>1545.7</ele>
        <time>2016-07-17T07:40:25.78Z</time>
        <speed>30</speed>
      </trkpt>
      <trkpt lat="47.107412" lon="14.916566">
        <ele>1546.7</ele>
        <time>2016-07-17T07:40:28.794Z</time>
        <speed>30</speed>
      </trkpt>
      <trkpt lat="47.107782" lon="14.915719">
        <ele>1544</ele>
        <time>2016-07-17T07:40:37.953Z</time>
        <speed>30</speed>
      </trkpt>
      <trkpt lat="47.10828" lon="14.914865">
        <ele>1539.7</ele>
        <time>2016-07-17T07:40:48.183Z</time>
        <speed>30</speed>
      </trkpt>
      <trkpt lat="47.109331" lon="14.913506">
        <ele>1529.5</ele>
        <time>2016-07-17T07:41:06.886Z</time>
        <speed>30</speed>
      </trkpt>
      <trkpt lat="47.10947" lon="14.912853">
        <ele>1522.2</ele>
        <time>2016-07-17T07:41:13.116Z</time>
        <speed>30</speed>
      </trkpt>
      <trkpt lat="47.109445" lon="14.911661">
        <ele>1510.7</ele>
        <time>2016-07-17T07:41:23.978Z</time>
        <speed>30</speed>
      </trkpt>
      <trkpt lat="47.109541" lon="14.911223">
        <ele>1505.5</ele>
        <time>2016-07-17T07:41:28.168Z</time>
        <speed>30</speed>
      </trkpt>
      <trkpt lat="47.110317" lon="14.910065">
        <ele>1502.4</ele>
        <time>2016-07-17T07:41:42.947Z</time>
        <speed>30</speed>
      </trkpt>
      <trkpt lat="47.110894" lon="14.909036">
        <ele>1493.5</ele>
        <time>2016-07-17T07:41:55.075Z</time>
        <speed>30</speed>
      </trkpt>
      <trkpt lat="47.111874" lon="14.908199">
        <ele>1495.6</ele>
        <time>2016-07-17T07:42:10.209Z</time>
        <speed>30</speed>
      </trkpt>
      <trkpt lat="47.11294" lon="14.907675">
        <ele>1483.6</ele>
        <time>2016-07-17T07:42:25.21Z</time>
        <speed>30</speed>
      </trkpt>
      <trkpt lat="47.113481" lon="14.907557">
        <ele>1480.8</ele>
        <time>2016-07-17T07:42:32.507Z</time>
        <speed>30</speed>
      </trkpt>
      <trkpt lat="47.115849" lon="14.90732">
        <ele>1469.2</ele>
        <time>2016-07-17T07:43:04.171Z</time>
        <speed>30</speed>
      </trkpt>
      <trkpt lat="47.116222" lon="14.907196">
        <ele>1467.4</ele>
        <time>2016-07-17T07:43:09.273Z</time>
        <speed>30</speed>
      </trkpt>
      <trkpt lat="47.116559" lon="14.906952">
        <ele>1466.6</ele>
        <time>2016-07-17T07:43:14.286Z</time>
        <speed>30</speed>
      </trkpt>
      <trkpt lat="47.118074" lon="14.904274">
        <ele>1458.9</ele>
        <time>2016-07-17T07:43:45.96Z</time>
        <speed>30</speed>
      </trkpt>
      <trkpt lat="47.118728" lon="14.902808">
        <ele>1447.8</ele>
        <time>2016-07-17T07:44:01.908Z</time>
        <speed>30</speed>
      </trkpt>
      <trkpt lat="47.119754" lon="14.901161">
        <ele>1432.3</ele>
        <time>2016-07-17T07:44:22.213Z</time>
        <speed>30</speed>
      </trkpt>
      <trkpt lat="47.120355" lon="14.900001">
        <ele>1429.8</ele>
        <time>2016-07-17T07:44:35.474Z</time>
        <speed>30</speed>
      </trkpt>
      <trkpt lat="47.120441" lon="14.898811">
        <ele>1432.9</ele>
        <time>2016-07-17T07:44:46.371Z</time>
        <speed>30</speed>
      </trkpt>
      <trkpt lat="47.121467" lon="14.896632">
        <ele>1442.9</ele>
        <time>2016-07-17T07:45:10.476Z</time>
        <speed>30</speed>
      </trkpt>
      <trkpt lat="47.121584" lon="14.894215">
        <ele>1431.5</ele>
        <time>2016-07-17T07:45:32.54Z</time>
        <speed>30</speed>
      </trkpt>
      <trkpt lat="47.121877" lon="14.89243">
        <ele>1426</ele>
        <time>2016-07-17T07:45:49.258Z</time>
        <speed>30</speed>
      </trkpt>
      <trkpt lat="47.121539" lon="14.890551">
        <ele>1415.7</ele>
        <time>2016-07-17T07:46:06.952Z</time>
        <speed>30</speed>
      </trkpt>
      <trkpt lat="47.120853" lon="14.888431">
        <ele>1395.1</ele>
        <time>2016-07-17T07:46:28.316Z</time>
        <speed>30</speed>
      </trkpt>
      <trkpt lat="47.120784" lon="14.887999">
        <ele>1389.5</ele>
        <time>2016-07-17T07:46:32.356Z</time>
        <speed>30</speed>
      </trkpt>
      <trkpt lat="47.12082" lon="14.88757">
        <ele>1386.6</ele>
        <time>2016-07-17T07:46:36.292Z</time>
        <speed>30</speed>
      </trkpt>
      <trkpt lat="47.120992" lon="14.887221">
        <ele>1381.6</ele>
        <time>2016-07-17T07:46:40.208Z</time>
        <speed>30</speed>
      </trkpt>
      <trkpt lat="47.12124" lon="14.886967">
        <ele>1378.4</ele>
        <time>2016-07-17T07:46:44.243Z</time>
        <speed>30</speed>
      </trkpt>
      <trkpt lat="47.121515" lon="14.886799">
        <ele>1377.7</ele>
        <time>2016-07-17T07:46:48.217Z</time>
        <speed>30</speed>
      </trkpt>
      <trkpt lat="47.121827" lon="14.886772">
        <ele>1377.9</ele>
        <time>2016-07-17T07:46:52.387Z</time>
        <speed>30</speed>
      </trkpt>
      <trkpt lat="47.122285" lon="14.886934">
        <ele>1378.1</ele>
        <time>2016-07-17T07:46:58.672Z</time>
        <speed>30</speed>
      </trkpt>
      <trkpt lat="47.122846" lon="14.887392">
        <ele>1379.2</ele>
        <time>2016-07-17T07:47:07.24Z</time>
        <speed>30</speed>
      </trkpt>
      <trkpt lat="47.123824" lon="14.887971">
        <ele>1377.1</ele>
        <time>2016-07-17T07:47:21.312Z</time>
        <speed>30</speed>
      </trkpt>
      <trkpt lat="47.124249" lon="14.887989">
        <ele>1374</ele>
        <time>2016-07-17T07:47:26.984Z</time>
        <speed>30</speed>
      </trkpt>
      <trkpt lat="47.124503" lon="14.887745">
        <ele>1371</ele>
        <time>2016-07-17T07:47:31.034Z</time>
        <speed>30</speed>
      </trkpt>
      <trkpt lat="47.124988" lon="14.886817">
        <ele>1354.4</ele>
        <time>2016-07-17T07:47:41.677Z</time>
        <speed>30</speed>
      </trkpt>
      <trkpt lat="47.12577" lon="14.88588">
        <ele>1347.1</ele>
        <time>2016-07-17T07:47:55.154Z</time>
        <speed>30</speed>
      </trkpt>
      <trkpt lat="47.12628" lon="14.883749">
        <ele>1313.3</ele>
        <time>2016-07-17T07:48:15.716Z</time>
        <speed>30</speed>
      </trkpt>
      <trkpt lat="47.126547" lon="14.883457">
        <ele>1312.6</ele>
        <time>2016-07-17T07:48:20.158Z</time>
        <speed>30</speed>
      </trkpt>
      <trkpt lat="47.127348" lon="14.882947">
        <ele>1302.9</ele>
        <time>2016-07-17T07:48:31.809Z</time>
        <speed>30</speed>
      </trkpt>
      <trkpt lat="47.127396" lon="14.882589">
        <ele>1300.8</ele>
        <time>2016-07-17T07:48:35.126Z</time>
        <speed>30</speed>
      </trkpt>
      <trkpt lat="47.127297" lon="14.881836">
        <ele>1293.4</ele>
        <time>2016-07-17T07:48:42.108Z</time>
        <speed>30</speed>
      </trkpt>
      <trkpt lat="47.127403" lon="14.881623">
        <ele>1293.3</ele>
        <time>2016-07-17T07:48:44.506Z</time>
        <speed>30</speed>
      </trkpt>
      <trkpt lat="47.12768" lon="14.881732">
        <ele>1292.8</ele>
        <time>2016-07-17T07:48:48.332Z</time>
        <speed>30</speed>
      </trkpt>
      <trkpt lat="47.127728" lon="14.881884">
        <ele>1292.5</ele>
        <time>2016-07-17T07:48:49.855Z</time>
        <speed>30</speed>
      </trkpt>
      <trkpt lat="47.127637" lon="14.882616">
        <ele>1297.4</ele>
        <time>2016-07-17T07:48:56.629Z</time>
        <speed>30</speed>
      </trkpt>
      <trkpt lat="47.127799" lon="14.882837">
        <ele>1293.1</ele>
        <time>2016-07-17T07:48:59.58Z</time>
        <speed>30</speed>
      </trkpt>
      <trkpt lat="47.127903" lon="14.882731">
        <ele>1290.3</ele>
        <time>2016-07-17T07:49:01.269Z</time>
        <speed>30</speed>
      </trkpt>
      <trkpt lat="47.127955" lon="14.882312">
        <ele>1289.2</ele>
        <time>2016-07-17T07:49:05.147Z</time>
        <speed>30</speed>
      </trkpt>
      <trkpt lat="47.128319" lon="14.8813">
        <ele>1279.5</ele>
        <time>2016-07-17T07:49:15.562Z</time>
        <speed>30</speed>
      </trkpt>
      <trkpt lat="47.12855" lon="14.880921">
        <ele>1270.6</ele>
        <time>2016-07-17T07:49:20.189Z</time>
        <speed>30</speed>
      </trkpt>
      <trkpt lat="47.128796" lon="14.880217">
        <ele>1265.8</ele>
        <time>2016-07-17T07:49:27.39Z</time>
        <speed>30</speed>
      </trkpt>
      <trkpt lat="47.129495" lon="14.879014">
        <ele>1246.8</ele>
        <time>2016-07-17T07:49:41.775Z</time>
        <speed>30</speed>
      </trkpt>
      <trkpt lat="47.129547" lon="14.878305">
        <ele>1243.7</ele>
        <time>2016-07-17T07:49:48.267Z</time>
        <speed>30</speed>
      </trkpt>
      <trkpt lat="47.129446" lon="14.877189">
        <ele>1232.5</ele>
        <time>2016-07-17T07:49:58.517Z</time>
        <speed>30</speed>
      </trkpt>
      <trkpt lat="47.129419" lon="14.875012">
        <ele>1210.9</ele>
        <time>2016-07-17T07:50:18.341Z</time>
        <speed>30</speed>
      </trkpt>
      <trkpt lat="47.129525" lon="14.874446">
        <ele>1208.2</ele>
        <time>2016-07-17T07:50:23.685Z</time>
        <speed>30</speed>
      </trkpt>
      <trkpt lat="47.130035" lon="14.873657">
        <ele>1219.2</ele>
        <time>2016-07-17T07:50:33.579Z</time>
        <speed>30</speed>
      </trkpt>
      <trkpt lat="47.130988" lon="14.872844">
        <ele>1207</ele>
        <time>2016-07-17T07:50:48.291Z</time>
        <speed>30</speed>
      </trkpt>
      <trkpt lat="47.131725" lon="14.872073">
        <ele>1192.1</ele>
        <time>2016-07-17T07:51:00.372Z</time>
        <speed>30</speed>
      </trkpt>
      <trkpt lat="47.132358" lon="14.871782">
        <ele>1190.3</ele>
        <time>2016-07-17T07:51:09.221Z</time>
        <speed>30</speed>
      </trkpt>
      <trkpt lat="47.132594" lon="14.871541">
        <ele>1190.1</ele>
        <time>2016-07-17T07:51:13.057Z</time>
        <speed>30</speed>
      </trkpt>
      <trkpt lat="47.132694" lon="14.871157">
        <ele>1189.4</ele>
        <time>2016-07-17T07:51:16.799Z</time>
        <speed>30</speed>
      </trkpt>
      <trkpt lat="47.132742" lon="14.869125">
        <ele>1189.9</ele>
        <time>2016-07-17T07:51:35.31Z</time>
        <speed>30</speed>
      </trkpt>
      <trkpt lat="47.133104" lon="14.868724">
        <ele>1182.2</ele>
        <time>2016-07-17T07:51:41.364Z</time>
        <speed>30</speed>
      </trkpt>
      <trkpt lat="47.13387" lon="14.868484">
        <ele>1160.8</ele>
        <time>2016-07-17T07:51:51.813Z</time>
        <speed>30</speed>
      </trkpt>
      <trkpt lat="47.134007" lon="14.868292">
        <ele>1159.1</ele>
        <time>2016-07-17T07:51:54.34Z</time>
        <speed>30</speed>
      </trkpt>
      <trkpt lat="47.134274" lon="14.86715">
        <ele>1159.2</ele>
        <time>2016-07-17T07:52:05.33Z</time>
        <speed>30</speed>
      </trkpt>
      <trkpt lat="47.134669" lon="14.866293">
        <ele>1151.7</ele>
        <time>2016-07-17T07:52:14.745Z</time>
        <speed>30</speed>
      </trkpt>
      <trkpt lat="47.134657" lon="14.865447">
        <ele>1149.2</ele>
        <time>2016-07-17T07:52:22.448Z</time>
        <speed>30</speed>
      </trkpt>
      <trkpt lat="47.134226" lon="14.864373">
        <ele>1147.5</ele>
        <time>2016-07-17T07:52:33.791Z</time>
        <speed>30</speed>
      </trkpt>
      <trkpt lat="47.134135" lon="14.863913">
        <ele>1144.4</ele>
        <time>2016-07-17T07:52:38.151Z</time>
        <speed>30</speed>
      </trkpt>
      <trkpt lat="47.134149" lon="14.863422">
        <ele>1140.4</ele>
        <time>2016-07-17T07:52:42.625Z</time>
        <speed>30</speed>
      </trkpt>
      <trkpt lat="47.134496" lon="14.862561">
        <ele>1136.9</ele>
        <time>2016-07-17T07:52:51.728Z</time>
        <speed>30</speed>
      </trkpt>
      <trkpt lat="47.135029" lon="14.86195">
        <ele>1124.8</ele>
        <time>2016-07-17T07:53:00.756Z</time>
        <speed>30</speed>
      </trkpt>
      <trkpt lat="47.135341" lon="14.860649">
        <ele>1110.7</ele>
        <time>2016-07-17T07:53:13.31Z</time>
        <speed>30</speed>
      </trkpt>
      <trkpt lat="47.135512" lon="14.860275">
        <ele>1105.8</ele>
        <time>2016-07-17T07:53:17.408Z</time>
        <speed>30</speed>
      </trkpt>
      <trkpt lat="47.135852" lon="14.859815">
        <ele>1107.5</ele>
        <time>2016-07-17T07:53:23.581Z</time>
        <speed>30</speed>
      </trkpt>
      <trkpt lat="47.136553" lon="14.859261">
        <ele>1103.7</ele>
        <time>2016-07-17T07:53:34.206Z</time>
        <speed>30</speed>
      </trkpt>
      <trkpt lat="47.136724" lon="14.85891">
        <ele>1105.5</ele>
        <time>2016-07-17T07:53:38.128Z</time>
        <speed>30</speed>
      </trkpt>
      <trkpt lat="47.136714" lon="14.858274">
        <ele>1107.9</ele>
        <time>2016-07-17T07:53:43.919Z</time>
        <speed>30</speed>
      </trkpt>
      <trkpt lat="47.136338" lon="14.855862">
        <ele>1078.3</ele>
        <time>2016-07-17T07:54:06.442Z</time>
        <speed>30</speed>
      </trkpt>
      <trkpt lat="47.136382" lon="14.855732">
        <ele>1077.2</ele>
        <time>2016-07-17T07:54:07.761Z</time>
        <speed>30</speed>
      </trkpt>
      <trkpt lat="47.136496" lon="14.855795">
        <ele>1078.3</ele>
        <time>2016-07-17T07:54:09.386Z</time>
        <speed>30</speed>
      </trkpt>
      <trkpt lat="47.136659" lon="14.856336">
        <ele>1083.7</ele>
        <time>2016-07-17T07:54:14.77Z</time>
        <speed>30</speed>
      </trkpt>
      <trkpt lat="47.136774" lon="14.856407">
        <ele>1079.7</ele>
        <time>2016-07-17T07:54:16.434Z</time>
        <speed>30</speed>
      </trkpt>
      <trkpt lat="47.136842" lon="14.856066">
        <ele>1073.8</ele>
        <time>2016-07-17T07:54:19.663Z</time>
        <speed>30</speed>
      </trkpt>
      <trkpt lat="47.136759" lon="14.85466">
        <ele>1064.1</ele>
        <time>2016-07-17T07:54:32.51Z</time>
        <speed>30</speed>
      </trkpt>
      <trkpt lat="47.136953" lon="14.854015">
        <ele>1059.1</ele>
        <time>2016-07-17T07:54:38.927Z</time>
        <speed>30</speed>
      </trkpt>
      <trkpt lat="47.137346" lon="14.853534">
        <ele>1059.8</ele>
        <time>2016-07-17T07:54:45.758Z</time>
        <speed>30</speed>
      </trkpt>
      <trkpt lat="47.138584" lon="14.852734">
        <ele>1026.9</ele>
        <time>2016-07-17T07:55:03.808Z</time>
        <speed>30</speed>
      </trkpt>
      <trkpt lat="47.138703" lon="14.852458">
        <ele>1027.3</ele>
        <time>2016-07-17T07:55:06.777Z</time>
        <speed>30</speed>
      </trkpt>
      <trkpt lat="47.138848" lon="14.851533">
        <ele>1027.9</ele>
        <time>2016-07-17T07:55:15.417Z</time>
        <speed>30</speed>
      </trkpt>
      <trkpt lat="47.139261" lon="14.850885">
        <ele>1017.1</ele>
        <time>2016-07-17T07:55:23.489Z</time>
        <speed>30</speed>
      </trkpt>
      <trkpt lat="47.139796" lon="14.850498">
        <ele>1001.2</ele>
        <time>2016-07-17T07:55:31.448Z</time>
        <speed>30</speed>
      </trkpt>
      <trkpt lat="47.140103" lon="14.850159">
        <ele>993.8</ele>
        <time>2016-07-17T07:55:36.573Z</time>
        <speed>30</speed>
      </trkpt>
      <trkpt lat="47.140175" lon="14.850002">
        <ele>992.9</ele>
        <time>2016-07-17T07:55:38.293Z</time>
        <speed>30</speed>
      </trkpt>
      <trkpt lat="47.140238" lon="14.849062">
        <ele>1001.5</ele>
        <time>2016-07-17T07:55:46.891Z</time>
        <speed>30</speed>
      </trkpt>
      <trkpt lat="47.140609" lon="14.84873">
        <ele>998</ele>
        <time>2016-07-17T07:55:52.688Z</time>
        <speed>30</speed>
      </trkpt>
      <trkpt lat="47.141086" lon="14.848824">
        <ele>993.1</ele>
        <time>2016-07-17T07:55:59.109Z</time>
        <speed>30</speed>
      </trkpt>
      <trkpt lat="47.141425" lon="14.849144">
        <ele>992.2</ele>
        <time>2016-07-17T07:56:04.486Z</time>
        <speed>30</speed>
      </trkpt>
      <trkpt lat="47.141958" lon="14.850373">
        <ele>975.8</ele>
        <time>2016-07-17T07:56:17.742Z</time>
        <speed>30</speed>
      </trkpt>
      <trkpt lat="47.142571" lon="14.851365">
        <ele>963.9</ele>
        <time>2016-07-17T07:56:29.924Z</time>
        <speed>30</speed>
      </trkpt>
      <trkpt lat="47.142841" lon="14.852231">
        <ele>936.8</ele>
        <time>2016-07-17T07:56:38.591Z</time>
        <speed>30</speed>
      </trkpt>
      <trkpt lat="47.14297" lon="14.852274">
        <ele>937.1</ele>
        <time>2016-07-17T07:56:40.356Z</time>
        <speed>30</speed>
      </trkpt>
      <trkpt lat="47.143313" lon="14.851889">
        <ele>950.3</ele>
        <time>2016-07-17T07:56:46.12Z</time>
        <speed>30</speed>
      </trkpt>
      <trkpt lat="47.144213" lon="14.850243">
        <ele>921.5</ele>
        <time>2016-07-17T07:57:05.32Z</time>
        <speed>30</speed>
      </trkpt>
      <trkpt lat="47.144127" lon="14.849495">
        <ele>924.9</ele>
        <time>2016-07-17T07:57:12.224Z</time>
        <speed>30</speed>
      </trkpt>
      <trkpt lat="47.144344" lon="14.847403">
        <ele>905.7</ele>
        <time>2016-07-17T07:57:31.484Z</time>
        <speed>30</speed>
      </trkpt>
      <trkpt lat="47.144254" lon="14.847034">
        <ele>904.1</ele>
        <time>2016-07-17T07:57:35.051Z</time>
        <speed>30</speed>
      </trkpt>
      <trkpt lat="47.143946" lon="14.846539">
        <ele>908.5</ele>
        <time>2016-07-17T07:57:41.149Z</time>
        <speed>30</speed>
      </trkpt>
      <trkpt lat="47.14313" lon="14.844791">
        <ele>893.1</ele>
        <time>2016-07-17T07:58:00.427Z</time>
        <speed>30</speed>
      </trkpt>
      <trkpt lat="47.143216" lon="14.843867">
        <ele>889.8</ele>
        <time>2016-07-17T07:58:08.915Z</time>
        <speed>30</speed>
      </trkpt>
      <trkpt lat="47.143284" lon="14.843873">
        <ele>887.8</ele>
        <time>2016-07-17T07:58:09.824Z</time>
        <speed>30</speed>
      </trkpt>
      <trkpt lat="47.143503" lon="14.84434">
        <ele>880.7</ele>
        <time>2016-07-17T07:58:14.982Z</time>
        <speed>30</speed>
      </trkpt>
      <trkpt lat="47.145735" lon="14.846077">
        <ele>839.1</ele>
        <time>2016-07-17T07:58:48.696Z</time>
        <speed>30</speed>
      </trkpt>
      <trkpt lat="47.14608" lon="14.846646">
        <ele>828.5</ele>
        <time>2016-07-17T07:58:55.625Z</time>
        <speed>30</speed>
      </trkpt>
      <trkpt lat="47.146607" lon="14.846903">
        <ele>820.9</ele>
        <time>2016-07-17T07:59:03.033Z</time>
        <speed>30</speed>
      </trkpt>
      <trkpt lat="47.147107" lon="14.847466">
        <ele>808.7</ele>
        <time>2016-07-17T07:59:11.444Z</time>
        <speed>30</speed>
      </trkpt>
      <trkpt lat="47.148234" lon="14.849042">
        <ele>771.5</ele>
        <time>2016-07-17T07:59:32.224Z</time>
        <speed>30</speed>
      </trkpt>
      <trkpt lat="47.148391" lon="14.849188">
        <ele>766.6</ele>
        <time>2016-07-17T07:59:34.703Z</time>
        <speed>30</speed>
      </trkpt>
      <trkpt lat="47.148992" lon="14.849396">
        <ele>758.4</ele>
        <time>2016-07-17T07:59:42.941Z</time>
        <speed>30</speed>
      </trkpt>
      <trkpt lat="47.149548" lon="14.848047">
        <ele>756</ele>
        <time>2016-07-17T07:59:57.285Z</time>
        <speed>30</speed>
      </trkpt>
      <trkpt lat="47.149981" lon="14.847544">
        <ele>753.8</ele>
        <time>2016-07-17T08:00:04.656Z</time>
        <speed>30</speed>
      </trkpt>
      <trkpt lat="47.15" lon="14.847404">
        <ele>753.2</ele>
        <time>2016-07-17T08:00:05.953Z</time>
        <speed>30</speed>
      </trkpt>
      <trkpt lat="47.149872" lon="14.84717">
        <ele>752.9</ele>
        <time>2016-07-17T08:00:08.68Z</time>
        <speed>30</speed>
      </trkpt>
      <trkpt lat="47.150401" lon="14.845277">
        <ele>748.7</ele>
        <time>2016-07-17T08:00:27.298Z</time>
        <speed>30</speed>
      </trkpt>
      <trkpt lat="47.150503" lon="14.845284">
        <ele>748.5</ele>
        <time>2016-07-17T08:00:28.66Z</time>
        <speed>30</speed>
      </trkpt>
      <trkpt lat="47.150862" lon="14.845683">
        <ele>749.9</ele>
        <time>2016-07-17T08:00:34.67Z</time>
        <speed>30</speed>
      </trkpt>
      <trkpt lat="47.151132" lon="14.845173">
        <ele>748.8</ele>
        <time>2016-07-17T08:00:40.545Z</time>
        <speed>30</speed>
      </trkpt>
      <trkpt lat="47.15175" lon="14.844326">
        <ele>747.6</ele>
        <time>2016-07-17T08:00:51.832Z</time>
        <speed>30</speed>
      </trkpt>
      <trkpt lat="47.151929" lon="14.843722">
        <ele>750.1</ele>
        <time>2016-07-17T08:00:57.825Z</time>
        <speed>30</speed>
      </trkpt>
      <trkpt lat="47.152031" lon="14.842632">
        <ele>748.2</ele>
        <time>2016-07-17T08:01:07.838Z</time>
        <speed>30</speed>
      </trkpt>
      <trkpt lat="47.152563" lon="14.84058">
        <ele>745.2</ele>
        <time>2016-07-17T08:01:27.816Z</time>
        <speed>30</speed>
      </trkpt>
      <trkpt lat="47.152897" lon="14.838801">
        <ele>739.1</ele>
        <time>2016-07-17T08:01:44.608Z</time>
        <speed>30</speed>
      </trkpt>
      <trkpt lat="47.153762" lon="14.836558">
        <ele>735.6</ele>
        <time>2016-07-17T08:02:08.057Z</time>
        <speed>30</speed>
      </trkpt>
      <trkpt lat="47.15387" lon="14.836079">
        <ele>736.6</ele>
        <time>2016-07-17T08:02:12.648Z</time>
        <speed>30</speed>
      </trkpt>
      <trkpt lat="47.154198" lon="14.831443">
        <ele>727.2</ele>
        <time>2016-07-17T08:02:55.064Z</time>
        <speed>30</speed>
      </trkpt>
      <trkpt lat="47.154109" lon="14.829946">
        <ele>721.5</ele>
        <time>2016-07-17T08:03:08.739Z</time>
        <speed>30</speed>
      </trkpt>
      <trkpt lat="47.154472" lon="14.82731">
        <ele>728.2</ele>
        <time>2016-07-17T08:03:33.212Z</time>
        <speed>30</speed>
      </trkpt>
      <trkpt lat="47.154608" lon="14.825095">
        <ele>724.3</ele>
        <time>2016-07-17T08:03:53.451Z</time>
        <speed>30</speed>
      </trkpt>
      <trkpt lat="47.154582" lon="14.824582">
        <ele>722</ele>
        <time>2016-07-17T08:03:58.132Z</time>
        <speed>30</speed>
      </trkpt>
      <trkpt lat="47.15437" lon="14.823756">
        <ele>715.7</ele>
        <time>2016-07-17T08:04:06.163Z</time>
        <speed>30</speed>
      </trkpt>
      <trkpt lat="47.154352" lon="14.823219">
        <ele>715.1</ele>
        <time>2016-07-17T08:04:11.056Z</time>
        <speed>30</speed>
      </trkpt>
      <trkpt lat="47.154759" lon="14.821963">
        <ele>723.6</ele>
        <time>2016-07-17T08:04:23.71Z</time>
        <speed>30</speed>
      </trkpt>
      <trkpt lat="47.154998" lon="14.820051">
        <ele>716.5</ele>
        <time>2016-07-17T08:04:41.399Z</time>
        <speed>30</speed>
      </trkpt>
      <trkpt lat="47.155301" lon="14.81873">
        <ele>717.3</ele>
        <time>2016-07-17T08:04:54.082Z</time>
        <speed>30</speed>
      </trkpt>
      <trkpt lat="47.155979" lon="14.816601">
        <ele>701.6</ele>
        <time>2016-07-17T08:05:15.464Z</time>
        <speed>30</speed>
      </trkpt>
      <trkpt lat="47.156399" lon="14.81557">
        <ele>696.2</ele>
        <time>2016-07-17T08:05:26.392Z</time>
        <speed>30</speed>
      </trkpt>
      <trkpt lat="47.156635" lon="14.815208">
        <ele>692.7</ele>
        <time>2016-07-17T08:05:30.945Z</time>
        <speed>30</speed>
      </trkpt>
      <trkpt lat="47.156945" lon="14.815006">
        <ele>691.6</ele>
        <time>2016-07-17T08:05:35.47Z</time>
        <speed>30</speed>
      </trkpt>
      <trkpt lat="47.158004" lon="14.814679">
        <ele>695.7</ele>
        <time>2016-07-17T08:05:49.907Z</time>
        <speed>30</speed>
      </trkpt>
      <trkpt lat="47.15892" lon="14.813876">
        <ele>687.8</ele>
        <time>2016-07-17T08:06:04.145Z</time>
        <speed>30</speed>
      </trkpt>
      <trkpt lat="47.159631" lon="14.813501">
        <ele>684.9</ele>
        <time>2016-07-17T08:06:14.225Z</time>
        <speed>30</speed>
      </trkpt>
      <trkpt lat="47.160564" lon="14.813196">
        <ele>684.4</ele>
        <time>2016-07-17T08:06:26.977Z</time>
        <speed>30</speed>
      </trkpt>
      <trkpt lat="47.162241" lon="14.812956">
        <ele>681.4</ele>
        <time>2016-07-17T08:06:49.456Z</time>
        <speed>30</speed>
      </trkpt>
      <trkpt lat="47.162647" lon="14.81296">
        <ele>681.2</ele>
        <time>2016-07-17T08:06:54.873Z</time>
        <speed>30</speed>
      </trkpt>
      <trkpt lat="47.16323" lon="14.813122">
        <ele>680.5</ele>
        <time>2016-07-17T08:07:02.789Z</time>
        <speed>30</speed>
      </trkpt>
      <trkpt lat="47.16352" lon="14.813097">
        <ele>680</ele>
        <time>2016-07-17T08:07:06.665Z</time>
        <speed>30</speed>
      </trkpt>
      <trkpt lat="47.163803" lon="14.812955">
        <ele>679.4</ele>
        <time>2016-07-17T08:07:10.655Z</time>
        <speed>30</speed>
      </trkpt>
      <trkpt lat="47.16442" lon="14.812432">
        <ele>678.3</ele>
        <time>2016-07-17T08:07:20.163Z</time>
        <speed>30</speed>
      </trkpt>
      <trkpt lat="47.165013" lon="14.812153">
        <ele>676.8</ele>
        <time>2016-07-17T08:07:28.47Z</time>
        <speed>30</speed>
      </trkpt>
      <trkpt lat="47.165328" lon="14.812138">
        <ele>676.2</ele>
        <time>2016-07-17T08:07:32.675Z</time>
        <speed>30</speed>
      </trkpt>
      <trkpt lat="47.166269" lon="14.812303">
        <ele>673.8</ele>
        <time>2016-07-17T08:07:45.318Z</time>
        <speed>30</speed>
      </trkpt>
      <trkpt lat="47.167631" lon="14.812363">
        <ele>672.3</ele>
        <time>2016-07-17T08:08:03.496Z</time>
        <speed>30</speed>
      </trkpt>
      <trkpt lat="47.168326" lon="14.812266">
        <ele>673.2</ele>
        <time>2016-07-17T08:08:12.81Z</time>
        <speed>30</speed>
      </trkpt>
      <trkpt lat="47.169236" lon="14.812378">
        <ele>677.9</ele>
        <time>2016-07-17T08:08:24.993Z</time>
        <speed>30</speed>
      </trkpt>
      <trkpt lat="47.169803" lon="14.812308">
        <ele>677.7</ele>
        <time>2016-07-17T08:08:32.584Z</time>
        <speed>30</speed>
      </trkpt>
      <trkpt lat="47.17065" lon="14.811703">
        <ele>665.9</ele>
        <time>2016-07-17T08:08:45.153Z</time>
        <speed>30</speed>
      </trkpt>
      <trkpt lat="47.171438" lon="14.811472">
        <ele>663.7</ele>
        <time>2016-07-17T08:08:55.873Z</time>
        <speed>30</speed>
      </trkpt>
      <trkpt lat="47.173464" lon="14.81195">
        <ele>679.7</ele>
        <time>2016-07-17T08:09:23.249Z</time>
        <speed>30</speed>
      </trkpt>
      <trkpt lat="47.174818" lon="14.811736">
        <ele>671.7</ele>
        <time>2016-07-17T08:09:41.417Z</time>
        <speed>30</speed>
      </trkpt>
      <trkpt lat="47.175661" lon="14.811473">
        <ele>666.2</ele>
        <time>2016-07-17T08:09:52.914Z</time>
        <speed>30</speed>
      </trkpt>
      <trkpt lat="47.176673" lon="14.81161">
        <ele>672.2</ele>
        <time>2016-07-17T08:10:06.472Z</time>
        <speed>30</speed>
      </trkpt>
      <trkpt lat="47.177842" lon="14.811588">
        <ele>673.4</ele>
        <time>2016-07-17T08:10:22.069Z</time>
        <speed>30</speed>
      </trkpt>
      <trkpt lat="47.178494" lon="14.811377">
        <ele>665.2</ele>
        <time>2016-07-17T08:10:30.976Z</time>
        <speed>30</speed>
      </trkpt>
      <trkpt lat="47.183311" lon="14.809288">
        <ele>649.8</ele>
        <time>2016-07-17T08:11:37.99Z</time>
        <speed>30</speed>
      </trkpt>
      <trkpt lat="47.184202" lon="14.808775">
        <ele>645.4</ele>
        <time>2016-07-17T08:11:50.76Z</time>
        <speed>30</speed>
      </trkpt>
      <trkpt lat="47.184491" lon="14.808811">
        <ele>644.7</ele>
        <time>2016-07-17T08:11:54.629Z</time>
        <speed>30</speed>
      </trkpt>
      <trkpt lat="47.185104" lon="14.809336">
        <ele>643.4</ele>
        <time>2016-07-17T08:12:04.099Z</time>
        <speed>30</speed>
      </trkpt>
      <trkpt lat="47.185301" lon="14.809418">
        <ele>643.1</ele>
        <time>2016-07-17T08:12:06.831Z</time>
        <speed>30</speed>
      </trkpt>
      <trkpt lat="47.18569" lon="14.809485">
        <ele>642.7</ele>
        <time>2016-07-17T08:12:12.056Z</time>
        <speed>30</speed>
      </trkpt>
      <trkpt lat="47.186181" lon="14.80945">
        <ele>642.1</ele>
        <time>2016-07-17T08:12:18.614Z</time>
        <speed>30</speed>
      </trkpt>
      <trkpt lat="47.186378" lon="14.809519">
        <ele>641.8</ele>
        <time>2016-07-17T08:12:21.316Z</time>
        <speed>30</speed>
      </trkpt>
      <trkpt lat="47.186894" lon="14.810019">
        <ele>641.5</ele>
        <time>2016-07-17T08:12:29.566Z</time>
        <speed>30</speed>
      </trkpt>
      <trkpt lat="47.187451" lon="14.811127">
        <ele>640.9</ele>
        <time>2016-07-17T08:12:42.087Z</time>
        <speed>30</speed>
      </trkpt>
      <trkpt lat="47.188325" lon="14.815119">
        <ele>640.2</ele>
        <time>2016-07-17T08:13:20.219Z</time>
        <speed>30</speed>
      </trkpt>
      <trkpt lat="47.190372" lon="14.820909">
        <ele>635.7</ele>
        <time>2016-07-17T08:14:19.536Z</time>
        <speed>30</speed>
      </trkpt>
      <trkpt lat="47.192823" lon="14.826107">
        <ele>631.4</ele>
        <time>2016-07-17T08:15:17.014Z</time>
        <speed>30</speed>
      </trkpt>
      <trkpt lat="47.193797" lon="14.827379">
        <ele>627.5</ele>
        <time>2016-07-17T08:15:34.411Z</time>
        <speed>30</speed>
      </trkpt>
      <trkpt lat="47.194964" lon="14.829384">
        <ele>625.8</ele>
        <time>2016-07-17T08:15:58.386Z</time>
        <speed>30</speed>
      </trkpt>
      <trkpt lat="47.195155" lon="14.82996">
        <ele>626.3</ele>
        <time>2016-07-17T08:16:04.211Z</time>
        <speed>30</speed>
      </trkpt>
      <trkpt lat="47.195401" lon="14.83142">
        <ele>625.9</ele>
        <time>2016-07-17T08:16:17.887Z</time>
        <speed>30</speed>
      </trkpt>
      <trkpt lat="47.195606" lon="14.831942">
        <ele>625.7</ele>
        <time>2016-07-17T08:16:23.365Z</time>
        <speed>30</speed>
      </trkpt>
      <trkpt lat="47.195895" lon="14.832377">
        <ele>625.5</ele>
        <time>2016-07-17T08:16:28.889Z</time>
        <speed>30</speed>
      </trkpt>
      <trkpt lat="47.197035" lon="14.833696">
        <ele>626.2</ele>
        <time>2016-07-17T08:16:48.258Z</time>
        <speed>30</speed>
      </trkpt>
      <trkpt lat="47.198012" lon="14.835079">
        <ele>627.3</ele>
        <time>2016-07-17T08:17:06.37Z</time>
        <speed>30</speed>
      </trkpt>
      <trkpt lat="47.198138" lon="14.835579">
        <ele>628.1</ele>
        <time>2016-07-17T08:17:11.217Z</time>
        <speed>30</speed>
      </trkpt>
      <trkpt lat="47.198172" lon="14.836415">
        <ele>628.7</ele>
        <time>2016-07-17T08:17:18.832Z</time>
        <speed>30</speed>
      </trkpt>
      <trkpt lat="47.198292" lon="14.836641">
        <ele>627.8</ele>
        <time>2016-07-17T08:17:21.434Z</time>
        <speed>30</speed>
      </trkpt>
      <trkpt lat="47.198466" lon="14.836767">
        <ele>626.9</ele>
        <time>2016-07-17T08:17:24.022Z</time>
        <speed>30</speed>
      </trkpt>
      <trkpt lat="47.198756" lon="14.836815">
        <ele>626</ele>
        <time>2016-07-17T08:17:27.915Z</time>
        <speed>30</speed>
      </trkpt>
      <trkpt lat="47.200396" lon="14.836337">
        <ele>622.7</ele>
        <time>2016-07-17T08:17:50.222Z</time>
        <speed>30</speed>
      </trkpt>
      <trkpt lat="47.20101" lon="14.835989">
        <ele>623.1</ele>
        <time>2016-07-17T08:17:59.001Z</time>
        <speed>30</speed>
      </trkpt>
      <trkpt lat="47.202036" lon="14.83499">
        <ele>625.5</ele>
        <time>2016-07-17T08:18:15.428Z</time>
        <speed>30</speed>
      </trkpt>
      <trkpt lat="47.202326" lon="14.834957">
        <ele>625.5</ele>
        <time>2016-07-17T08:18:19.308Z</time>
        <speed>30</speed>
      </trkpt>
      <trkpt lat="47.202807" lon="14.835057">
        <ele>625.4</ele>
        <time>2016-07-17T08:18:25.789Z</time>
        <speed>30</speed>
      </trkpt>
      <trkpt lat="47.203367" lon="14.836357">
        <ele>625.4</ele>
        <time>2016-07-17T08:18:39.772Z</time>
        <speed>30</speed>
      </trkpt>
      <trkpt lat="47.205349" lon="14.8404">
        <ele>623.3</ele>
        <time>2016-07-17T08:19:25.053Z</time>
        <speed>30</speed>
      </trkpt>
      <trkpt lat="47.205595" lon="14.840765">
        <ele>624.3</ele>
        <time>2016-07-17T08:19:29.717Z</time>
        <speed>30</speed>
      </trkpt>
      <trkpt lat="47.205832" lon="14.840965">
        <ele>625</ele>
        <time>2016-07-17T08:19:33.363Z</time>
        <speed>30</speed>
      </trkpt>
      <trkpt lat="47.20629" lon="14.841141">
        <ele>624.7</ele>
        <time>2016-07-17T08:19:39.679Z</time>
        <speed>30</speed>
      </trkpt>
      <trkpt lat="47.20696" lon="14.841138">
        <ele>625</ele>
        <time>2016-07-17T08:19:48.618Z</time>
        <speed>30</speed>
      </trkpt>
      <trkpt lat="47.20772" lon="14.841292">
        <ele>624.4</ele>
        <time>2016-07-17T08:19:58.853Z</time>
        <speed>30</speed>
      </trkpt>
      <trkpt lat="47.208976" lon="14.841669">
        <ele>624.3</ele>
        <time>2016-07-17T08:20:15.956Z</time>
        <speed>30</speed>
      </trkpt>
      <trkpt lat="47.211367" lon="14.841621">
        <ele>622.5</ele>
        <time>2016-07-17T08:20:47.857Z</time>
        <speed>30</speed>
      </trkpt>
      <trkpt lat="47.214774" lon="14.842181">
        <ele>624.5</ele>
        <time>2016-07-17T08:21:33.594Z</time>
        <speed>30</speed>
      </trkpt>
      <trkpt lat="47.215051" lon="14.842334">
        <ele>624.7</ele>
        <time>2016-07-17T08:21:37.542Z</time>
        <speed>30</speed>
      </trkpt>
      <trkpt lat="47.21537" lon="14.842663">
        <ele>624.1</ele>
        <time>2016-07-17T08:21:42.741Z</time>
        <speed>30</speed>
      </trkpt>
      <trkpt lat="47.216766" lon="14.84485">
        <ele>620.3</ele>
        <time>2016-07-17T08:22:09.982Z</time>
        <speed>30</speed>
      </trkpt>
      <trkpt lat="47.216856" lon="14.844702">
        <ele>620.1</ele>
        <time>2016-07-17T08:22:11.784Z</time>
        <speed>30</speed>
      </trkpt>
      <trkpt lat="47.216943" lon="14.843359">
        <ele>622.4</ele>
        <time>2016-07-17T08:22:24.047Z</time>
        <speed>30</speed>
      </trkpt>
      <trkpt lat="47.21714" lon="14.842949">
        <ele>622.8</ele>
        <time>2016-07-17T08:22:28.607Z</time>
        <speed>30</speed>
      </trkpt>
      <trkpt lat="47.218133" lon="14.841765">
        <ele>622.2</ele>
        <time>2016-07-17T08:22:45.675Z</time>
        <speed>30</speed>
      </trkpt>
      <trkpt lat="47.218306" lon="14.841732">
        <ele>621.7</ele>
        <time>2016-07-17T08:22:48.002Z</time>
        <speed>30</speed>
      </trkpt>
      <trkpt lat="47.218851" lon="14.841893">
        <ele>618.9</ele>
        <time>2016-07-17T08:22:55.418Z</time>
        <speed>30</speed>
      </trkpt>
      <trkpt lat="47.219131" lon="14.841777">
        <ele>617</ele>
        <time>2016-07-17T08:22:59.299Z</time>
        <speed>30</speed>
      </trkpt>
      <trkpt lat="47.219281" lon="14.841593">
        <ele>616.5</ele>
        <time>2016-07-17T08:23:01.905Z</time>
        <speed>30</speed>
      </trkpt>
      <trkpt lat="47.219652" lon="14.840073">
        <ele>618.9</ele>
        <time>2016-07-17T08:23:16.581Z</time>
        <speed>30</speed>
      </trkpt>
      <trkpt lat="47.220666" lon="14.837717">
        <ele>619.7</ele>
        <time>2016-07-17T08:23:41.91Z</time>
        <speed>30</speed>
      </trkpt>
      <trkpt lat="47.220771" lon="14.836497">
        <ele>625.8</ele>
        <time>2016-07-17T08:23:53.087Z</time>
        <speed>30</speed>
      </trkpt>
      <trkpt lat="47.220908" lon="14.836131">
        <ele>629.7</ele>
        <time>2016-07-17T08:23:56.878Z</time>
        <speed>30</speed>
      </trkpt>
      <trkpt lat="47.221117" lon="14.835881">
        <ele>631.9</ele>
        <time>2016-07-17T08:24:00.473Z</time>
        <speed>30</speed>
      </trkpt>
      <trkpt lat="47.221998" lon="14.835488">
        <ele>631.4</ele>
        <time>2016-07-17T08:24:12.757Z</time>
        <speed>30</speed>
      </trkpt>
      <trkpt lat="47.222246" lon="14.835281">
        <ele>632.7</ele>
        <time>2016-07-17T08:24:16.562Z</time>
        <speed>30</speed>
      </trkpt>
      <trkpt lat="47.222772" lon="14.834196">
        <ele>637.4</ele>
        <time>2016-07-17T08:24:28.665Z</time>
        <speed>30</speed>
      </trkpt>
      <trkpt lat="47.223721" lon="14.831614">
        <ele>641.1</ele>
        <time>2016-07-17T08:24:55.329Z</time>
        <speed>30</speed>
      </trkpt>
      <trkpt lat="47.223963" lon="14.831293">
        <ele>641.7</ele>
        <time>2016-07-17T08:24:59.677Z</time>
        <speed>30</speed>
      </trkpt>
      <trkpt lat="47.224467" lon="14.830889">
        <ele>640.7</ele>
        <time>2016-07-17T08:25:07.338Z</time>
        <speed>30</speed>
      </trkpt>
      <trkpt lat="47.224714" lon="14.830401">
        <ele>642.2</ele>
        <time>2016-07-17T08:25:12.863Z</time>
        <speed>30</speed>
      </trkpt>
      <trkpt lat="47.225187" lon="14.830179">
        <ele>640.6</ele>
        <time>2016-07-17T08:25:19.487Z</time>
        <speed>30</speed>
      </trkpt>
      <trkpt lat="47.227599" lon="14.82962">
        <ele>636.4</ele>
        <time>2016-07-17T08:25:52.064Z</time>
        <speed>30</speed>
      </trkpt>
      <trkpt lat="47.22888" lon="14.829553">
        <ele>637.3</ele>
        <time>2016-07-17T08:26:09.165Z</time>
        <speed>30</speed>
      </trkpt>
      <trkpt lat="47.230172" lon="14.829782">
        <ele>634.1</ele>
        <time>2016-07-17T08:26:26.526Z</time>
        <speed>30</speed>
      </trkpt>
      <trkpt lat="47.232725" lon="14.830548">
        <ele>628.7</ele>
        <time>2016-07-17T08:27:01.29Z</time>
        <speed>30</speed>
      </trkpt>
      <trkpt lat="47.236804" lon="14.832639">
        <ele>629.9</ele>
        <time>2016-07-17T08:27:58.93Z</time>
        <speed>30</speed>
      </trkpt>
      <trkpt lat="47.242536" lon="14.836907">
        <ele>636.2</ele>
        <time>2016-07-17T08:29:24.671Z</time>
        <speed>30</speed>
      </trkpt>
      <trkpt lat="47.24353" lon="14.838038">
        <ele>634.4</ele>
        <time>2016-07-17T08:29:41.447Z</time>
        <speed>30</speed>
      </trkpt>
      <trkpt lat="47.245956" lon="14.841935">
        <ele>627.9</ele>
        <time>2016-07-17T08:30:29.415Z</time>
        <speed>30</speed>
      </trkpt>
      <trkpt lat="47.248391" lon="14.846074">
        <ele>628.2</ele>
        <time>2016-07-17T08:31:19.105Z</time>
        <speed>30</speed>
      </trkpt>
      <trkpt lat="47.248765" lon="14.846848">
        <ele>633.6</ele>
        <time>2016-07-17T08:31:27.727Z</time>
        <speed>30</speed>
      </trkpt>
      <trkpt lat="47.24905" lon="14.847743">
        <ele>636.6</ele>
        <time>2016-07-17T08:31:36.703Z</time>
        <speed>30</speed>
      </trkpt>
      <trkpt lat="47.250496" lon="14.856507">
        <ele>626.2</ele>
        <time>2016-07-17T08:32:58.62Z</time>
        <speed>30</speed>
      </trkpt>
      <trkpt lat="47.250566" lon="14.86267">
        <ele>618.6</ele>
        <time>2016-07-17T08:33:54.612Z</time>
        <speed>30</speed>
      </trkpt>
      <trkpt lat="47.250954" lon="14.866819">
        <ele>614.9</ele>
        <time>2016-07-17T08:34:32.655Z</time>
        <speed>30</speed>
      </trkpt>
      <trkpt lat="47.251569" lon="14.869427">
        <ele>614.7</ele>
        <time>2016-07-17T08:34:57.726Z</time>
        <speed>30</speed>
      </trkpt>
      <trkpt lat="47.252354" lon="14.872237">
        <ele>625.2</ele>
        <time>2016-07-17T08:35:25.316Z</time>
        <speed>30</speed>
      </trkpt>
      <trkpt lat="47.25526" lon="14.881191">
        <ele>615.2</ele>
        <time>2016-07-17T08:36:55.416Z</time>
        <speed>30</speed>
      </trkpt>
      <trkpt lat="47.25544" lon="14.882287">
        <ele>612.3</ele>
        <time>2016-07-17T08:37:05.657Z</time>
        <speed>30</speed>
      </trkpt>
      <trkpt lat="47.255935" lon="14.888395">
        <ele>618.7</ele>
        <time>2016-07-17T08:38:01.528Z</time>
        <speed>30</speed>
      </trkpt>
      <trkpt lat="47.257246" lon="14.895868">
        <ele>607.8</ele>
        <time>2016-07-17T08:39:11.622Z</time>
        <speed>30</speed>
      </trkpt>
      <trkpt lat="47.257642" lon="14.897287">
        <ele>605.2</ele>
        <time>2016-07-17T08:39:25.551Z</time>
        <speed>30</speed>
      </trkpt>
      <trkpt lat="47.25804" lon="14.898232">
        <ele>606.6</ele>
        <time>2016-07-17T08:39:35.644Z</time>
        <speed>30</speed>
      </trkpt>
      <trkpt lat="47.259819" lon="14.901329">
        <ele>607.1</ele>
        <time>2016-07-17T08:40:12.448Z</time>
        <speed>30</speed>
      </trkpt>
      <trkpt lat="47.260272" lon="14.901926">
        <ele>603.8</ele>
        <time>2016-07-17T08:40:20.567Z</time>
        <speed>30</speed>
      </trkpt>
      <trkpt lat="47.261936" lon="14.903136">
        <ele>601.1</ele>
        <time>2016-07-17T08:40:45.338Z</time>
        <speed>30</speed>
      </trkpt>
      <trkpt lat="47.265281" lon="14.90646">
        <ele>603.3</ele>
        <time>2016-07-17T08:41:39.215Z</time>
        <speed>30</speed>
      </trkpt>
      <trkpt lat="47.265757" lon="14.906742">
        <ele>605.2</ele>
        <time>2016-07-17T08:41:46.061Z</time>
        <speed>30</speed>
      </trkpt>
      <trkpt lat="47.267354" lon="14.907437">
        <ele>601.8</ele>
        <time>2016-07-17T08:42:08.282Z</time>
        <speed>30</speed>
      </trkpt>
      <trkpt lat="47.267773" lon="14.907718">
        <ele>602.5</ele>
        <time>2016-07-17T08:42:14.425Z</time>
        <speed>30</speed>
      </trkpt>
      <trkpt lat="47.268068" lon="14.908075">
        <ele>603.5</ele>
        <time>2016-07-17T08:42:19.521Z</time>
        <speed>30</speed>
      </trkpt>
      <trkpt lat="47.26986" lon="14.910917">
        <ele>612.8</ele>
        <time>2016-07-17T08:42:54.7Z</time>
        <speed>30</speed>
      </trkpt>
      <trkpt lat="47.270753" lon="14.911853">
        <ele>612.2</ele>
        <time>2016-07-17T08:43:09.335Z</time>
        <speed>30</speed>
      </trkpt>
      <trkpt lat="47.272543" lon="14.913483">
        <ele>609.2</ele>
        <time>2016-07-17T08:43:37.43Z</time>
        <speed>30</speed>
      </trkpt>
      <trkpt lat="47.276245" lon="14.916198">
        <ele>605</ele>
        <time>2016-07-17T08:44:32.629Z</time>
        <speed>30</speed>
      </trkpt>
      <trkpt lat="47.277588" lon="14.917384">
        <ele>612.5</ele>
        <time>2016-07-17T08:44:53.533Z</time>
        <speed>30</speed>
      </trkpt>
      <trkpt lat="47.278165" lon="14.918067">
        <ele>610.9</ele>
        <time>2016-07-17T08:45:03.418Z</time>
        <speed>30</speed>
      </trkpt>
      <trkpt lat="47.279407" lon="14.920731">
        <ele>608.7</ele>
        <time>2016-07-17T08:45:32.736Z</time>
        <speed>30</speed>
      </trkpt>
      <trkpt lat="47.280593" lon="14.924889">
        <ele>600.2</ele>
        <time>2016-07-17T08:46:13.668Z</time>
        <speed>30</speed>
      </trkpt>
      <trkpt lat="47.282954" lon="14.935952">
        <ele>604</ele>
        <time>2016-07-17T08:47:58.928Z</time>
        <speed>30</speed>
      </trkpt>
      <trkpt lat="47.283239" lon="14.936672">
        <ele>601.7</ele>
        <time>2016-07-17T08:48:06.49Z</time>
        <speed>30</speed>
      </trkpt>
      <trkpt lat="47.283681" lon="14.937465">
        <ele>602.5</ele>
        <time>2016-07-17T08:48:15.796Z</time>
        <speed>30</speed>
      </trkpt>
      <trkpt lat="47.285215" lon="14.939543">
        <ele>601.5</ele>
        <time>2016-07-17T08:48:43.629Z</time>
        <speed>30</speed>
      </trkpt>
      <trkpt lat="47.285815" lon="14.940166">
        <ele>596.1</ele>
        <time>2016-07-17T08:48:53.43Z</time>
        <speed>30</speed>
      </trkpt>
      <trkpt lat="47.286423" lon="14.940638">
        <ele>596.3</ele>
        <time>2016-07-17T08:49:02.604Z</time>
        <speed>30</speed>
      </trkpt>
      <trkpt lat="47.287579" lon="14.941204">
        <ele>592.4</ele>
        <time>2016-07-17T08:49:18.86Z</time>
        <speed>30</speed>
      </trkpt>
      <trkpt lat="47.288384" lon="14.941397">
        <ele>588</ele>
        <time>2016-07-17T08:49:29.741Z</time>
        <speed>30</speed>
      </trkpt>
      <trkpt lat="47.288957" lon="14.94143">
        <ele>587</ele>
        <time>2016-07-17T08:49:37.391Z</time>
        <speed>30</speed>
      </trkpt>
      <trkpt lat="47.289531" lon="14.941399">
        <ele>586.2</ele>
        <time>2016-07-17T08:49:45.054Z</time>
        <speed>30</speed>
      </trkpt>
      <trkpt lat="47.290208" lon="14.941244">
        <ele>585</ele>
        <time>2016-07-17T08:49:54.195Z</time>
        <speed>30</speed>
      </trkpt>
      <trkpt lat="47.290846" lon="14.940907">
        <ele>583.5</ele>
        <time>2016-07-17T08:50:03.238Z</time>
        <speed>30</speed>
      </trkpt>
      <trkpt lat="47.291833" lon="14.940156">
        <ele>584.6</ele>
        <time>2016-07-17T08:50:18.066Z</time>
        <speed>30</speed>
      </trkpt>
      <trkpt lat="47.296953" lon="14.935543">
        <ele>590.5</ele>
        <time>2016-07-17T08:51:38.184Z</time>
        <speed>30</speed>
      </trkpt>
      <trkpt lat="47.297229" lon="14.935638">
        <ele>591.5</ele>
        <time>2016-07-17T08:51:41.965Z</time>
        <speed>30</speed>
      </trkpt>
      <trkpt lat="47.297144" lon="14.935941">
        <ele>590.5</ele>
        <time>2016-07-17T08:51:44.936Z</time>
        <speed>30</speed>
      </trkpt>
      <trkpt lat="47.297532" lon="14.936617">
        <ele>589.8</ele>
        <time>2016-07-17T08:51:52.963Z</time>
        <speed>30</speed>
      </trkpt>
      <trkpt lat="47.296794" lon="14.938916">
        <ele>584.5</ele>
        <time>2016-07-17T08:52:16.035Z</time>
        <speed>30</speed>
      </trkpt>
      <trkpt lat="47.2966" lon="14.939059">
        <ele>584.5</ele>
        <time>2016-07-17T08:52:18.929Z</time>
        <speed>30</speed>
      </trkpt>
      <trkpt lat="47.29614" lon="14.939041">
        <ele>584.5</ele>
        <time>2016-07-17T08:52:25.068Z</time>
        <speed>30</speed>
      </trkpt>
      <trkpt lat="47.29591" lon="14.939166">
        <ele>584.5</ele>
        <time>2016-07-17T08:52:28.339Z</time>
        <speed>30</speed>
      </trkpt>
      <trkpt lat="47.295959" lon="14.940502">
        <ele>586.4</ele>
        <time>2016-07-17T08:52:40.482Z</time>
        <speed>30</speed>
      </trkpt>
      <trkpt lat="47.296443" lon="14.940448">
        <ele>587.5</ele>
        <time>2016-07-17T08:52:46.958Z</time>
        <speed>30</speed>
      </trkpt>
      <trkpt lat="47.296565" lon="14.940501">
        <ele>587.9</ele>
        <time>2016-07-17T08:52:48.655Z</time>
        <speed>30</speed>
      </trkpt>
      <trkpt lat="47.296553" lon="14.940769">
        <ele>588.2</ele>
        <time>2016-07-17T08:52:51.089Z</time>
        <speed>30</speed>
      </trkpt>
      <trkpt lat="47.296419" lon="14.940929">
        <ele>587.5</ele>
        <time>2016-07-17T08:52:53.391Z</time>
        <speed>30</speed>
      </trkpt>
      <trkpt lat="47.296201" lon="14.940894">
        <ele>587.1</ele>
        <time>2016-07-17T08:52:56.317Z</time>
        <speed>30</speed>
      </trkpt>
      <trkpt lat="47.296056" lon="14.941161">
        <ele>585.7</ele>
        <time>2016-07-17T08:52:59.415Z</time>
        <speed>30</speed>
      </trkpt>
    </trkseg>
  </trk>
</gpx>